[[{"header":{"parameterUnit":"m.s-1","parameterCategory":1,"la1":30.6,"la2":29.2853,"lo1":-89.7004,"lo2":-87.6739,"dy":0.0162,"dx":0.0183,"nx":112,"ny":82,"refTime":"2025-08-04T12:00:00:Z","depth":0,"parameterNumber":2,"parameterNumberName":"U-component_of_WINDS"},"data":[0.0,0.0,0.0,0.0,0.0,0.0,0.0,0.0,0.0,0.0,0.0,0.0,0.0,0.0,0.0,0.0,0.0,0.0,0.0,0.0,0.0,0.0,0.0,0.0,0.0,0.0,0.0,0.0,0.0,0.0,0.0,0.0,0.0,0.0,0.0,0.0,0.0,0.0,0.0,0.0,0.0,0.0,0.0,0.0,0.0,0.0,0.0,0.0,0.0,0.0,0.0,0.0,0.0,0.0,0.0,0.0,0.0,0.0,0.0,0.0,0.0,0.0,0.0,0.0,0.0,0.0,0.0,0.0,0.0,0.0,0.0,0.0,0.0,0.0,0.0,0.0,0.0,0.0,0.0,0.0,0.0,0.0,0.0,0.0,0.0,0.0,0.0,0.0,0.0,0.0,0.0,-1.7801,-1.9963,-2.0974,-2.0365,-1.9164,-1.6833,-1.2969,0.0,0.0,0.0,0.0,0.0,0.0,0.0,0.0,0.0,0.0,0.0,0.0,0.0,0.0,0.0,0.0,0.0,0.0,0.0,0.0,0.0,0.0,0.0,0.0,0.0,0.0,0.0,0.0,0.0,0.0,0.0,0.0,0.0,0.0,0.0,0.0,0.0,0.0,0.0,0.0,0.0,0.0,0.0,0.0,0.0,0.0,0.0,0.0,0.0,0.0,0.0,0.0,0.0,0.0,0.0,0.0,0.0,0.0,0.0,0.0,0.0,0.0,0.0,0.0,0.0,0.0,0.0,0.0,0.0,0.0,0.0,0.0,0.0,0.0,0.0,0.0,0.0,0.0,0.0,0.0,0.0,0.0,0.0,0.0,0.0,0.0,0.0,0.0,0.0,0.0,0.0,0.0,0.0,0.0,0.0,0.0,0.0,0.0,0.0,0.0,0.0,0.0,0.0,0.0,-1.6394,-2.0832,-2.2356,-2.2475,-2.0911,-1.9794,-1.776,-1.447,0.0,0.0,0.0,0.0,0.0,0.0,0.0,0.0,0.0,0.0,0.0,0.0,0.0,0.0,0.0,0.0,0.0,0.0,0.0,0.0,0.0,0.0,0.0,0.0,0.0,0.0,0.0,0.0,0.0,0.0,0.0,0.0,0.0,0.0,0.0,0.0,0.0,0.0,0.0,0.0,0.0,0.0,0.0,0.0,0.0,0.0,0.0,0.0,0.0,0.0,0.0,0.0,0.0,0.0,0.0,0.0,0.0,0.0,0.0,0.0,0.0,0.0,0.0,0.0,0.0,0.0,0.0,0.0,0.0,0.0,0.0,0.0,0.0,0.0,0.0,0.0,0.0,0.0,0.0,0.0,0.0,0.0,0.0,0.0,0.0,0.0,0.0,0.0,0.0,0.0,0.0,0.0,0.0,0.0,0.0,0.0,0.0,0.0,0.0,0.0,0.0,0.0,0.0,-1.5497,-1.8135,-2.1633,-2.2958,-2.3213,-2.2237,-2.1148,-1.9249,-1.6198,-1.491,0.0,0.0,0.0,0.0,0.0,0.0,0.0,0.0,0.0,0.0,0.0,0.0,0.0,0.0,0.0,0.0,0.0,0.0,0.0,0.0,0.0,0.0,0.0,0.0,0.0,0.0,0.0,0.0,0.0,0.0,0.0,0.0,0.0,0.0,0.0,0.0,0.0,0.0,0.0,0.0,0.0,0.0,0.0,0.0,0.0,0.0,0.0,0.0,0.0,0.0,0.0,0.0,0.0,0.0,0.0,0.0,0.0,0.0,0.0,0.0,0.0,0.0,0.0,0.0,0.0,0.0,0.0,0.0,0.0,0.0,0.0,0.0,0.0,0.0,0.0,0.0,0.0,0.0,0.0,0.0,0.0,0.0,0.0,0.0,0.0,0.0,0.0,0.0,0.0,0.0,0.0,0.0,0.0,0.0,0.0,0.0,0.0,0.0,0.0,0.0,0.0,0.0,-1.7442,-1.9516,-2.1721,-2.3012,-2.3566,-2.3212,-2.1803,-1.9848,-1.7355,-1.5369,0.0,0.0,0.0,0.0,0.0,0.0,0.0,0.0,0.0,0.0,0.0,0.0,0.0,0.0,0.0,0.0,0.0,0.0,0.0,0.0,0.0,0.0,0.0,0.0,0.0,0.0,0.0,0.0,0.0,0.0,0.0,0.0,0.0,0.0,0.0,0.0,0.0,0.0,0.0,0.0,0.0,0.0,0.0,0.0,0.0,0.0,0.0,0.0,0.0,0.0,0.0,0.0,0.0,0.0,0.0,0.0,0.0,0.0,0.0,0.0,0.0,0.0,0.0,0.0,0.0,0.0,0.0,0.0,0.0,0.0,0.0,0.0,0.0,0.0,0.0,0.0,0.0,0.0,0.0,0.0,0.0,0.0,0.0,0.0,0.0,0.0,0.0,0.0,0.0,0.0,0.0,0.0,0.0,0.0,0.0,0.0,0.0,0.0,0.0,0.0,0.0,0.0,-1.7479,-2.0041,-2.1653,-2.2933,-2.3566,-2.3212,-2.0575,-1.8407,-1.7269,-1.4056,0.0,0.0,0.0,0.0,0.0,0.0,0.0,0.0,0.0,0.0,0.0,0.0,0.0,0.0,0.0,0.0,0.0,0.0,0.0,0.0,0.0,0.0,0.0,0.0,0.0,0.0,0.0,0.0,0.0,0.0,0.0,0.0,0.0,0.0,0.0,0.0,0.0,0.0,0.0,0.0,0.0,0.0,0.0,0.0,0.0,0.0,0.0,0.0,0.0,0.0,0.0,0.0,0.0,0.0,0.0,0.0,0.0,0.0,0.0,0.0,0.0,0.0,0.0,0.0,0.0,0.0,0.0,0.0,0.0,0.0,0.0,0.0,0.0,0.0,0.0,0.0,0.0,0.0,0.0,0.0,0.0,0.0,0.0,0.0,0.0,0.0,0.0,0.0,0.0,0.0,0.0,0.0,0.0,0.0,0.0,0.0,0.0,0.0,0.0,0.0,0.0,0.0,-1.7086,-1.9578,0.0,-2.2933,-2.3566,-2.3212,-2.1567,-1.9559,-1.7357,0.0,0.0,0.0,0.0,0.0,0.0,0.0,0.0,0.0,0.0,0.0,0.0,0.0,0.0,0.0,0.0,0.0,0.0,0.0,0.0,0.0,0.0,0.0,0.0,0.0,0.0,0.0,0.0,0.0,0.0,0.0,0.0,0.0,0.0,0.0,0.0,0.0,0.0,0.0,0.0,0.0,0.0,0.0,0.0,0.0,0.0,0.0,0.0,0.0,0.0,0.0,0.0,0.0,0.0,0.0,0.0,0.0,0.0,0.0,0.0,0.0,0.0,0.0,0.0,0.0,0.0,0.0,0.0,0.0,0.0,0.0,0.0,0.0,0.0,0.0,0.0,0.0,0.0,0.0,0.0,0.0,0.0,0.0,0.0,0.0,0.0,0.0,0.0,0.0,0.0,0.0,0.0,0.0,0.0,0.0,0.0,0.0,0.0,0.0,0.0,0.0,0.0,-1.4457,-1.6976,-1.9354,0.0,-2.2775,-2.3414,-2.3069,-2.1511,-1.9465,-1.6931,0.0,0.0,0.0,0.0,0.0,0.0,0.0,0.0,0.0,0.0,0.0,0.0,0.0,0.0,0.0,0.0,0.0,0.0,0.0,0.0,0.0,0.0,0.0,0.0,0.0,0.0,0.0,0.0,0.0,0.0,0.0,0.0,0.0,0.0,0.0,0.0,0.0,0.0,0.0,0.0,0.0,0.0,0.0,0.0,0.0,0.0,0.0,0.0,0.0,0.0,0.0,0.0,0.0,0.0,0.0,0.0,0.0,0.0,0.0,0.0,0.0,0.0,0.0,0.0,0.0,0.0,0.0,0.0,0.0,0.0,0.0,0.0,0.0,0.0,0.0,0.0,0.0,0.0,0.0,0.0,0.0,0.0,0.0,0.0,0.0,0.0,0.0,0.0,0.0,0.0,0.0,0.0,0.0,0.0,0.0,0.0,0.0,0.0,0.0,0.0,0.0,0.0,-1.4532,-1.7224,-1.9609,-2.1147,-2.2442,-2.3069,-2.2703,-1.9985,-1.7587,0.0,0.0,0.0,0.0,0.0,0.0,0.0,0.0,0.0,0.0,0.0,0.0,0.0,0.0,0.0,0.0,0.0,0.0,0.0,0.0,0.0,0.0,0.0,0.0,0.0,0.0,0.0,0.0,0.0,0.0,0.0,0.0,0.0,0.0,0.0,0.0,0.0,0.0,0.0,0.0,0.0,0.0,0.0,0.0,0.0,0.0,0.0,0.0,0.0,0.0,0.0,0.0,0.0,0.0,0.0,0.0,0.0,0.0,0.0,0.0,0.0,0.0,0.0,0.0,0.0,0.0,0.0,0.0,0.0,0.0,0.0,0.0,0.0,0.0,0.0,0.0,0.0,0.0,0.0,0.0,0.0,0.0,0.0,0.0,0.0,0.0,0.0,0.0,0.0,0.0,0.0,0.0,0.0,0.0,0.0,0.0,0.0,0.0,0.0,0.0,0.0,0.0,0.0,-1.5095,-1.795,-2.0355,-2.1651,-2.2441,-2.2613,-2.1975,-2.0426,-1.8222,-1.5207,0.0,0.0,0.0,0.0,0.0,0.0,0.0,0.0,0.0,0.0,0.0,0.0,0.0,0.0,0.0,0.0,0.0,0.0,0.0,0.0,0.0,0.0,0.0,0.0,0.0,0.0,0.0,0.0,0.0,0.0,0.0,0.0,0.0,0.0,0.0,0.0,0.0,0.0,0.0,0.0,0.0,0.0,0.0,0.0,0.0,0.0,0.0,0.0,0.0,0.0,0.0,0.0,0.0,0.0,0.0,0.0,0.0,0.0,0.0,0.0,0.0,0.0,0.0,0.0,0.0,0.0,0.0,0.0,0.0,0.0,0.0,0.0,0.0,0.0,0.0,0.0,0.0,0.0,0.0,0.0,0.0,0.0,0.0,0.0,0.0,0.0,0.0,0.0,0.0,0.0,0.0,0.0,0.0,0.0,0.0,0.0,0.0,0.0,0.0,0.0,0.0,0.0,-1.5293,-1.7962,-2.0197,-2.1433,-2.1846,-2.1781,-2.1215,-2.0295,-1.8413,-1.5269,0.0,0.0,0.0,0.0,0.0,0.0,0.0,0.0,0.0,0.0,0.0,0.0,0.0,0.0,0.0,0.0,0.0,0.0,0.0,0.0,0.0,0.0,0.0,0.0,0.0,0.0,0.0,0.0,0.0,0.0,0.0,0.0,0.0,0.0,0.0,0.0,0.0,0.0,0.0,0.0,0.0,0.0,0.0,0.0,0.0,0.0,0.0,0.0,0.0,0.0,0.0,0.0,0.0,0.0,0.0,0.0,0.0,0.0,0.0,0.0,0.0,0.0,0.0,0.0,0.0,0.0,0.0,0.0,0.0,0.0,0.0,0.0,0.0,0.0,0.0,0.0,0.0,0.0,0.0,0.0,0.0,0.0,0.0,0.0,0.0,0.0,0.0,0.0,0.0,0.0,0.0,0.0,0.0,0.0,0.0,0.0,0.0,0.0,0.0,0.0,0.0,0.0,-1.5212,-1.7547,-1.9539,-2.075,-2.0907,-2.0763,-2.0418,-1.9739,-1.8211,-1.566,0.0,0.0,0.0,0.0,0.0,0.0,0.0,0.0,0.0,0.0,0.0,0.0,0.0,0.0,0.0,0.0,0.0,0.0,0.0,0.0,0.0,0.0,0.0,0.0,0.0,0.0,0.0,0.0,0.0,0.0,0.0,0.0,0.0,0.0,0.0,0.0,0.0,0.0,0.0,0.0,0.0,0.0,0.0,0.0,0.0,0.0,0.0,0.0,0.0,0.0,0.0,0.0,0.0,0.0,0.0,0.0,0.0,0.0,0.0,0.0,-0.6988,0.0,0.0,0.0,0.0,0.0,0.0,0.0,0.0,0.0,0.0,0.0,0.0,0.0,0.0,0.0,0.0,0.0,0.0,0.0,0.0,0.0,0.0,0.0,0.0,0.0,0.0,0.0,0.0,0.0,0.0,0.0,0.0,0.0,0.0,0.0,0.0,0.0,0.0,0.0,0.0,0.0,-1.5012,-1.7735,-1.9857,-2.0522,-2.0364,-2.0067,-1.9668,-1.8999,-1.7491,-1.4898,0.0,0.0,0.0,0.0,0.0,0.0,0.0,0.0,0.0,0.0,0.0,0.0,0.0,0.0,0.0,0.0,0.0,0.0,0.0,0.0,0.0,0.0,0.0,0.0,0.0,0.0,0.0,0.0,0.0,0.0,0.0,0.0,0.0,0.0,0.0,0.0,0.0,0.0,0.0,0.0,0.0,0.0,0.0,0.0,0.0,0.0,0.0,0.0,0.0,0.0,0.0,0.0,0.0,0.0,0.0,0.0,0.0,0.0,0.0,0.0,0.0,-1.2979,0.0,0.0,0.0,0.0,0.0,0.0,0.0,0.0,0.0,0.0,0.0,0.0,0.0,0.0,0.0,0.0,0.0,0.0,0.0,0.0,0.0,0.0,0.0,0.0,0.0,0.0,0.0,0.0,0.0,0.0,0.0,0.0,0.0,0.0,0.0,0.0,0.0,0.0,0.0,0.0,-1.5174,-1.73,-1.8936,-1.9447,-1.9273,-1.8988,-1.8658,-1.8457,-1.7557,-1.5677,-1.4976,0.0,0.0,0.0,0.0,0.0,0.0,0.0,0.0,0.0,0.0,0.0,0.0,0.0,0.0,0.0,0.0,0.0,0.0,0.0,0.0,0.0,0.0,0.0,0.0,0.0,0.0,0.0,0.0,0.0,0.0,0.0,0.0,0.0,0.0,0.0,0.0,0.0,0.0,0.0,0.0,0.0,0.0,0.0,0.0,0.0,0.0,0.0,0.0,0.0,0.0,0.0,0.0,0.0,0.0,0.0553,-0.0106,-0.5336,-0.8958,-1.1356,-1.6209,-2.0168,-2.2921,0.0,0.0,0.0,0.0,0.0,0.0,0.0,0.0,0.0,0.0,0.0,0.0,0.0,0.0,0.0,0.0,0.0,0.0,0.0,0.0,0.0,0.0,0.0,0.0,0.0,-2.1416,-2.0948,0.0,0.0,0.0,0.0,0.0,0.0,0.0,0.0,0.0,0.0,0.0,0.0,-1.5497,-1.6823,-1.7844,-1.8322,-1.8234,-1.8073,-1.7969,-1.8114,-1.7788,-1.6825,-1.5622,-1.4601,0.0,0.0,0.0,0.0,0.0,0.0,0.0,0.0,0.0,0.0,0.0,0.0,0.0,0.0,0.0,0.0,0.0,0.0,0.0,0.0,0.0,0.0,0.0,0.0,0.0,0.0,0.0,0.0,0.0,0.0,0.0,0.0,-1.2056,-1.2994,0.0,0.0,0.0,0.0,0.0,0.0,0.0,0.0,0.0,0.0,0.0,0.0,0.0,0.0,-0.6734,-0.4547,-0.2995,-0.2167,-0.1344,-0.0946,-0.1002,-0.3457,-0.3334,-0.1676,-1.1917,0.0,-2.2594,-2.2446,0.0,0.0,0.0,0.0,0.0,0.0,0.0,0.0,0.0,0.0,0.0,0.0,0.0,0.0,0.0,0.0,0.0,0.0,0.0,0.0,0.0,0.0,-2.4368,-2.3682,-2.4024,-2.4167,0.0,-2.0368,-1.7826,-1.6608,0.0,0.0,0.0,0.0,0.0,0.0,0.0,0.0,-1.5634,-1.6928,-1.7914,-1.827,-1.8026,-1.8055,-1.8543,-1.8101,-1.7572,-1.7077,-1.6855,-1.6327,-1.5361,-1.3887,0.0,0.0,0.0,0.0,0.0,0.0,0.0,0.0,0.0,0.0,0.0,0.0,0.0,0.0,0.0,0.0,0.0,0.0,0.0,0.0,0.0,0.0,0.0,0.0,0.0,0.0,0.0,0.0,0.0,-1.141,-1.3134,-1.4098,-1.4031,-1.4006,0.0,0.0,0.0,0.0,0.0,0.0,0.0,0.0,0.0,-1.6506,-1.5642,-1.4743,-1.3835,-1.2033,-1.0466,-0.9106,-0.7454,-0.609,-0.4917,-0.5787,-0.6618,-0.7789,-1.4414,-1.9687,-2.3644,-2.3938,-2.2646,-2.0312,0.0,0.0,0.0,0.0,0.0,-1.215,-1.3395,0.0,0.0,0.0,0.0,0.0,0.0,0.0,0.0,0.0,0.0,0.0,0.0,0.0,0.0,-2.4873,-2.5064,-2.512,-2.4774,-2.3337,-2.155,0.0,-1.9236,-1.8204,-1.4919,0.0,0.0,0.0,0.0,0.0,-1.6631,-1.7068,-1.745,-1.8038,-1.7724,-1.7691,-1.8097,-1.8029,-1.7973,-1.7939,-1.7406,-1.6889,-1.6463,-1.5284,-1.4261,0.0,0.0,0.0,0.0,0.0,0.0,0.0,0.0,0.0,0.0,0.0,0.0,0.0,0.0,0.0,0.0,0.0,0.0,0.0,0.0,0.0,0.0,0.0,0.0,0.0,0.0,0.0,0.0,-1.2195,-1.407,-1.5312,-1.5558,-1.581,0.0,0.0,0.0,0.0,0.0,0.0,-2.1206,-2.1977,-2.2399,-2.2345,-2.1848,-2.1341,-2.0802,-1.9148,-1.7551,-1.6072,-1.3869,-1.1719,-0.9722,-0.9597,-1.0316,-1.1875,-1.6761,-1.9984,-2.2069,-2.4542,-2.4682,-2.3268,-2.2106,-2.0537,0.0,-1.7796,-1.6828,-1.6239,-1.7864,-1.8674,-1.9255,-2.077,0.0,-2.1988,-2.0633,0.0,0.0,0.0,0.0,-2.2913,-2.4177,0.0,-2.4799,-2.5449,-2.5517,-2.5415,-2.5406,-2.5235,-2.4427,0.0,-2.2,-2.109,-1.7158,0.0,0.0,0.0,0.0,-1.6636,-1.8138,-1.7683,-1.7471,-1.8208,-1.7757,-1.7562,-1.7907,-1.8153,-1.841,-1.8697,-1.7944,-1.7439,-1.7381,-1.6416,-1.5378,-1.4277,0.0,0.0,0.0,0.0,0.0,0.0,0.0,0.0,0.0,0.0,0.0,0.0,0.0,0.0,0.0,0.0,0.0,0.0,0.0,0.0,0.0,0.0,0.0,0.0,0.0,0.0,0.0,0.0,0.0,-1.6775,-1.6881,0.0,0.0,0.0,0.0,-2.0701,-2.2889,-2.4624,-2.5889,-2.7494,-2.8375,-2.8365,-2.8228,-2.7774,-2.7043,-2.4537,-2.2864,-2.2022,-1.9258,-1.6812,-1.4741,-1.445,-1.1149,-0.6159,-1.6091,-1.8231,-1.5395,-2.4011,-2.6927,-2.5925,-2.4898,-2.3759,-2.2773,-2.3271,-2.3293,-2.3301,-2.4713,-2.5474,-2.5918,-2.6579,-2.6028,-2.5057,-2.4924,-2.4347,0.0,0.0,-2.4752,-2.543,-2.5584,-2.5581,-2.5544,-2.5581,-2.5551,-2.5488,-2.5401,-2.5391,-2.4927,0.0,-2.3164,-2.2436,-1.9929,0.0,0.0,-1.9013,-1.8521,-1.8759,-2.0183,-1.9159,-1.8584,-1.9255,-1.8398,-1.7992,-1.8508,-1.8566,-1.8679,-1.8966,-1.8698,-1.8417,-1.8156,-1.7185,-1.6614,-1.6546,-1.4606,0.0,0.0,0.0,0.0,0.0,0.0,0.0,0.0,0.0,0.0,0.0,0.0,0.0,0.0,0.0,0.0,0.0,0.0,0.0,0.0,0.0,0.0,0.0,0.0,0.0,0.0,0.0,0.0,-1.773,-1.8444,0.0,0.0,-2.0857,-2.2109,-2.344,-2.597,-2.7747,-2.846,-3.0389,-3.1513,-3.1513,-3.2214,-3.2311,-3.1752,-3.0509,-2.9205,-2.783,-2.5397,-2.3135,-2.1084,-1.9317,-1.8366,-1.8312,-2.1678,-2.3599,-2.4645,-2.8272,-2.8791,-2.7286,-2.7151,-2.6658,-2.6041,-2.6173,-2.6319,-2.6493,-2.6964,-2.7217,-2.7379,-2.7635,-2.7059,-2.6266,-2.6295,-2.573,-2.5117,-2.5184,-2.5424,-2.5662,-2.5683,-2.5683,-2.5661,-2.5661,-2.557,-2.5484,-2.5477,-2.5294,-2.4965,-2.4351,-2.4245,-2.3537,-2.1242,-2.127,-2.1171,-1.9856,-1.9891,-2.0423,-2.1409,-2.0678,-2.0336,-2.1062,-2.0363,-1.9797,-1.9631,-1.9632,-1.9506,-1.92,-1.8983,-1.8734,-1.8469,-1.7948,-1.736,-1.6716,-1.5959,-1.4865,0.0,0.0,0.0,0.0,0.0,0.0,0.0,0.0,0.0,0.0,0.0,0.0,0.0,0.0,0.0,0.0,0.0,0.0,0.0,0.0,0.0,0.0,0.0,0.0,0.0,0.0,-1.7256,-1.842,-1.9572,-2.0685,-2.1792,-2.3025,-2.4563,-2.6465,-2.8464,-3.0024,-3.0974,-3.2646,-3.3618,-3.3723,-3.4561,-3.4901,-3.4606,-3.4198,-3.3446,-3.2316,-3.0742,-2.9077,-2.7361,-2.6114,-2.6327,-2.7672,-2.7869,-2.9117,-3.1074,-3.1484,-3.0662,-2.9179,-2.9051,-2.8783,-2.8468,-2.8378,-2.8473,-2.8689,-2.8729,-2.8766,-2.8789,-2.8832,-2.8112,-2.7255,-2.7283,-2.6542,-2.5662,-2.5663,-2.5664,-2.5661,-2.5661,-2.5658,-2.5634,-2.5634,-2.5561,-2.5479,-2.5389,-2.5195,-2.4972,-2.4741,-2.47,-2.4188,-2.2536,-2.2652,-2.2533,-2.1191,-2.1434,-2.1971,-2.2571,-2.1799,-2.1489,-2.2196,-2.1409,-2.0649,-2.0246,-2.0192,-1.9954,-1.9344,-1.9101,-1.8914,-1.8752,-1.8223,-1.7746,-1.7363,-1.6868,-1.58,-1.4094,0.0,0.0,0.0,0.0,0.0,0.0,0.0,0.0,0.0,0.0,0.0,0.0,0.0,0.0,0.0,0.0,0.0,0.0,0.0,0.0,0.0,0.0,0.0,-1.4932,-1.6438,-1.803,-1.9112,-2.0298,-2.1748,-2.3709,-2.4364,-2.6149,-2.978,-3.0439,-3.1568,-3.3532,-3.43,-3.4832,-3.5126,-3.5407,-3.5598,-3.5669,-3.5418,-3.5333,-3.5398,-3.5121,-3.4364,-3.3274,-3.4685,-3.4254,-3.2501,-3.3929,-3.4019,-3.3134,-3.3138,-3.257,-3.1614,-3.0621,-3.0139,-3.0013,-2.9999,-3.0013,-3.0061,-3.0311,-3.0441,-3.0498,-3.0498,-2.94,-2.8092,-2.8096,-2.6926,-2.5592,-2.5598,-2.5605,-2.5601,-2.5601,-2.5551,-2.5493,-2.5493,-2.5508,-2.5413,-2.5157,-2.5101,-2.4965,-2.4588,-2.4495,-2.4338,-2.3798,-2.3714,-2.3628,-2.3277,-2.3212,0.0,-2.3671,-2.2528,-2.1931,-2.2574,-2.1414,-2.0508,-2.0264,-2.0228,-1.9955,-1.9329,-1.9101,-1.9019,-1.9002,-1.7986,-1.7807,-1.8567,-1.7217,-1.593,-1.4779,0.0,0.0,0.0,0.0,0.0,0.0,0.0,0.0,0.0,0.0,0.0,0.0,0.0,0.0,0.0,0.0,0.0,0.0,0.0,0.0,0.0,0.0,-1.7801,-1.8254,-1.9461,-2.0878,-2.2585,-2.3069,-2.4017,-2.5928,-2.7031,-2.8628,-3.1044,-3.2198,-3.324,-3.4345,-3.4774,-3.5283,-3.5944,-3.6323,-3.686,-3.7544,-3.7532,-3.7576,-3.7675,-3.698,-3.6462,-3.6142,-3.5907,-3.5476,-3.4921,-3.5345,-3.4979,-3.4119,-3.4018,-3.3103,-3.1719,-3.12,-3.0713,-3.0267,-3.0075,-3.0122,-3.0299,-3.0367,-3.0414,-3.0449,-3.0472,-2.9373,-2.8034,-2.8097,-2.6907,-2.5524,-2.5528,-2.5538,-2.5535,-2.5535,-2.5503,-2.5493,-2.5493,-2.5451,-2.5381,-2.5139,-2.4981,-2.4804,-2.4543,-2.4375,-2.4228,-2.4094,-2.4074,-2.4016,-2.3937,0.0,0.0,-2.3714,-2.3575,-2.3469,-2.3389,-2.3063,-2.2339,-2.1168,-2.1041,-2.0445,0.0,-1.9166,-1.915,-1.9019,-1.8716,-1.8484,-1.831,-1.7354,-1.6686,0.0,0.0,0.0,0.0,0.0,0.0,0.0,0.0,0.0,0.0,0.0,0.0,0.0,0.0,0.0,0.0,0.0,0.0,0.0,0.0,0.0,0.0,-1.9478,-2.1021,-2.2459,-2.2319,-2.258,-2.4031,-2.4601,-2.5621,-2.7601,-2.8665,-3.0117,-3.232,-3.3272,-3.4242,-3.5305,-3.5511,-3.6033,-3.6993,-3.7242,-3.7641,-3.8218,-3.8257,-3.8366,-3.8508,-3.7629,-3.7243,-3.7266,-3.6406,-3.5975,0.0,-3.5945,-3.5614,-3.5076,-3.5003,-3.412,0.0,0.0,0.0,0.0,0.0,-3.0267,-3.039,-3.0419,-3.0441,-3.0451,-3.05,-2.9588,-2.8512,-2.8546,-2.7356,-2.6009,-2.6043,-2.576,-2.5465,-2.5465,-2.5441,-2.5427,-2.5427,-2.5313,-2.5178,-2.5023,-2.4812,-2.4607,-2.4409,0.0,0.0,-2.419,-2.419,-2.419,-2.419,-2.419,-2.4132,0.0,-2.3976,-2.3917,-2.3714,-2.3692,-2.3187,-2.1962,-2.1834,0.0,0.0,0.0,-1.9791,-1.9037,-1.9183,0.0,0.0,0.0,0.0,0.0,0.0,0.0,0.0,-1.7138,-1.6781,0.0,0.0,0.0,0.0,0.0,0.0,0.0,0.0,0.0,0.0,0.0,0.0,0.0,0.0,0.0,0.0,-2.2663,-2.4306,-2.6499,-2.498,-2.3888,-2.4541,-2.5535,-2.6957,-2.8938,-2.9734,-3.1106,-3.3537,-3.3961,-3.4783,-3.6298,0.0,0.0,0.0,0.0,-3.8227,-3.8388,-3.8388,-3.8499,-3.8658,-3.7706,-3.7304,-3.7382,-3.6445,-3.5996,-3.5996,-3.5996,-3.5972,-3.591,-3.5903,-3.5262,-3.4129,-3.2374,-3.1179,-3.0398,-3.0398,-3.039,0.0,0.0,0.0,0.0,-3.0498,-2.9909,-2.9184,-2.9186,-2.8083,-2.6831,-2.6793,-2.6184,-2.5507,-2.541,-2.5337,-2.5284,-2.5274,-2.5141,-2.4962,-2.4799,-2.4623,-2.4426,-2.4247,-2.419,-2.419,-2.419,-2.419,-2.419,-2.419,-2.419,0.0,-2.4151,-2.3896,-2.3692,-2.3649,0.0,0.0,-2.253,-2.2437,-2.2235,-2.1787,-2.1461,-2.0696,-1.9308,-1.9603,-1.9335,-1.8379,-1.9922,-2.0518,-2.0137,-2.1028,-2.1422,-2.1245,-1.8276,-1.768,0.0,0.0,0.0,0.0,0.0,0.0,0.0,0.0,0.0,0.0,0.0,0.0,0.0,0.0,0.0,-2.233,-2.4003,-2.5532,-2.6659,-2.6951,-2.7093,-2.7173,-2.7944,-2.8999,-3.038,-3.142,-3.2674,-3.4373,-3.4737,-3.5436,-3.6733,-3.6683,0.0,-3.9081,-3.9075,-3.9436,-4.0188,-4.0188,-4.0237,-4.0317,0.0,0.0,-3.8138,-3.6676,-3.5996,-3.5996,-3.5996,-3.5996,-3.5974,-3.5916,-3.5262,-3.4129,-3.2374,-3.1179,-3.0398,-3.0398,-3.043,-3.0491,-3.049,-3.0498,-3.0498,-3.0498,-2.9873,-2.9126,-2.9126,-2.8452,0.0,-2.6834,-2.6497,-2.6217,-2.5495,-2.5303,-2.5264,-2.5099,-2.5022,-2.4924,-2.462,-2.4528,-2.4426,-2.4247,-2.419,-2.419,-2.419,-2.419,-2.419,-2.419,-2.419,-2.4094,-2.3837,-2.3735,-2.3606,-2.3323,-2.3045,-2.2705,-2.2216,-2.2123,-2.1911,-2.1496,-2.1385,-2.1183,-2.0877,-2.0459,-2.016,-1.9952,-2.0103,-2.0416,-2.0957,-2.1172,-2.1535,-2.2046,-2.1043,-2.0554,0.0,0.0,0.0,0.0,0.0,0.0,0.0,0.0,0.0,0.0,0.0,-1.9338,-2.035,0.0,-2.3922,-2.4899,-2.5973,-2.7169,-2.85,-2.8941,-2.8954,-2.855,-2.9529,-3.0603,-3.1618,-3.2585,-3.3654,-3.4813,-3.5576,-3.6447,-3.75,-3.7878,-3.8677,-4.0006,-3.9937,-4.0145,-4.0596,-4.0191,-4.0261,-4.0733,-3.9123,-3.8366,-3.8358,-3.7183,-3.6385,-3.5948,-3.5948,-3.5901,-3.5841,-3.5774,-3.5208,-3.4298,-3.3334,-3.2179,-3.1006,-3.0552,-3.0441,-3.0507,-3.0545,-3.0575,-3.0606,-3.0606,-3.0256,-2.9831,-2.9815,-2.9186,-2.8409,-2.7967,-2.7255,-2.6505,-2.6063,-2.563,-2.5253,-2.5046,-2.4949,-2.4823,-2.4559,-2.4428,-2.4321,-2.4209,-2.419,-2.419,-2.419,-2.419,-2.419,-2.419,-2.419,-2.4151,-2.3976,-2.3937,-2.3816,-2.35,-2.33,-2.3047,-2.2681,-2.2758,-2.262,-2.2078,-2.1815,-2.164,-2.145,-2.1025,-2.0789,-2.0789,-2.101,-2.1363,-2.1752,-2.1752,-2.1938,-2.2282,-2.2061,-2.1615,0.0,0.0,0.0,0.0,0.0,0.0,0.0,0.0,-1.9756,-2.0424,-2.136,-2.2337,-2.327,-2.4723,-2.6081,-2.7145,-2.772,-2.8636,-3.0362,-3.0561,-3.0363,-2.9999,-3.0954,-3.1887,-3.2527,-3.3468,-3.4339,-3.5047,-3.6196,-3.7246,-3.8139,-3.8949,-3.9789,-4.0672,-4.0574,-4.0489,-4.0489,-3.9854,-3.9827,-4.0404,-3.8975,-3.8241,-3.8107,-3.7361,-3.6612,-3.59,-3.5873,-3.5802,-3.5696,-3.5629,-3.5269,-3.4676,-3.4356,-3.339,-3.2064,-3.1025,-3.0693,-3.0754,-3.0639,-3.0633,-3.0696,-3.0696,-3.0652,-3.0568,-3.0524,-2.995,-2.9313,-2.914,-2.8005,-2.6813,-2.664,-2.5947,-2.5253,-2.5018,-2.4877,-2.4731,-2.4495,-2.4321,-2.419,-2.419,-2.419,-2.419,-2.419,-2.419,-2.419,-2.419,-2.419,-2.419,-2.419,-2.4151,-2.3996,-2.3714,-2.3588,-2.3392,-2.3117,-2.3414,-2.3369,-2.2822,-2.2417,-2.206,-2.1702,-2.1506,-2.137,-2.1271,-2.1933,-2.231,-2.231,-2.231,-2.231,-2.231,-2.2209,-2.1751,-1.8785,-1.9748,-2.0732,-2.1706,-2.1947,-2.2289,0.0,0.0,-2.2813,-2.4405,-2.4141,-2.406,-2.5458,-2.6229,-2.6801,-2.7236,-2.8171,-2.9277,-3.0437,-3.1182,-3.1936,-3.2838,-3.2857,-3.285,-3.2943,-3.4169,-3.5009,-3.5086,-3.6113,-3.7154,-3.8158,-3.8903,-3.9739,-4.0672,-4.0574,-4.0489,-4.0489,-4.0412,-4.0062,-3.9456,-3.8675,-3.7907,-3.7138,-3.6387,-3.6004,-3.59,-3.5766,-3.5717,-3.5703,-3.5696,-3.5605,-3.5398,-3.4594,-3.4141,-3.3718,-3.2141,-3.1632,-3.1638,-3.0872,-3.0633,-3.0696,-3.0696,-3.0603,-3.0516,-3.0507,-3.0394,-3.0102,-2.9313,-2.8448,-2.7582,-2.6794,-2.5947,-2.5222,-2.4896,-2.4818,-2.47,-2.4321,-2.4209,-2.419,-2.419,-2.419,-2.419,-2.419,-2.419,-2.419,-2.419,-2.419,-2.419,-2.419,-2.3937,-2.3735,-2.3692,-2.3165,-2.2797,-2.2772,-2.3069,-2.3212,-2.3141,-2.281,-2.2453,-2.2044,-2.2124,-2.1972,-2.1556,-2.2056,-2.231,-2.231,-2.231,-2.231,-2.2282,-2.1869,-2.143,-2.1053,-2.207,-2.2861,0.0,-2.4163,-2.4106,-2.5003,-2.4462,-2.3915,-2.4324,-2.4782,-2.5323,-2.5979,-2.6986,-2.7857,0.0,-2.8709,-2.9584,-3.1278,-3.1271,-3.1744,-3.3428,-3.3525,-3.3658,-3.4188,-3.4895,-3.532,-3.532,-3.6729,-3.7762,-3.8178,-3.9424,-4.0282,-4.0692,-4.0574,-4.0489,-4.0489,-4.0027,-3.9873,-4.0004,-3.9364,-3.8595,-3.7759,-3.7554,-3.685,-3.5786,-3.565,-3.5601,-3.5648,-3.5611,-3.559,-3.5562,-3.5164,-3.4976,-3.4757,-3.3026,-3.2461,-3.241,-3.1592,-3.1339,-3.131,-3.0804,-3.0581,-3.0498,-3.0498,-3.0442,-3.0321,-2.9967,-2.9256,-2.8409,-2.7563,-2.6717,-2.5857,-2.5095,-2.4855,-2.4716,-2.4445,-2.4284,-2.419,-2.419,-2.419,-2.419,-2.419,-2.419,-2.419,-2.419,-2.419,-2.419,-2.419,-2.4074,-2.3837,-2.3437,-2.3165,-2.284,-2.2517,-2.2738,-2.284,-2.2686,-2.2459,-2.2197,-2.1816,-2.1658,-2.1446,-2.1244,-2.1446,-2.1645,-2.1899,-2.1899,-2.2032,-2.2282,-2.2106,-2.1764,-2.2794,-2.3901,0.0,-2.588,-2.5806,-2.5513,-2.5797,-2.523,-2.4561,-2.4315,-2.5056,-2.586,-2.6177,-2.7248,-2.8196,-2.8581,-2.8847,-2.9665,-3.16,-3.1204,-3.1431,-3.3325,-3.3544,-3.3888,-3.4767,-3.5249,-3.5493,-3.5493,-3.7141,-3.8141,-3.8141,-3.9734,-4.063,-4.063,-4.0545,-4.0489,-4.0489,-3.9912,-3.9807,-4.0193,-3.9801,-3.9045,-3.7988,-3.787,-3.7024,-3.5671,-3.5558,-3.5534,-3.5574,-3.5522,-3.5534,-3.5574,-3.5509,-3.5493,-3.5353,-3.4083,-3.3496,-3.3248,-3.2425,-3.2039,-3.1806,-3.1164,-3.0761,-3.0498,-3.0498,-3.0442,-3.0398,-3.0398,-2.9775,-2.8909,-2.8102,-2.7255,-2.6339,-2.5256,-2.4904,-2.4746,-2.4526,-2.4339,-2.419,-2.419,-2.419,-2.419,-2.419,-2.419,-2.419,-2.419,-2.419,-2.419,-2.419,-2.419,-2.3937,-2.3259,-2.3189,-2.2958,-2.2349,-2.249,-2.25,-2.231,-2.2096,-2.1799,-2.146,-2.1244,-2.1118,-2.0991,-2.1229,-2.1507,-2.1794,-2.1794,-2.1974,-2.231,-2.231,-2.2032,-2.3427,0.0,-2.6275,-2.6521,-2.6572,-2.6502,-2.632,-2.5596,-2.5113,-2.5553,-2.5372,-2.5429,-2.6408,-2.6931,-2.7363,-2.7779,-2.8503,-2.9499,-3.0847,-3.1014,-3.1471,-3.2762,-3.2917,-3.3263,0.0,-3.5007,-3.5493,-3.5493,-3.7065,-3.8022,-3.8022,-3.96,-4.0504,-4.0504,-4.0504,-4.0489,-4.0489,-4.0469,-4.0111,-3.9425,-3.9557,-3.878,-3.7194,-3.6235,-3.5718,-3.5611,-3.5528,-3.5507,-3.5507,-3.5507,-3.5507,-3.5507,-3.5507,-3.5493,-3.5474,-3.5435,-3.4923,-3.4138,-3.3267,-3.2496,-3.1897,-3.1858,-3.1239,-3.0498,-3.0498,-3.0442,-3.0398,-3.0398,-2.9775,-2.8909,-2.8102,-2.7255,-2.6339,-2.5256,-2.4904,-2.4746,-2.4526,-2.4339,-2.419,-2.419,-2.419,-2.419,-2.419,-2.419,-2.419,-2.419,-2.419,-2.419,-2.419,-2.419,-2.3937,-2.3259,-2.3189,-2.2958,-2.2349,-2.231,-2.231,-2.231,-2.1869,-2.143,-2.1023,-2.1368,-2.1399,-2.1007,-2.1827,-2.2282,-2.2282,-2.2282,-2.2282,-2.231,-2.231,-2.2032,-2.4999,0.0,-2.6653,-2.7302,-2.7024,-2.654,-2.6352,-2.564,-2.4987,-2.4914,-2.5226,-2.5559,-2.5772,-2.6344,-2.7013,-2.7673,-2.8144,-2.9003,-3.0752,-3.1116,-3.142,-3.2039,-3.3083,0.0,0.0,0.0,0.0,-3.5468,-3.7046,-3.8007,-3.8007,-3.9585,-4.0489,-4.0489,-4.0489,-4.0545,-4.0636,-4.0636,-4.0258,-3.9518,-3.8442,-3.7689,-3.7164,-3.6158,-3.5671,-3.56,-3.5515,-3.5493,-3.5493,-3.5493,-3.5493,-3.5493,-3.5493,-3.5493,-3.5493,-3.5493,-3.5322,-3.4956,-3.4101,-3.3635,-3.3235,-3.2134,-3.1543,-3.1191,-3.0612,-3.0425,-3.0398,-3.0398,-3.0198,-2.9775,-2.8909,-2.8082,-2.7225,-2.628,-2.5419,-2.479,-2.4716,-2.4445,-2.419,-2.419,-2.419,-2.419,-2.419,-2.419,-2.419,-2.419,-2.419,-2.419,-2.419,-2.419,-2.3937,-2.3259,-2.3189,-2.2958,-2.2349,-2.231,-2.231,-2.231,-2.1869,-2.1521,-2.1399,-2.0975,-2.0667,-2.055,-2.0813,-2.1118,-2.1462,-2.1705,-2.2003,-2.231,-2.231,-2.2209,-2.5495,-2.6442,-2.7239,-2.7798,-2.7509,-2.7065,-2.6935,-2.5967,-2.5018,-2.4685,-2.5022,-2.5294,-2.502,-2.5702,-2.6534,-2.7348,-2.7903,-2.8875,-3.0818,-3.1213,-3.1499,-3.2058,-3.3083,-3.3641,0.0,0.0,0.0,-3.543,-3.7095,-3.808,-3.808,-3.9676,-4.061,-4.061,-4.061,-4.0505,-4.0305,-4.0305,-3.9926,-3.915,-3.7741,-3.7105,-3.7172,-3.6125,-3.5648,-3.56,-3.5515,-3.5493,-3.5493,-3.5493,-3.5493,-3.5493,-3.5493,-3.5493,-3.5493,-3.5493,-3.5493,-3.543,-3.4853,-3.4449,-3.4007,-3.2929,-3.2199,-3.1602,-3.1025,-3.066,-3.0398,-3.0398,-3.0398,-3.0198,-2.9333,-2.8717,-2.8044,-2.689,-2.5895,-2.5144,-2.4861,-2.4478,-2.419,-2.419,-2.419,-2.419,-2.419,-2.419,-2.419,-2.419,-2.419,-2.419,-2.419,-2.4094,-2.3816,-2.3259,-2.3111,-2.2849,-2.2349,-2.231,-2.231,-2.231,-2.1869,-2.1538,-2.1399,-2.1007,-2.0715,-2.055,-2.0846,-2.1181,-2.1462,-2.1735,-2.2003,-2.231,-2.231,-2.2209,-2.5101,-2.6574,-2.8047,-2.8016,-2.8016,-2.7978,-2.7892,-2.6532,-2.5203,-2.4799,-2.4728,-2.4595,0.0,0.0,-2.5855,-2.6692,-2.773,-2.9099,-3.1028,-3.1382,-3.18,0.0,0.0,0.0,0.0,0.0,0.0,-3.5578,0.0,-3.8208,-3.8188,-3.9818,-4.0743,-4.0743,-4.0704,-4.0315,-3.9536,-3.9493,-3.909,-3.833,-3.7386,-3.6994,-3.7082,-3.6071,-3.56,-3.559,-3.5534,-3.5493,-3.5493,-3.5493,-3.5493,-3.5493,-3.5493,-3.5493,-3.5493,-3.5493,-3.5493,-3.5493,-3.5493,-3.4968,-3.4257,-3.4199,-3.3122,-3.1814,-3.1775,-3.116,-3.0456,-3.0456,-3.0417,-3.0206,-2.936,-2.9121,-2.8698,-2.708,-2.6339,-2.5786,-2.5016,-2.4515,-2.419,-2.419,-2.419,-2.419,-2.419,-2.419,-2.419,-2.419,-2.419,-2.419,-2.419,-2.3917,-2.3566,-2.3253,-2.2958,-2.2651,-2.2338,-2.231,-2.231,-2.231,-2.1869,-2.143,-2.1071,-2.1399,-2.1399,-2.1023,-2.184,-2.2254,-2.2254,-2.2316,-2.2361,-2.2361,-2.2367,-2.2132,-2.6998,-2.8045,-2.876,-2.8204,-2.8067,-2.7718,-2.6369,-2.5712,-2.5071,-2.4043,-2.3822,-2.3539,0.0,0.0,0.0,-2.5795,-2.7519,0.0,-3.1043,-3.2551,0.0,-3.2949,0.0,-3.5584,-3.5218,-3.6388,0.0,0.0,-3.7954,-3.8229,-3.8272,-3.9307,-3.9918,-3.9918,-3.9288,-3.8844,-3.8637,-3.7984,-3.7565,-3.7355,-3.6462,-3.6013,-3.5996,-3.5718,-3.5566,-3.5522,-3.5501,-3.5493,-3.5493,-3.5493,-3.5493,-3.5493,-3.5493,-3.5493,-3.5493,-3.5493,-3.5493,-3.5493,-3.5493,-3.5353,-3.5064,-3.441,-3.391,-3.343,-3.2795,-3.2025,-3.1371,-3.1371,-3.091,-3.0297,-2.9882,-2.943,-2.889,-2.8137,-2.6961,-2.591,-2.5548,-2.4801,-2.419,-2.419,-2.419,-2.419,-2.419,-2.419,-2.419,-2.419,-2.419,-2.419,-2.419,-2.3917,-2.3566,-2.3253,-2.2915,-2.2616,-2.2321,-2.231,-2.231,-2.231,-2.1869,-2.1705,-2.1945,-2.1446,-2.1244,-2.143,-2.1658,-2.1794,-2.1794,-2.2673,-2.3122,-2.3122,-2.3279,-2.329,-2.6655,-2.7496,-2.8055,-2.7673,-2.7573,-2.721,-2.5762,-2.5091,-2.4407,-2.3215,-2.29,0.0,-2.1926,-2.2678,0.0,0.0,0.0,0.0,-3.1191,-3.2724,-3.3737,0.0,-3.5295,0.0,-3.6125,-3.703,-3.7802,0.0,-3.8634,-3.887,-3.892,-3.9804,-4.0125,-3.9735,-3.9208,-3.8532,-3.7734,-3.6833,-3.6406,-3.6411,-3.5862,-3.5601,-3.5611,-3.5566,-3.554,-3.5493,0.0,-3.5493,-3.5493,-3.5493,-3.5493,-3.5493,-3.5493,-3.5493,-3.5493,-3.5493,-3.5493,-3.5493,-3.5493,-3.5493,-3.543,-3.493,-3.4507,-3.4103,-3.3622,-3.2641,-3.1698,-3.1698,-3.1083,-3.0367,-3.0209,-2.9845,-2.9372,-2.8817,-2.7777,-2.6718,-2.5991,-2.5245,-2.4612,-2.4263,-2.419,-2.419,-2.419,-2.419,-2.419,-2.419,-2.419,-2.419,-2.419,-2.3917,-2.3566,-2.3253,-2.2898,-2.2599,-2.2321,-2.231,-2.231,-2.231,-2.2032,-2.1928,-2.2003,-2.1721,-2.1584,-2.1582,-2.2122,-2.2395,-2.2395,-2.3405,-2.3759,-2.3527,-2.3637,-2.3469,-2.5511,-2.6267,-2.6957,-2.6927,-2.6913,-2.6629,-2.5578,-2.46,-2.3563,-2.2376,0.0,-2.1764,-2.1506,-2.2383,-2.3483,-2.4487,0.0,-2.861,-3.1179,-3.2338,-3.3513,-3.5141,-3.554,-3.6003,-3.6809,-3.7006,-3.7447,-3.8331,-3.911,-3.9546,-3.9546,-4.0369,-4.037,-3.9373,-3.9211,-3.8399,-3.6825,-3.6009,-3.5621,-3.5667,-3.557,-3.5528,-3.5579,-3.5534,-3.5493,-3.5493,0.0,0.0,-3.5493,-3.5493,-3.5493,-3.5493,-3.5493,-3.5493,-3.5493,-3.5493,-3.5493,-3.5493,-3.5493,-3.5493,-3.5493,-3.5493,-3.4988,-3.4353,-3.4237,-3.3103,-3.1833,-3.1737,-3.1083,-3.0398,-3.0355,-3.0196,-2.9917,-2.9327,-2.8666,-2.7809,-2.6422,-2.5669,-2.5035,-2.4337,-2.419,-2.419,-2.419,-2.419,-2.419,-2.419,-2.419,-2.419,-2.419,-2.3917,-2.3566,-2.3253,-2.2898,-2.2599,-2.2321,-2.231,-2.231,-2.231,-2.2237,-2.2032,-2.1718,-2.1974,-2.2053,-2.182,-2.2832,-2.3384,-2.3545,-2.4194,-2.4293,-2.3868,-2.3816,-2.3343,-2.6508,-2.7195,-2.7736,-2.7122,-2.6945,-2.6473,-2.4873,-2.4187,0.0,0.0,-2.114,-2.0755,-1.9887,-2.0567,-2.1821,-2.3542,-2.5412,-2.7585,-3.0251,0.0,-3.3401,0.0,0.0,0.0,0.0,0.0,0.0,0.0,0.0,0.0,-3.8788,-3.884,-3.8128,-3.6473,-3.6347,-3.6154,-3.5844,-3.5635,-3.5522,-3.5528,-3.5515,-3.552,-3.5528,-3.552,-3.5493,-3.5493,0.0,0.0,-3.5493,-3.5493,-3.5493,-3.5493,-3.5493,-3.5493,-3.5493,-3.5493,-3.5493,-3.5493,-3.5493,-3.5493,-3.5493,-3.5493,-3.5411,-3.5141,-3.441,-3.3487,-3.2545,-3.1891,-3.1083,-3.0355,-3.0136,-3.0196,-3.0203,-2.9706,-2.9137,-2.8324,-2.7022,-2.5505,-2.4373,-2.4226,-2.419,-2.419,-2.419,-2.419,-2.419,-2.419,-2.419,-2.419,-2.419,-2.3917,-2.3566,-2.3253,-2.2898,-2.2599,-2.2321,-2.231,-2.231,-2.231,-2.1928,-2.1869,-2.218,-2.1554,-2.1817,-2.3055,-2.2898,-2.331,-2.432,-2.4597,-2.4693,-2.459,-2.4376,-2.4193,-2.5938,-2.6343,-2.6684,-2.6384,-2.6263,-2.5771,-2.4016,0.0,0.0,0.0,-2.0301,-2.0001,-1.9408,-2.0111,0.0,-2.2684,-2.4492,-2.6677,-2.938,-3.1283,0.0,0.0,0.0,0.0,0.0,0.0,0.0,0.0,0.0,0.0,-3.8594,-3.8073,-3.7332,-3.6354,-3.5844,-3.5568,-3.5546,-3.5528,-3.5493,-3.5493,-3.5493,-3.5493,-3.5493,-3.5493,-3.5493,-3.5493,0.0,0.0,-3.5493,-3.5493,-3.5493,-3.5493,-3.5493,-3.5493,-3.5493,-3.5493,-3.5417,-3.5289,-3.5289,-3.5207,-3.5088,-3.5088,-3.519,-3.5117,-3.427,-3.3374,-3.2513,-3.1722,-3.0951,-3.0343,-3.0075,-3.0089,-3.0169,-3.008,-2.9345,-2.8433,-2.7698,-2.6115,-2.4814,-2.4814,-2.4483,-2.419,-2.419,-2.419,-2.419,-2.419,-2.419,-2.419,-2.419,-2.4074,-2.3756,-2.3236,-2.3069,-2.2781,-2.2338,-2.231,-2.231,-2.231,-2.2106,-2.2077,-2.2282,-2.1886,-2.193,-2.2428,-2.2959,-2.3521,-2.4193,-2.4751,-2.5005,-2.5021,-2.4579,-2.4225,-2.5229,-2.5368,-2.5539,-2.5661,-2.5636,-2.5135,-2.3392,-2.2837,0.0,0.0,-1.9701,-1.9541,-1.938,-1.9967,-2.0882,0.0,-2.3543,-2.5535,-2.8501,-3.0374,0.0,0.0,0.0,0.0,0.0,0.0,0.0,0.0,0.0,0.0,0.0,-3.7373,-3.6781,-3.6616,-3.5936,-3.5538,-3.5507,-3.5493,-3.5493,-3.5493,-3.5493,-3.5493,-3.5493,-3.5493,-3.5493,-3.5493,0.0,0.0,0.0,-3.5493,-3.5493,-3.5493,-3.5493,-3.5493,-3.5493,-3.5432,-3.5289,-3.5088,-3.5034,-3.4889,-3.4674,-3.4632,-3.4832,-3.4935,-3.3989,-3.3182,-3.2405,-3.1554,-3.0866,-3.0355,-3.0136,-3.0089,-3.0136,-3.0355,-2.9436,-2.8433,-2.824,-2.6858,-2.5678,-2.5678,-2.4997,-2.4447,-2.4447,-2.43,-2.419,-2.419,-2.419,-2.419,-2.419,-2.419,-2.3976,-2.3369,-2.3236,-2.2958,-2.2349,-2.231,-2.231,-2.231,-2.231,-2.231,-2.231,-2.2123,-2.1982,-2.1842,-2.29,-2.3601,-2.3965,-2.4687,-2.5028,-2.5028,-2.4471,-2.3991,-2.5383,-2.5489,-2.5539,-2.5661,-2.5603,-2.5074,-2.3385,0.0,-2.2113,-2.0346,-1.9786,-1.9582,-1.9587,-1.9512,-2.0059,0.0,0.0,-2.3845,-2.7495,-2.9506,0.0,0.0,0.0,0.0,0.0,0.0,0.0,0.0,0.0,0.0,0.0,-3.6307,-3.5782,-3.563,-3.554,-3.552,-3.5507,-3.5493,-3.5493,-3.5493,-3.5493,-3.5493,-3.5493,-3.5493,-3.5493,-3.5493,0.0,0.0,0.0,-3.5493,-3.5493,-3.5493,-3.5493,-3.5493,-3.546,-3.5223,-3.5122,-3.507,-3.4813,-3.4714,-3.4653,-3.4357,-3.4636,-3.4882,-3.3772,-3.3184,-3.2634,-3.1588,-3.0871,-3.0398,-3.0367,-3.0367,-3.0367,-3.0398,-2.9436,-2.8501,-2.8468,-2.7419,-2.6502,-2.6502,-2.5841,-2.5293,-2.5293,-2.4667,-2.419,-2.419,-2.419,-2.419,-2.419,-2.419,-2.4074,-2.3692,-2.3392,-2.2958,-2.2349,-2.231,-2.231,-2.231,-2.231,-2.231,-2.231,-2.1554,-2.1583,-2.2599,-2.2566,-2.3065,-2.4193,-2.4375,-2.4471,-2.4471,-2.3921,-2.3638,-2.5089,-2.5324,-2.5539,-2.5661,-2.5601,-2.5065,-2.3385,0.0,-2.2192,-2.0375,-1.9922,-1.9778,-1.9636,-1.9604,-2.0201,0.0,0.0,0.0,-2.6725,0.0,0.0,0.0,0.0,0.0,0.0,0.0,0.0,0.0,0.0,0.0,0.0,-3.5842,-3.5592,-3.5507,-3.5493,-3.5493,-3.5493,-3.5553,-3.5562,-3.5562,-3.5591,-3.5611,-3.5562,-3.5562,-3.554,-3.5493,0.0,0.0,0.0,-3.5493,-3.5493,-3.5493,-3.5493,-3.5493,-3.5479,-3.5207,-3.4999,-3.4813,-3.4529,-3.4307,-3.4136,-3.4012,-3.4242,-3.4384,-3.3446,-3.3064,-3.2676,-3.1261,-3.0784,-3.0589,-3.0091,-3.0066,-3.015,-3.015,-2.9585,-2.9027,-2.9027,-2.8138,-2.7328,-2.7328,-2.6264,-2.5403,-2.5403,-2.4722,-2.419,-2.419,-2.4016,-2.3976,-2.417,-2.3855,-2.361,-2.3692,-2.3566,-2.323,-2.259,-2.2537,-2.2463,-2.231,-2.231,-2.2163,-2.1899,-2.1538,-2.1536,-2.1848,-2.2202,-2.2776,-2.3714,-2.3861,-2.4074,-2.4389,-2.3837,-2.3595,-2.4858,-2.5212,-2.5511,-2.5629,-2.5564,-2.506,0.0,-2.2875,-2.2275,-2.046,-2.0031,-1.9934,-1.975,-1.9981,-2.0675,-2.2154,0.0,-2.3821,-2.6326,-2.7595,0.0,0.0,0.0,0.0,0.0,0.0,0.0,0.0,0.0,0.0,0.0,-3.5616,-3.5543,-3.5507,-3.5534,-3.554,-3.5528,-3.56,-3.563,-3.563,-3.5675,-3.5652,-3.5611,-3.5611,-3.5562,0.0,0.0,0.0,0.0,-3.5493,-3.5493,-3.5493,-3.5493,-3.5493,-3.5446,-3.5105,-3.4851,-3.4632,-3.4237,-3.3961,-3.3807,-3.3807,-3.3928,-3.3981,-3.3419,-3.3185,-3.2814,-3.135,-3.075,-3.0413,-2.9847,-2.9796,-2.9908,-2.9908,-2.9643,-2.9412,-2.9412,-2.8738,-2.8154,-2.8154,-2.7034,-2.6119,-2.6119,-2.5236,-2.4519,-2.4421,-2.4101,-2.3858,-2.3896,-2.3671,-2.3522,-2.3544,-2.3649,-2.3414,-2.2772,-2.2695,-2.2573,-2.2338,-2.231,-2.2236,-2.2139,-2.2002,-2.1972,-2.2077,-2.2572,-2.313,-2.3638,-2.3943,-2.4199,-2.4389,-2.3991,-2.3752,-2.4811,-2.529,-2.5493,-2.5493,-2.5493,-2.5051,-2.3294,-2.2844,-2.2312,-2.0639,-2.0143,-2.0012,-2.0003,-2.0595,-2.1422,-2.2424,-2.3277,0.0,-2.6341,-2.8044,0.0,0.0,0.0,0.0,0.0,0.0,0.0,0.0,0.0,0.0,0.0,0.0,-3.5507,-3.5493,-3.556,-3.5592,-3.5611,-3.5671,-3.5703,-3.5703,-3.5703,-3.5652,-3.5611,-3.5611,0.0,0.0,0.0,0.0,0.0,-3.5493,-3.5493,-3.5493,-3.5493,-3.5493,-3.5432,-3.4908,-3.4694,-3.4612,-3.4005,-3.3788,-3.3807,-3.3807,-3.3788,-3.3788,-3.3788,-3.3589,-3.3161,-3.2104,-3.0787,-2.9696,-2.9696,-2.9696,-2.9713,-2.9713,-2.9551,-2.9412,-2.9412,-2.9181,-2.8975,-2.8975,-2.8338,-2.7769,-2.7769,-2.6468,-2.5264,-2.495,-2.4486,-2.3976,-2.33,-2.3795,-2.3937,-2.3277,-2.35,-2.3414,-2.2772,-2.2695,-2.2573,-2.2338,-2.231,-2.2632,-2.3359,-2.2948,-2.306,-2.3852,-2.4078,-2.42,-2.42,-2.4868,-2.4894,-2.4389,-2.4389,-2.4116,-2.3221,-2.3821,-2.4307,-2.3884,-2.4199,-2.4154,-2.241,-2.2419,-2.2312,-2.0658,-2.0241,-2.0161,-2.0022,-2.0298,-2.1168,-2.3106,-2.3753,0.0,0.0,0.0,0.0,0.0,0.0,0.0,0.0,0.0,0.0,0.0,0.0,0.0,0.0,0.0,-3.5572,-3.5581,-3.56,-3.5618,-3.5679,-3.5786,-3.5836,-3.5836,-3.5836,-3.5786,-3.5679,-3.5611,0.0,0.0,0.0,0.0,0.0,-3.5493,-3.5493,-3.5493,-3.5493,-3.5493,-3.5446,-3.5105,-3.487,-3.4632,-3.4237,-3.3961,-3.3807,-3.3807,-3.3807,-3.3697,-3.3146,-3.3294,-3.3371,-3.1924,-3.0943,-3.0205,-2.9643,-2.9494,-2.9494,-2.9494,-2.9312,-2.9134,-2.9134,-2.9044,-2.8994,-2.8994,-2.8356,-2.7787,-2.7787,-2.6924,-2.6085,-2.5718,-2.4918,-2.4236,-2.3985,-2.3501,-2.3165,-2.3189,-2.3983,-2.4045,-2.2807,-2.3197,-2.3399,-2.3083,-2.3511,-2.3762,-2.3747,-2.3619,-2.3703,-2.4094,-2.4176,-2.4441,-2.4884,-2.5109,-2.5105,-2.495,-2.4592,-2.4307,-2.2032,-2.2778,-2.3356,-2.2946,-2.3282,-2.334,-2.1887,-2.1968,-2.1965,-2.0576,-2.0306,-2.0253,-2.0134,-2.0469,-2.1344,-2.3121,-2.3794,-2.4879,0.0,0.0,0.0,0.0,0.0,0.0,0.0,0.0,0.0,0.0,0.0,0.0,0.0,0.0,-3.5581,-3.5638,-3.5648,-3.5675,-3.5774,-3.5884,-3.5942,-3.5942,-3.5942,-3.5857,-3.5703,0.0,0.0,0.0,0.0,0.0,0.0,-3.5493,-3.5493,-3.5493,-3.5493,-3.5493,-3.5479,-3.5207,-3.4926,-3.4653,-3.4334,-3.4018,-3.3815,-3.3928,-3.3961,-3.3869,-3.3345,-3.3066,-3.2742,-3.2045,-3.1181,-3.0339,-2.9839,-2.9487,-2.9246,-2.9246,-2.9112,-2.8994,-2.8994,-2.8994,-2.8994,-2.8994,-2.8613,-2.8246,-2.8246,-2.7585,-2.6907,-2.6555,-2.5775,-2.5112,-2.4825,-2.4424,-2.4147,-2.4122,-2.4849,-2.4915,-2.3866,-2.4226,-2.4378,-2.4076,-2.4343,-2.4517,-2.4546,-2.4546,-2.473,-2.5146,-2.5146,-2.534,-2.5783,-2.5598,-2.5486,-2.5486,-2.4736,-2.4389,0.0,-2.201,-2.2544,-2.2439,-2.2618,-2.2559,-2.1633,-2.1505,0.0,-2.0493,-2.0319,-2.0319,-2.039,-2.0996,-2.1839,-2.2812,-2.3648,0.0,0.0,0.0,0.0,0.0,0.0,0.0,0.0,0.0,0.0,0.0,0.0,0.0,0.0,0.0,0.0,-3.5702,-3.5703,-3.578,-3.5903,-3.5971,-3.5996,-3.5996,-3.5996,-3.5899,-3.5703,0.0,0.0,0.0,0.0,0.0,0.0,-3.5493,-3.5493,-3.5493,-3.5493,-3.5493,-3.5479,-3.5207,-3.4926,-3.4653,-3.4357,-3.4043,-3.3842,-3.4099,-3.4162,-3.4149,-3.4223,-3.2988,-3.1696,-3.2412,-3.1531,-3.0338,-3.0228,-2.9659,-2.9067,-2.8994,-2.8994,-2.8994,-2.8994,-2.8994,-2.8994,-2.8994,-2.8994,-2.8994,-2.8994,-2.8374,-2.7771,-2.7417,-2.6968,-2.6413,-2.5768,-2.6204,-2.6318,-2.5661,-2.5955,-2.6081,-2.575,-2.5622,-2.5455,-2.5188,-2.4868,-2.4949,-2.5659,-2.5693,-2.5998,-2.6674,-2.6691,-2.6691,-2.6691,-2.6262,-2.6049,-2.5997,-2.4934,-2.4471,-1.9235,0.0,-2.1259,-2.0736,-2.1222,-2.1617,0.0,-2.1108,-2.1371,-2.0555,-2.039,-2.0565,-2.119,-2.1449,-2.2265,-2.4379,-2.4924,-2.5917,0.0,0.0,0.0,0.0,0.0,0.0,0.0,0.0,0.0,0.0,0.0,0.0,0.0,0.0,0.0,-3.5623,-3.5675,-3.5798,-3.5973,-3.5996,-3.5996,-3.5996,-3.5947,-3.5849,-3.5703,0.0,0.0,0.0,0.0,0.0,-3.5493,-3.5493,-3.5493,-3.5493,-3.5493,-3.5493,-3.5479,-3.5207,-3.4926,-3.4694,-3.4612,-3.4237,-3.3842,-3.4099,-3.3911,-3.3708,-3.4365,-3.3953,-3.3146,-3.2724,-3.2339,-3.1751,-3.0522,-3.0063,-2.9769,-2.914,-2.8994,-2.8994,-2.8994,-2.8994,-2.8994,-2.8994,-2.8994,-2.8994,-2.8994,-2.8851,-2.8589,-2.82,-2.7562,-2.7001,-2.657,-2.6339,-2.6056,-2.5636,-2.6669,-2.7255,-2.694,-2.6374,-2.6017,-2.5947,-2.6102,-2.6251,-2.642,-2.6437,-2.6522,-2.6691,-2.6691,-2.6691,-2.6691,-2.659,-2.6556,-2.6505,-2.5486,-2.5012,-1.851,-1.9785,-2.097,-2.0622,-2.1048,-2.1442,-2.103,-2.1026,-2.0959,-2.0497,-2.0414,-2.0695,-2.1507,-2.1643,-2.235,0.0,-2.5169,0.0,0.0,0.0,0.0,0.0,0.0,0.0,0.0,0.0,0.0,0.0,0.0,0.0,0.0,0.0,0.0,0.0,-3.5638,-3.5747,-3.5945,-3.5945,-3.5947,-3.595,-3.5913,-3.5821,-3.5655,0.0,0.0,0.0,0.0,0.0,-3.5493,-3.5493,-3.5493,-3.5493,-3.5493,-3.5493,-3.5479,-3.5207,-3.4926,-3.4674,-3.4529,-3.4353,-3.4255,-3.4379,-3.4334,-3.4262,-3.4737,-3.4445,-3.3894,-3.3469,-3.3062,-3.2484,-3.1103,-3.0485,-3.0008,-2.92,-2.8994,-2.9021,-2.9156,-2.9181,-2.9203,-2.9293,-2.9249,-2.9181,-2.9181,-2.9067,-2.8929,-2.8707,-2.8342,-2.8003,-2.7825,-2.761,-2.7367,-2.7163,-2.7861,-2.8269,-2.8093,-2.7539,-2.713,-2.6994,-2.6985,-2.6906,-2.6725,-2.6691,-2.6691,-2.6691,-2.6691,-2.6691,-2.6691,-2.6691,-2.659,-2.6367,-2.5561,-2.5242,-1.8594,-2.0018,-2.124,-2.1041,-2.1394,-2.1768,-2.1702,-2.1277,-2.0872,-2.082,-2.0858,-2.1146,-2.1952,-2.2207,0.0,0.0,0.0,0.0,0.0,0.0,0.0,0.0,0.0,0.0,0.0,0.0,0.0,0.0,0.0,0.0,0.0,0.0,0.0,0.0,-3.5601,-3.5676,-3.585,-3.586,-3.5875,-3.5873,-3.5873,-3.5768,-3.5591,-3.5663,0.0,0.0,0.0,0.0,-3.5493,-3.5493,-3.5493,-3.5493,-3.5493,-3.5493,-3.546,-3.5138,-3.4908,-3.4653,-3.4265,-3.4398,-3.4694,-3.4694,-3.4889,-3.5105,-3.5105,-3.4736,-3.4315,-3.4223,-3.3669,-3.2868,-3.1845,-3.098,-3.0173,-2.9384,-2.9085,-2.9044,-2.9289,-2.933,-2.9394,-2.9551,-2.9455,-2.933,-2.933,-2.9156,-2.8994,-2.8994,-2.8994,-2.8994,-2.8994,-2.8994,-2.8994,-2.8994,-2.8994,-2.8994,-2.8994,-2.8682,-2.8342,-2.801,-2.756,-2.7115,-2.6725,-2.6691,-2.6691,-2.6691,-2.6691,-2.6691,-2.6691,-2.6624,-2.6401,-2.5977,-2.5373,-2.517,-1.9326,-2.0843,-2.1771,-2.0365,-2.1325,-2.245,-2.1772,-2.2125,-2.2636,-2.2681,-2.2699,-2.2945,-2.3758,-2.4466,-2.5244,0.0,0.0,0.0,0.0,0.0,0.0,0.0,0.0,0.0,0.0,0.0,0.0,0.0,0.0,0.0,0.0,0.0,0.0,0.0,0.0,-3.5601,-3.566,-3.5694,-3.5723,-3.5723,-3.5723,-3.5687,-3.5591,-3.5611,-3.5566,0.0,0.0,-3.5493,-3.5493,-3.5493,-3.5493,-3.5493,-3.5493,-3.5493,-3.5446,-3.4944,-3.4753,-3.4612,-3.4062,-3.4232,-3.4694,-3.4694,-3.4889,-3.5105,-3.5105,-3.5034,-3.487,-3.4338,-3.3951,-3.3474,-3.2632,-3.1825,-3.0999,-3.021,-2.9512,-2.9017,-2.9044,-2.9044,-2.9067,-2.9093,-2.9089,-2.9044,-2.9044,-2.904,-2.8994,-2.8994,-2.8994,-2.8994,-2.8994,-2.8994,-2.8994,-2.8994,-2.8994,-2.8994,-2.8994,-2.8952,-2.8749,-2.8342,-2.7689,-2.7115,-2.6725,-2.6691,-2.6691,-2.6691,-2.6691,-2.6691,-2.6691,-2.6297,-2.6085,-2.5977,-2.4973,-2.4859,-1.8195,-1.9697,-2.0936,-2.0685,-2.2078,-2.34,-2.2986,-2.2948,-2.3001,-2.2994,-2.3026,-2.3286,0.0,0.0,-2.6088,0.0,0.0,0.0,0.0,0.0,0.0,0.0,0.0,0.0,0.0,0.0,0.0,0.0,0.0,0.0,0.0,0.0,0.0,0.0,0.0,0.0,-3.5546,-3.5577,-3.5611,-3.5657,-3.5657,-3.5611,-3.5546,-3.5568,-3.5562,0.0,0.0,-3.5493,-3.5493,-3.5493,-3.5493,-3.5493,-3.5493,-3.5493,-3.5432,-3.4908,-3.4486,-3.4184,-3.3895,-3.4087,-3.4423,-3.4423,-3.4634,-3.487,-3.487,-3.4755,-3.4574,-3.4269,-3.4099,-3.3802,-3.2868,-3.2008,-3.1201,-3.0393,-2.9604,-2.904,-2.9181,-2.9222,-2.9246,-2.9375,-2.9291,-2.9222,-2.9222,-2.9089,-2.8994,-2.8994,-2.8994,-2.8994,-2.8994,-2.8994,-2.8994,-2.8994,-2.8994,-2.8994,-2.8994,-2.8994,-2.8749,-2.8156,-2.7619,-2.7115,-2.6725,-2.6691,-2.6691,-2.6691,-2.6691,-2.6894,-2.73,-2.641,-2.6245,-2.6675,-2.5138,-2.501,-1.7274,-1.8665,-2.0109,-2.0968,-2.2503,-2.3886,-2.4167,-2.3883,-2.3655,-2.3937,-2.4083,0.0,0.0,-2.5523,0.0,0.0,0.0,0.0,0.0,0.0,0.0,0.0,0.0,0.0,0.0,0.0,0.0,0.0,0.0,0.0,0.0,0.0,0.0,0.0,0.0,0.0,-3.5522,-3.5522,-3.5534,-3.5577,-3.5577,-3.5558,-3.5507,-3.5538,-3.5546,-3.5493,-3.5493,-3.5493,-3.5493,-3.5493,-3.5493,-3.5493,-3.5493,-3.5432,-3.5254,-3.4832,-3.4325,-3.3807,-3.3807,-3.3935,-3.4123,-3.4195,-3.4379,-3.4572,-3.4572,-3.4401,-3.4195,-3.4123,-3.4099,-3.392,-3.3088,-3.2284,-3.1476,-3.0668,-2.9879,-2.9283,-2.9304,-2.931,-2.9353,-2.9514,-2.9415,-2.931,-2.931,-2.9134,-2.8994,-2.8994,-2.8994,-2.8994,-2.8994,-2.8994,-2.8994,-2.8994,-2.8994,-2.8994,-2.8994,-2.8994,-2.8718,-2.8047,-2.7648,-2.7272,-2.6841,-2.6758,-2.6691,-2.6691,-2.686,-2.7249,-2.7789,-2.68,-2.6649,-2.7262,-2.5492,-2.5347,-1.7714,-1.8952,-2.0046,-2.067,-2.1914,-2.3322,-2.4621,-2.5078,-2.5615,-2.6977,-2.746,0.0,0.0,-2.7326,0.0,0.0,0.0,0.0,0.0,0.0,0.0,0.0,0.0,0.0,0.0,0.0,0.0,0.0,0.0,0.0,0.0,0.0,0.0,0.0,0.0,0.0,-3.559,-3.559,-3.5562,-3.5501,-3.5501,-3.5488,-3.5507,-3.5488,-3.5488,-3.5493,-3.5493,-3.5493,-3.5493,-3.5493,-3.5493,-3.5493,-3.5493,-3.5207,-3.4754,-3.4714,-3.4325,-3.3807,-3.3807,-3.3815,-3.385,-3.4123,-3.42,-3.4242,-3.4242,-3.4223,-3.4147,-3.3902,-3.3815,-3.3797,-3.3733,-3.3128,-3.232,-3.1494,-3.0705,-2.9916,-2.9187,-2.904,-2.9021,-2.9044,-2.9044,-2.904,-2.904,-2.9017,-2.8994,-2.8994,-2.8994,-2.8994,-2.8994,-2.8994,-2.8994,-2.8994,-2.8994,-2.8994,-2.8994,-2.8994,-2.8815,-2.8394,-2.8047,-2.7695,-2.7255,-2.6906,-2.6691,-2.6691,-2.7385,-2.7739,-2.7789,-2.7408,-2.724,-2.7253,-2.6061,-2.5916,-1.6327,-1.7739,-1.9317,-2.0792,-2.2045,-2.3243,-2.4511,-2.551,-2.64,-2.735,-2.7761,0.0,0.0,0.0,0.0,0.0,0.0,0.0,0.0,0.0,0.0,0.0,0.0,0.0,0.0,0.0,0.0,0.0,0.0,0.0,0.0,0.0,0.0,0.0,0.0,0.0,0.0,-3.5611,-3.5579,-3.5562,-3.5522,-3.5493,-3.5493,-3.5493,-3.5493,-3.5493,-3.5493,-3.5493,-3.5493,-3.5493,-3.5493,-3.5493,-3.5304,-3.5035,-3.4674,-3.4486,-3.4141,-3.3762,-3.3522,-3.3437,-3.339,-3.3183,-3.3135,-3.3194,-3.3487,-3.3561,-3.3607,-3.3762,-3.3807,-3.3807,-3.3807,-3.3201,-3.2522,-3.2228,-3.1531,-3.0723,-2.9934,-2.9751,-2.9604,-2.9085,-2.8994,-2.8994,-2.8994,-2.8994,-2.8994,-2.8994,-2.8994,-2.8994,-2.8994,-2.8994,-2.8994,-2.8994,-2.8994,-2.8994,-2.8994,-2.8994,-2.9148,-2.9509,-2.8709,-2.7946,-2.7334,-2.7147,-2.7161,-2.7385,-2.7637,-2.8262,-2.9245,-2.8295,-2.8118,-2.859,-2.6927,-2.6517,-1.5833,-1.7228,-1.8954,-2.0912,-2.2166,-2.3335,-2.4841,-2.5913,-2.6847,-2.7733,-2.7927,-2.8,-2.8247,0.0,0.0,0.0,0.0,0.0,0.0,0.0,0.0,0.0,0.0,0.0,0.0,0.0,0.0,0.0,0.0,0.0,0.0,0.0,0.0,0.0,0.0,0.0,0.0,-3.4994,-3.4817,-3.4754,-3.4982,-3.5238,-3.5493,-3.5493,-3.5493,-3.5493,-3.5493,-3.5493,-3.5493,-3.5493,-3.5493,-3.546,-3.5207,-3.4944,-3.4653,-3.4334,-3.3949,-3.3578,-3.3302,-3.3105,-3.2921,-3.2616,-3.2484,-3.255,-3.2872,-3.3075,-3.3243,-3.3522,-3.3707,-3.3807,-3.3807,-3.3385,-3.2926,-3.2669,-3.2173,-3.1494,-3.043,-3.021,-2.9971,-2.914,-2.8994,-2.8994,-2.8994,-2.8994,-2.8994,-2.8994,-2.8994,-2.8994,-2.8994,-2.8994,-2.8994,-2.8994,-2.9214,-2.936,-2.936,-2.9622,-2.9989,-3.054,-2.9813,-2.9026,-2.8264,-2.8091,-2.8078,-2.818,-2.8416,-2.9059,-3.0108,-2.9254,-2.9157,-2.9657,-2.8136,-2.7689,-1.6622,-1.7783,-1.9134,-2.0958,-2.2227,-2.3573,-2.5707,-2.6404,-2.7039,-2.851,-2.839,-2.822,-2.8981,0.0,0.0,0.0,0.0,0.0,0.0,0.0,0.0,0.0,0.0,0.0,0.0,0.0,0.0,0.0,0.0,0.0,0.0,0.0,0.0,0.0,0.0,0.0,0.0,-3.3628,-3.3098,-3.291,-3.3776,-3.4641,-3.5488,-3.5507,-3.5493,-3.5493,-3.5493,-3.5493,-3.5493,-3.5493,-3.5493,-3.5479,-3.5207,-3.4926,-3.4653,-3.4334,-3.3776,-3.3214,-3.3184,-3.2872,-3.2484,-3.2484,-3.2484,-3.2484,-3.2484,-3.2809,-3.3184,-3.3214,-3.3494,-3.3807,-3.3807,-3.3807,-3.3605,-3.2816,-3.2614,-3.2173,-3.0558,-3.021,-2.9971,-2.914,-2.8994,-2.8994,-2.8994,-2.8994,-2.8994,-2.8994,-2.8994,-2.8994,-2.8994,-2.8994,-2.8994,-2.8994,-2.9732,-3.021,-3.021,-3.0944,-3.1384,-3.1403,-3.1403,-3.1038,-3.0229,-2.9819,-2.942,-2.9028,-2.9719,-3.0108,-3.0125,-3.0227,-3.0293,-3.0293,-2.9673,-2.9406,-1.6011,-1.7654,-1.9492,-2.1011,-2.3011,-2.4771,-2.5416,-2.6589,-2.7975,-2.9601,-2.935,-2.8902,-2.9119,0.0,0.0,0.0,0.0,0.0,0.0,0.0,0.0,0.0,0.0,0.0,0.0,0.0,0.0,0.0,0.0,0.0,0.0,0.0,0.0,0.0,0.0,0.0,0.0,0.0,-3.3157,-3.3044,-3.3203,-3.3737,-3.4603,-3.5218,-3.5493,-3.5493,-3.5493,-3.5493,-3.5493,-3.5493,-3.5383,-3.519,-3.4926,-3.4634,-3.4288,-3.3697,-3.3354,-3.3124,-3.2433,-3.2127,-3.1968,-3.1694,-3.16,-3.162,-3.1933,-3.235,-3.2777,-3.3124,-3.3494,-3.3807,-3.3807,-3.3807,-3.3733,-3.3495,-3.344,-3.2999,-3.1384,-3.1035,-3.0632,-2.925,-2.8994,-2.8994,-2.8994,-2.8994,-2.8994,-2.8994,-2.8994,-2.8994,-2.8994,-2.9494,-2.9843,-2.9843,-3.0558,-3.1035,-3.1035,-3.1256,-3.1641,-3.221,-3.2247,-3.1638,-3.0264,-3.0398,-3.0293,-2.979,-3.0274,-3.0651,-3.0869,-3.0914,-3.0699,-3.0309,-3.0123,-2.9805,-1.7369,-1.8972,-2.0586,-2.2519,-2.3918,-2.4994,-2.5669,0.0,0.0,0.0,-2.9803,-2.9361,0.0,0.0,0.0,0.0,0.0,0.0,0.0,0.0,0.0,0.0,0.0,0.0,0.0,0.0,0.0,0.0,0.0,0.0,0.0,0.0,0.0,0.0,0.0,0.0,0.0,0.0,0.0,-3.2018,-3.2305,-3.2699,-3.3256,-3.4449,-3.4988,-3.5007,-3.5353,-3.5493,-3.5493,-3.5493,-3.5354,-3.507,-3.4793,-3.4405,-3.3894,-3.3382,-3.2965,-3.2565,-3.1986,-3.1696,-3.1507,-3.1291,-3.119,-3.1269,-3.147,-3.1861,-3.2264,-3.2565,-3.3087,-3.355,-3.355,-3.368,-3.3807,-3.3807,-3.3807,-3.3348,-3.1733,-3.1384,-3.0907,-2.9329,-2.8994,-2.8994,-2.8994,-2.8994,-2.8994,-2.8994,-2.925,-2.9604,-2.9916,-3.0375,-3.0687,-3.0687,-3.1403,-3.188,-3.188,-3.2173,-3.2559,-3.3054,-3.3091,-3.2575,-3.1433,-3.1476,-3.1205,-3.0569,-3.0765,-3.0987,-3.119,-3.119,-3.1015,-3.0658,-3.0658,-3.0477,-1.9638,-2.0877,-2.2008,-2.4638,-2.4759,0.0,-2.6237,-2.7217,-2.8259,-2.9939,0.0,0.0,0.0,0.0,0.0,0.0,0.0,0.0,0.0,0.0,0.0,0.0,0.0,0.0,0.0,0.0,0.0,0.0,0.0,0.0,0.0,0.0,0.0,0.0,0.0,0.0,0.0,0.0,0.0,0.0,-3.1198,-3.1583,-3.1641,-3.3391,-3.4237,-3.4353,-3.5161,-3.5493,-3.5493,-3.546,-3.5304,-3.5053,-3.4754,-3.4209,-3.3524,-3.3248,-3.2565,-3.1771,-3.1752,-3.147,-3.1112,-3.1112,-3.1112,-3.1112,-3.1112,-3.1432,-3.1789,-3.1789,-3.2433,-3.3154,-3.3184,-3.3465,-3.3734,-3.3788,-3.3807,-3.3385,-3.1843,-3.1439,-3.0944,-2.942,-2.9049,-2.8994,-2.8994,-2.8994,-2.9012,-2.9085,-2.9787,-3.0577,-3.1311,-3.1458,-3.1513,-3.1513,-3.2228,-3.2724,-3.2724,-3.3385,-3.3807,-3.3807,-3.3807,-3.3606,-3.3214,-3.2777,-3.2162,-3.1252,-3.1252,-3.123,-3.119,-3.119,-3.119,-3.119,-3.119,-3.119,-1.8386,-2.0075,-2.1769,-2.3929,-2.4748,-2.5322,-2.6351,-2.6755,-2.72,-2.8315,0.0,0.0,0.0,0.0,0.0,0.0,0.0,0.0,0.0,0.0,0.0,0.0,0.0,0.0,0.0,0.0,0.0,0.0,0.0,0.0,0.0,0.0,0.0,0.0,0.0,0.0,-3.0954,-3.0711,-3.0554,0.0,-3.0621,-3.0679,-3.0756,-3.3122,-3.4564,-3.5238,-3.543,-3.5493,-3.5493,-3.5273,-3.5035,-3.4754,-3.4423,-3.3887,-3.3219,-3.2809,-3.2298,-3.1752,-3.1449,-3.0982,-3.0477,-3.0477,-3.0477,-3.0477,-3.0477,-3.1111,-3.1789,-3.1789,-3.2196,-3.2763,-3.3105,-3.3273,-3.339,-3.3734,-3.3807,-3.3532,-3.2559,-3.1843,-3.1109,-3.0136,-2.9439,-2.8994,-2.8994,-2.8994,-2.9195,-2.9861,-3.0632,-3.1201,-3.1366,-3.1953,-3.2339,-3.2339,-3.3073,-3.3532,-3.3532,-3.3697,-3.3807,-3.3807,-3.3807,-3.3606,-3.3214,-3.3105,-3.2598,-3.1696,-3.166,-3.1507,-3.119,-3.119,-3.119,-3.119,-3.119,-3.119,-1.86,-2.0279,-2.1933,-2.4211,0.0,-2.5481,-2.5925,-2.6006,-2.6131,-2.6694,0.0,0.0,0.0,0.0,0.0,0.0,0.0,0.0,0.0,0.0,0.0,0.0,0.0,0.0,0.0,0.0,0.0,0.0,0.0,0.0,0.0,0.0,0.0,0.0,0.0,0.0,-3.0696,-3.0624,-3.0561,-3.0498,-3.0439,-3.0609,-3.1083,-3.2795,-3.4045,-3.4911,-3.5334,-3.5493,-3.5479,-3.5207,-3.4944,-3.4674,-3.4334,-3.366,-3.2858,-3.2583,-3.2074,-3.147,-3.1252,-3.1015,-3.074,-3.074,-3.074,-3.074,-3.074,-3.1083,-3.1507,-3.1507,-3.1842,-3.2264,-3.2745,-3.3045,-3.3302,-3.3707,-3.3807,-3.3587,-3.2779,-3.1971,-3.1274,-3.0852,-3.0118,-2.9586,-2.9586,-2.9586,-2.9861,-3.065,-3.1458,-3.2118,-3.2485,-3.2926,-3.3183,-3.3183,-3.355,-3.3807,-3.3807,-3.3807,-3.3807,-3.3807,-3.3807,-3.3707,-3.3494,-3.3075,-3.2533,-3.1808,-3.1603,-3.1411,-3.119,-3.119,-3.119,-3.119,-3.119,-3.119,-1.8888,-2.0698,-2.24,-2.4641,-2.5305,0.0,-2.5415,-2.5371,-2.5346,0.0,0.0,0.0,0.0,0.0,0.0,0.0,0.0,0.0,0.0,0.0,0.0,0.0,0.0,0.0,0.0,0.0,0.0,0.0,0.0,0.0,0.0,0.0,0.0,0.0,0.0,-3.0837,-3.0696,-3.0624,-3.0561,-3.0498,-3.0439,-3.0794,-3.1506,-3.2314,-3.3237,-3.4237,-3.4968,-3.5325,-3.5417,-3.5138,-3.487,-3.4572,-3.4265,-3.3451,-3.2484,-3.2484,-3.1967,-3.119,-3.119,-3.1151,-3.1055,-3.1055,-3.1055,-3.1055,-3.1055,-3.1112,-3.119,-3.119,-3.1449,-3.1789,-3.2282,-3.2681,-3.3075,-3.3578,-3.3707,-3.3524,-3.2936,-3.2173,-3.1568,-3.1421,-3.0742,-3.021,-3.021,-3.043,-3.0797,-3.1311,-3.2192,-3.3054,-3.3715,-3.3807,-3.3807,-3.3807,-3.3807,-3.3807,-3.3807,-3.3807,-3.3807,-3.3807,-3.3807,-3.3762,-3.3707,-3.2934,-3.2282,-3.1825,-3.1411,-3.119,-3.119,-3.119,-3.119,-3.119,-3.119,-3.119,-1.7472,0.0,-2.3144,0.0,-2.497,-2.5498,0.0,0.0,0.0,0.0,0.0,0.0,0.0,0.0,0.0,0.0,0.0,0.0,0.0,0.0,0.0,0.0,0.0,0.0,0.0,0.0,0.0,0.0,0.0,0.0,0.0,0.0,-3.0898,-3.0898,-3.0898,0.0,-3.0696,-3.0624,-3.0561,-3.0498,-3.0439,-3.0456,-3.059,-3.1468,-3.2718,-3.4199,-3.4314,-3.4659,-3.5122,-3.4851,-3.4572,-3.4242,-3.3961,-3.3296,-3.2484,-3.2484,-3.1967,-3.119,-3.119,-3.0878,-3.0435,-3.0435,-3.0435,-3.0435,-3.0435,-3.0797,-3.119,-3.119,-3.123,-3.1389,-3.1806,-3.1951,-3.2196,-3.3057,-3.3273,-3.3343,-3.3606,-3.3018,-3.2228,-3.1531,-3.0742,-3.021,-3.021,-3.1366,-3.2082,-3.1476,-3.2669,-3.3678,-3.3788,-3.3807,-3.3807,-3.3807,-3.3807,-3.3807,-3.3807,-3.3807,-3.3807,-3.3807,-3.3807,-3.3634,-3.3302,-3.2777,-3.2282,-3.1825,-3.1411,-3.119,-3.119,-3.119,-3.119,-3.119,-3.119,-3.119,-1.7152,-1.9677,-2.2121,0.0,-2.4573,-2.4969,-2.5437,0.0,0.0,0.0,0.0,0.0,0.0,0.0,0.0,0.0,0.0,0.0,0.0,0.0,0.0,0.0,0.0,0.0,0.0,0.0,0.0,0.0,0.0,0.0,0.0,-3.0858,-3.0663,-3.0131,-3.0559,0.0,-2.9975,-3.0348,-3.0516,-3.0441,-3.0414,-3.0398,-3.0398,-3.0814,-3.1891,-3.3487,-3.382,-3.4385,-3.5051,-3.4595,-3.4334,-3.4152,-3.3902,-3.3255,-3.2484,-3.2484,-3.1967,-3.119,-3.119,-3.1015,-3.0781,-3.0781,-3.0781,-3.0781,-3.0781,-3.1015,-3.119,-3.119,-3.119,-3.1351,-3.2004,-3.2004,-3.2022,-3.2983,-3.3214,-3.3243,-3.3437,-3.3031,-3.2504,-3.2137,-3.1788,-3.1549,-3.1549,-3.2137,-3.2485,-3.2137,-3.3054,-3.3707,-3.3494,-3.3447,-3.3361,-3.3087,-3.3057,-3.3057,-3.3057,-3.3057,-3.3057,-3.3057,-3.3057,-3.2996,-3.2809,-3.2366,-3.1986,-3.1808,-3.1411,-3.119,-3.119,-3.119,-3.119,-3.119,-3.119,-3.119,-1.6541,0.0,-2.0214,-2.2724,-2.3677,-2.4223,0.0,0.0,0.0,0.0,0.0,0.0,0.0,0.0,0.0,0.0,0.0,0.0,0.0,0.0,0.0,0.0,0.0,0.0,0.0,0.0,0.0,0.0,0.0,0.0,-3.0368,-3.0452,-3.0105,-2.9169,-2.9943,-3.0033,-2.9356,-3.0109,-3.0462,-3.0398,-3.0398,-3.0398,-3.0398,-3.0398,-3.1289,-3.2812,-3.328,-3.4008,-3.4832,-3.4383,-3.4171,-3.4068,-3.377,-3.3196,-3.2484,-3.2384,-3.186,-3.119,-3.119,-3.119,-3.119,-3.119,-3.119,-3.119,-3.119,-3.119,-3.119,-3.119,-3.119,-3.1368,-3.1986,-3.1914,-3.1861,-3.2631,-3.2952,-3.3075,-3.3302,-3.2958,-3.2669,-3.2871,-3.2742,-3.2614,-3.2614,-3.2779,-3.2852,-3.2632,-3.3195,-3.355,-3.3243,-3.3105,-3.289,-3.255,-3.2484,-3.2484,-3.2484,-3.2484,-3.2484,-3.2484,-3.2484,-3.2451,-3.235,-3.2004,-3.1752,-3.166,-3.1351,-3.119,-3.119,-3.119,-3.119,-3.119,-3.119,-3.119,0.0,-1.6207,0.0,-2.0137,-2.1992,0.0,0.0,0.0,0.0,0.0,0.0,0.0,0.0,0.0,0.0,0.0,0.0,0.0,0.0,0.0,0.0,0.0,0.0,0.0,0.0,0.0,0.0,0.0,0.0,0.0,-2.9463,-2.9474,-2.909,-2.8199,-2.9007,-2.9376,-2.9218,-2.9987,-3.039,-3.0398,-3.0398,-3.0398,-3.0398,-3.0398,-3.1174,-3.253,-3.2553,-3.3204,-3.4246,-3.42,-3.4043,-3.3788,-3.339,-3.2952,-3.2451,-3.1986,-3.1565,-3.119,-3.119,-3.119,-3.119,-3.119,-3.119,-3.119,-3.119,-3.119,-3.119,-3.119,-3.119,-3.119,-3.1269,-3.1269,-3.1351,-3.1752,-3.2196,-3.2777,-3.3578,-3.3138,-3.2834,-3.3587,-3.3128,-3.2614,-3.2614,-3.3238,-3.3476,-3.2724,-3.2956,-3.3214,-3.3214,-3.2809,-3.2517,-3.2517,-3.2484,-3.2484,-3.2484,-3.2484,-3.2484,-3.2484,-3.2484,-3.2316,-3.1844,-3.1808,-3.164,-3.123,-3.119,-3.119,-3.119,-3.119,-3.119,-3.119,-3.119,-3.119,-1.4332,0.0,0.0,-1.9204,-2.0576,-2.1789,0.0,0.0,0.0,0.0,0.0,0.0,0.0,0.0,0.0,0.0,0.0,0.0,0.0,0.0,0.0,0.0,0.0,0.0,0.0,0.0,0.0,0.0,0.0,0.0,-2.8296,-2.8357,-2.8003,-2.722,-2.8048,-2.8714,-2.9129,-2.9971,-3.0398,-3.0398,-3.0398,-3.0398,-3.0398,-3.0398,-3.08,-3.15,-3.2012,-3.2992,-3.4195,-3.4018,-3.3876,-3.3762,-3.3361,-3.2903,-3.2451,-3.1951,-3.1545,-3.119,-3.119,-3.119,-3.119,-3.119,-3.119,-3.1269,-3.1507,-3.1411,-3.1252,-3.1507,-3.1389,-3.1252,-3.1507,-3.1603,-3.177,-3.2533,-3.284,-3.3105,-3.368,-3.3568,-3.3458,-3.3733,-3.3568,-3.3366,-3.3366,-3.3605,-3.3597,-3.3084,-3.3092,-3.2965,-3.24,-3.2161,-3.1933,-3.1694,-3.1657,-3.1657,-3.1657,-3.1657,-3.1657,-3.1657,-3.1657,-3.1582,-3.1411,-3.1411,-3.1351,-3.119,-3.119,-3.119,-3.119,-3.119,-3.119,-3.119,-3.119,-3.119,-1.3533,0.0,0.0,0.0,0.0,-2.0148,0.0,0.0,0.0,0.0,0.0,0.0,0.0,0.0,0.0,0.0,0.0,0.0,0.0,0.0,0.0,0.0,0.0,0.0,0.0,0.0,0.0,0.0,0.0,0.0,-2.7113,-2.7168,-2.7007,-2.6583,-2.7412,-2.826,-2.9094,-2.9967,-3.0398,-3.0398,-3.0398,-3.0398,-3.0398,-3.0311,-3.0509,-3.0922,-3.1373,-3.2369,-3.3654,-3.3766,-3.3707,-3.355,-3.3136,-3.2681,-3.2196,-3.177,-3.1449,-3.119,-3.119,-3.119,-3.123,-3.1351,-3.1411,-3.147,-3.1897,-3.1842,-3.1657,-3.1752,-3.1603,-3.1449,-3.1565,-3.1696,-3.1986,-3.2777,-3.3093,-3.3302,-3.3707,-3.3807,-3.3807,-3.3807,-3.3807,-3.3807,-3.3807,-3.368,-3.3522,-3.3243,-3.2934,-3.25,-3.188,-3.1696,-3.1507,-3.123,-3.1015,-3.0975,-3.119,-3.0838,-3.0781,-3.119,-3.1015,-3.0975,-3.119,-3.119,-3.119,-3.119,-3.119,-3.119,-3.119,-3.119,-3.119,-3.119,-3.119,-3.1095,0.0,0.0,0.0,0.0,0.0,0.0,0.0,0.0,0.0,0.0,0.0,0.0,0.0,0.0,0.0,0.0,0.0,0.0,0.0,0.0,0.0,0.0,0.0,0.0,0.0,0.0,0.0,0.0,0.0,-2.5925,-2.5925,-2.594,-2.6062,-2.6257,-2.7109,-2.8039,-2.9025,-2.991,-3.0359,-3.0359,-3.0379,-3.0398,-3.0398,-3.0122,-3.0314,-3.0866,-3.0689,-3.1316,-3.2596,-3.3421,-3.356,-3.3184,-3.2681,-3.2196,-3.1752,-3.1351,-3.119,-3.119,-3.119,-3.119,-3.1291,-3.166,-3.1825,-3.1915,-3.2384,-3.2517,-3.2417,-3.1951,-3.1825,-3.1716,-3.1351,-3.1545,-3.1951,-3.2417,-3.289,-3.3332,-3.3707,-3.3807,-3.3807,-3.3807,-3.3807,-3.3807,-3.3762,-3.3465,-3.3184,-3.3154,-3.24,-3.1789,-3.1789,-3.1449,-3.119,-3.119,-3.0617,-3.0518,-3.1112,-3.0081,-2.9892,-3.1055,-3.0617,-3.0559,-3.1151,-3.119,-3.119,-3.119,-3.119,-3.119,-3.119,-3.119,-3.119,-3.119,-3.119,-3.0838,-1.2678,0.0,0.0,0.0,0.0,0.0,0.0,0.0,0.0,0.0,0.0,0.0,0.0,0.0,0.0,0.0,0.0,0.0,0.0,0.0,0.0,0.0,0.0,0.0,0.0,0.0,0.0,0.0,0.0,-2.4042,-2.4168,-2.4557,-2.4953,-2.5342,-2.6212,-2.6859,-2.7294,-2.8736,-2.9467,-2.9467,-3.0102,-3.0398,-3.0398,-3.0122,-3.0007,-3.0036,-3.0428,-3.0709,-3.098,-3.2375,-3.3221,-3.355,-3.2809,-3.2417,-3.2213,-3.1449,-3.119,-3.119,-3.119,-3.1389,-3.166,-3.1752,-3.2022,-3.24,-3.2872,-3.2777,-3.2484,-3.2332,-3.2316,-3.235,-3.2583,-3.2745,-3.2934,-3.3343,-3.355,-3.368,-3.378,-3.3807,-3.3807,-3.3807,-3.3807,-3.3707,-3.3437,-3.3273,-3.2983,-3.2298,-3.1951,-3.1696,-3.1411,-3.0902,-3.0559,-3.0559,-3.0038,-2.9717,-2.9892,-2.9585,-2.954,-2.9892,-3.0166,-3.0377,-3.0518,-3.0975,-3.119,-3.119,-3.119,-3.119,-3.119,-3.119,-3.119,-3.119,-3.074,-2.9995,-1.3334,0.0,0.0,0.0,0.0,0.0,0.0,0.0,0.0,0.0,0.0,0.0,0.0,0.0,0.0,0.0,0.0,0.0,0.0,0.0,0.0,0.0,0.0,0.0,0.0,0.0,0.0,0.0,-2.3323,-2.331,-2.3584,-2.3873,-2.4278,-2.4776,-2.5617,-2.6198,-2.6477,-2.7812,-2.8679,-2.9102,-2.9602,-2.999,-3.0222,-2.9969,-2.9782,-2.9589,-2.9834,-3.0042,-3.0283,-3.1219,-3.2161,-3.2993,-3.2441,-3.2196,-3.2144,-3.1449,-3.119,-3.123,-3.1372,-3.1603,-3.1844,-3.2264,-3.2565,-3.2872,-3.3332,-3.3255,-3.2996,-3.284,-3.2648,-3.255,-3.2858,-3.3045,-3.3273,-3.3494,-3.368,-3.3807,-3.3807,-3.3807,-3.3807,-3.3807,-3.3807,-3.368,-3.3273,-3.3045,-3.2681,-3.1915,-3.166,-3.147,-3.123,-3.0878,-3.0576,-3.0351,-2.9761,-2.9406,-2.9406,-2.895,-2.8996,-2.9717,-2.9848,-3.0166,-3.0658,-3.1015,-3.119,-3.119,-3.119,-3.1072,-3.0838,-3.1072,-3.1055,-3.0781,-2.9951,-2.918,0.0,0.0,0.0,0.0,0.0,0.0,-1.699,-1.7254,0.0,0.0,0.0,0.0,0.0,0.0,0.0,0.0,0.0,0.0,0.0,0.0,0.0,0.0,0.0,0.0,0.0,0.0,0.0,-2.3165,-2.3141,-2.33,-2.3628,-2.3671,-2.3961,-2.4495,-2.5181,-2.575,-2.6143,-2.7014,-2.7924,-2.8813,-2.9006,-2.9365,-2.9865,-2.9742,-2.9589,-2.9392,-2.9112,-2.942,-3.0081,-3.0106,-3.0818,-3.1869,-3.1775,-3.1722,-3.1631,-3.1317,-3.119,-3.1252,-3.1603,-3.1789,-3.2022,-3.284,-3.3184,-3.3332,-3.3707,-3.3807,-3.3734,-3.3361,-3.2934,-3.2583,-3.2648,-3.2934,-3.3273,-3.3273,-3.355,-3.3807,-3.3807,-3.3807,-3.3807,-3.3807,-3.3807,-3.3652,-3.3214,-3.2777,-3.235,-3.1825,-3.1411,-3.119,-3.119,-3.1095,-3.0797,-3.0251,-2.9585,-2.918,-2.918,-2.8222,-2.8304,-2.9892,-2.954,-2.9805,-3.0958,-3.1055,-3.1151,-3.119,-3.1151,-3.0781,-3.0208,-3.074,-3.0699,-3.0081,-2.9012,-2.8463,0.0,0.0,0.0,0.0,0.0,0.0,0.0,-1.571,0.0,0.0,0.0,0.0,0.0,0.0,0.0,0.0,0.0,0.0,0.0,0.0,0.0,0.0,0.0,0.0,0.0,0.0,-2.2873,-2.2797,-2.2797,-2.2947,-2.3277,-2.3544,-2.3961,-2.4495,-2.4661,-2.4907,-2.5246,-2.6117,-2.6725,-2.7101,-2.8448,-2.9078,-2.9046,-2.9496,-2.9589,-2.9392,-2.9112,-2.9085,-2.9269,-2.9577,-3.0279,-3.1135,-3.1342,-3.1199,-3.0941,-3.113,-3.119,-3.123,-3.1291,-3.1787,-3.2366,-3.2583,-3.3105,-3.3707,-3.378,-3.3807,-3.3762,-3.3707,-3.339,-3.3136,-3.3447,-3.3606,-3.368,-3.368,-3.3734,-3.3807,-3.3807,-3.3807,-3.3807,-3.3807,-3.3807,-3.355,-3.2777,-3.255,-3.2213,-3.1466,-3.1252,-3.119,-3.119,-3.0335,-2.9717,-2.9585,-2.8575,-2.7944,-2.7944,-2.776,-2.776,-2.8125,-2.8448,-2.9012,-2.9717,-3.0208,-3.0699,-3.119,-3.0699,-3.0166,-2.9585,-2.9673,-2.9451,-2.8826,-2.8606,-2.8238,0.0,0.0,0.0,-1.6742,0.0,0.0,0.0,0.0,0.0,0.0,0.0,0.0,0.0,0.0,0.0,0.0,0.0,0.0,0.0,0.0,0.0,0.0,0.0,0.0,0.0,0.0,-2.2695,-2.2695,-2.2848,-2.3093,-2.3414,-2.3437,-2.3738,-2.4321,-2.4192,-2.4369,-2.4891,-2.534,-2.5837,-2.6454,-2.7309,-2.7763,-2.7881,-2.8592,-2.8782,-2.863,-2.8879,-2.8994,-2.8989,-2.8993,-2.9161,-2.9479,-3.0135,-3.0312,-3.0179,-3.0534,-3.0649,-3.0738,-3.1312,-3.177,-3.2196,-3.2417,-3.2934,-3.3465,-3.3225,-3.3332,-3.355,-3.3734,-3.3634,-3.355,-3.3734,-3.3807,-3.3807,-3.3807,-3.3807,-3.3807,-3.3807,-3.3807,-3.3807,-3.3807,-3.3807,-3.3504,-3.2648,-3.2484,-3.2179,-3.1329,-3.119,-3.119,-3.119,-3.0658,-3.0081,-2.9451,-2.8857,-2.8255,-2.766,-2.786,-2.8189,-2.8496,-2.9042,-2.9673,-3.0251,-3.0601,-3.074,-3.074,-3.0166,-2.954,-2.8966,-2.8638,-2.8496,-2.8511,-2.8189,-2.7894,0.0,0.0,0.0,0.0,0.0,-1.5845,0.0,0.0,0.0,0.0,0.0,0.0,0.0,0.0,0.0,0.0,0.0,0.0,0.0,0.0,0.0,0.0,0.0,0.0,0.0,0.0,-2.2505,-2.2678,-2.288,-2.3186,-2.3674,-2.3482,-2.3649,-2.417,-2.3937,-2.4118,-2.479,-2.4804,-2.5237,-2.6116,-2.6244,-2.6456,-2.6747,-2.7513,-2.784,-2.7842,-2.8503,-2.8847,-2.8975,-2.8658,-2.8316,-2.8078,-2.8955,-2.9281,-2.9317,-2.9824,-3.0048,-3.0251,-3.1229,-3.1668,-3.1861,-3.223,-3.2681,-3.2983,-3.2616,-3.2827,-3.3273,-3.3578,-3.3734,-3.3807,-3.3807,-3.3807,-3.3807,-3.3807,-3.3807,-3.3807,-3.3807,-3.3807,-3.3807,-3.3807,-3.3807,-3.355,-3.2777,-3.255,-3.2213,-3.1428,-3.1252,-3.119,-3.119,-3.1112,-3.0658,-2.9673,-2.9451,-2.8996,-2.8027,-2.8415,-2.8873,-2.9361,-2.9848,-3.0351,-3.0838,-3.0838,-3.0559,-2.9995,-2.9496,-2.8904,-2.8334,-2.786,-2.786,-2.8319,-2.781,-2.7625,0.0,0.0,0.0,0.0,-1.7233,0.0,0.0,0.0,0.0,0.0,0.0,0.0,0.0,0.0,0.0,0.0,0.0,0.0,0.0,0.0,0.0,0.0,0.0,0.0,0.0,0.0,0.0,-2.2617,-2.2388,-2.2656,-2.3656,-2.3955,-2.4113,-2.4208,-2.417,-2.4356,-2.4804,-2.4804,-2.5006,-2.5417,-2.6025,-2.6227,-2.6107,-2.6763,-2.7321,-2.7805,-2.7897,-2.8338,-2.8994,-2.8952,-2.87,-2.8362,-2.8474,-2.8321,-2.8133,-2.9197,-2.9793,-3.0183,-3.059,-3.12,-3.1825,-3.1861,-3.2196,-3.2583,-3.2517,-3.2827,-3.3214,-3.3243,-3.3522,-3.3807,-3.3807,-3.3807,-3.3807,-3.3807,-3.3807,-3.3807,-3.3807,-3.3807,-3.3807,-3.3807,-3.3807,-3.3652,-3.3214,-3.2777,-3.235,-3.1825,-3.1411,-3.119,-3.119,-3.074,-3.0351,-3.0208,-2.9717,-2.9361,-2.9225,-2.9271,-2.9316,-2.9406,-2.9451,-2.954,-2.9585,-2.9585,-2.9316,-2.8748,-2.8654,-2.8319,-2.771,-2.7625,-2.7625,-2.771,-2.7625,-2.7625,0.0,0.0,0.0,0.0,0.0,0.0,0.0,0.0,-1.3969,0.0,0.0,0.0,0.0,0.0,0.0,0.0,0.0,0.0,0.0,0.0,0.0,0.0,0.0,0.0,0.0,0.0,0.0,0.0,0.0,-2.2821,-2.3921,-2.3735,-2.3795,-2.419,-2.4016,-2.4192,-2.479,-2.4685,-2.476,-2.5019,-2.5187,-2.5145,-2.4984,-2.5708,-2.6423,-2.7126,-2.7603,-2.8264,-2.8994,-2.8749,-2.854,-2.8386,-2.8176,-2.8019,-2.7907,-2.8356,-2.8939,-2.9469,-2.9625,-3.0022,-3.0474,-3.0508,-3.0491,-3.063,-3.1573,-3.2005,-3.2281,-3.301,-3.3494,-3.3807,-3.3807,-3.3807,-3.3807,-3.3807,-3.3807,-3.3807,-3.3807,-3.3807,-3.3807,-3.3807,-3.3807,-3.3734,-3.3578,-3.3196,-3.2745,-3.2282,-3.1842,-3.1545,-3.1545,-3.1123,-3.0699,-3.0351,-3.0081,-2.9761,-2.9406,-2.9717,-2.9935,-2.9935,-3.0251,-3.0293,-2.9935,-2.9935,-2.9496,-2.8511,-2.8511,-2.8189,-2.7625,-2.7625,-2.7625,-2.7625,-2.7625,-2.7625,-1.9509,0.0,0.0,0.0,0.0,0.0,0.0,0.0,0.0,0.0,0.0,0.0,0.0,0.0,0.0,0.0,0.0,0.0,0.0,0.0,0.0,0.0,0.0,0.0,0.0,0.0,0.0,0.0,0.0,0.0,-2.3999,-2.3692,-2.3692,-2.417,-2.3958,-2.4136,-2.479,-2.4591,-2.4623,-2.4855,-2.4623,-2.4409,-2.4303,-2.4834,-2.5511,-2.6319,-2.7126,-2.7934,-2.8682,-2.8591,-2.8565,-2.854,-2.8183,-2.8102,-2.8174,-2.8018,-2.838,-2.8999,-2.8988,-2.9162,-2.942,-2.9661,-2.9518,-2.9561,-3.0924,-3.1505,-3.187,-3.276,-3.339,-3.3807,-3.3807,-3.3807,-3.3807,-3.3807,-3.3807,-3.3807,-3.3807,-3.3807,-3.3807,-3.3807,-3.3807,-3.3807,-3.3807,-3.3465,-3.3075,-3.2745,-3.2298,-3.1986,-3.1986,-3.1603,-3.1218,-3.0771,-3.0625,-3.0393,-2.9935,-3.0293,-3.0559,-3.0559,-3.0658,-3.0518,-3.0081,-2.9761,-2.9134,-2.8271,-2.8238,-2.8042,-2.7625,-2.7625,-2.7625,-2.7625,-2.7625,-2.7625,0.0,0.0,0.0,-1.6589,0.0,0.0,0.0,0.0,-1.4788,0.0,0.0,0.0,0.0,0.0,0.0,-1.3914,0.0,0.0,0.0,0.0,0.0,0.0,0.0,0.0,0.0,0.0,0.0,0.0,0.0,0.0,-2.3623,-2.3996,-2.417,-2.419,-2.419,-2.4393,-2.4804,-2.4591,-2.4682,-2.4998,-2.4666,-2.4495,-2.4478,-2.4321,-2.4667,-2.5495,-2.6282,-2.709,-2.7897,-2.8663,-2.8994,-2.8929,-2.854,-2.8633,-2.8905,-2.8533,-2.8629,-2.9001,-2.9006,-2.8999,-2.913,-2.9875,-3.0074,-3.0209,-3.0959,-3.1789,-3.2482,-3.2517,-3.3118,-3.3807,-3.3807,-3.3807,-3.3807,-3.3807,-3.3807,-3.3807,-3.3807,-3.3807,-3.3807,-3.3807,-3.3807,-3.3807,-3.3807,-3.3465,-3.3184,-3.3184,-3.2777,-3.2484,-3.2484,-3.2057,-3.1789,-3.1735,-3.1411,-3.1151,-3.1151,-3.1151,-3.119,-3.119,-3.0081,-2.9451,-2.9406,-2.8304,-2.766,-2.7625,-2.7625,-2.7625,-2.7625,-2.7625,-2.7625,-2.7625,-2.7625,-2.7625,0.0,0.0,-1.9456,-1.7265,0.0,0.0,0.0,0.0,0.0,0.0,0.0,0.0,0.0,0.0,-1.4722,-1.4498,-1.4186,0.0,0.0,0.0,0.0,0.0,0.0,0.0,0.0,0.0,0.0,0.0,0.0,0.0,0.0,-2.3477,-2.3649,-2.3858,-2.421,-2.4528,-2.4804,-2.4731,-2.476,-2.485,-2.4623,-2.4426,-2.4303,-2.4228,-2.463,-2.5439,-2.6245,-2.7053,-2.786,-2.8686,-2.8994,-2.8994,-2.8839,-2.8863,-2.8929,-2.8308,-2.847,-2.8931,-2.8439,-2.7903,-2.7588,-2.8349,-2.8602,-2.8842,-3.0396,-3.1272,-3.1941,-3.2729,-3.3361,-3.3807,-3.3807,-3.3807,-3.3807,-3.3807,-3.3807,-3.3807,-3.3807,-3.3807,-3.3807,-3.3807,-3.3807,-3.3807,-3.3807,-3.368,-3.3606,-3.3606,-3.3243,-3.2952,-3.2952,-3.255,-3.2127,-3.1808,-3.1696,-3.147,-3.123,-3.119,-3.119,-3.119,-3.0838,-3.0208,-2.9451,-2.8996,-2.84,-2.7625,-2.7625,-2.7625,-2.7625,-2.7625,-2.7625,-2.7625,-2.7625,-2.7625,-1.877,-1.9149,0.0,0.0,-1.7569,0.0,-1.5543,0.0,0.0,0.0,0.0,0.0,0.0,0.0,0.0,-1.4827,-1.4333,0.0,0.0,0.0,0.0,0.0,0.0,0.0,0.0,0.0,-1.8526,-1.9626,0.0,0.0,0.0,0.0,-2.3477,-2.3692,-2.4154,-2.4528,-2.4804,-2.4731,-2.4731,-2.4804,-2.461,-2.4393,-2.419,-2.419,-2.4483,-2.5035,-2.5823,-2.6631,-2.7438,-2.8246,-2.8741,-2.8994,-2.8994,-2.8994,-2.8929,-2.8456,-2.843,-2.8533,-2.8065,-2.7378,-2.6826,-2.7571,-2.801,-2.8557,-3.0196,-3.1198,-3.1991,-3.2931,-3.3494,-3.3807,-3.3807,-3.3807,-3.3807,-3.3807,-3.3807,-3.3807,-3.3807,-3.3807,-3.3807,-3.3807,-3.3807,-3.3807,-3.3807,-3.3807,-3.3807,-3.3807,-3.3578,-3.3419,-3.3419,-3.3014,-3.2583,-3.2092,-3.188,-3.164,-3.123,-3.119,-3.119,-3.119,-3.1015,-3.0435,-2.9451,-2.918,-2.8638,-2.7625,-2.7625,-2.7625,-2.7625,-2.7625,-2.7625,-2.7625,-2.7625,-2.7625]},{"header":{"parameterUnit":"m.s-1","parameterCategory":1,"la1":30.6,"la2":29.2853,"lo1":-89.7004,"lo2":-87.6739,"dy":0.0162,"dx":0.0183,"nx":112,"ny":82,"refTime":"2025-08-04T12:00:00:Z","depth":0,"parameterNumber":3,"parameterNumberName":"V-component_of_WINDS"},"data":[0.0,0.0,0.0,0.0,0.0,0.0,0.0,0.0,0.0,0.0,0.0,0.0,0.0,0.0,0.0,0.0,0.0,0.0,0.0,0.0,0.0,0.0,0.0,0.0,0.0,0.0,0.0,0.0,0.0,0.0,0.0,0.0,0.0,0.0,0.0,0.0,0.0,0.0,0.0,0.0,0.0,0.0,0.0,0.0,0.0,0.0,0.0,0.0,0.0,0.0,0.0,0.0,0.0,0.0,0.0,0.0,0.0,0.0,0.0,0.0,0.0,0.0,0.0,0.0,0.0,0.0,0.0,0.0,0.0,0.0,0.0,0.0,0.0,0.0,0.0,0.0,0.0,0.0,0.0,0.0,0.0,0.0,0.0,0.0,0.0,0.0,0.0,0.0,0.0,0.0,0.0,-0.2304,-0.6631,-1.006,-1.164,-1.3796,-1.4,-1.1575,0.0,0.0,0.0,0.0,0.0,0.0,0.0,0.0,0.0,0.0,0.0,0.0,0.0,0.0,0.0,0.0,0.0,0.0,0.0,0.0,0.0,0.0,0.0,0.0,0.0,0.0,0.0,0.0,0.0,0.0,0.0,0.0,0.0,0.0,0.0,0.0,0.0,0.0,0.0,0.0,0.0,0.0,0.0,0.0,0.0,0.0,0.0,0.0,0.0,0.0,0.0,0.0,0.0,0.0,0.0,0.0,0.0,0.0,0.0,0.0,0.0,0.0,0.0,0.0,0.0,0.0,0.0,0.0,0.0,0.0,0.0,0.0,0.0,0.0,0.0,0.0,0.0,0.0,0.0,0.0,0.0,0.0,0.0,0.0,0.0,0.0,0.0,0.0,0.0,0.0,0.0,0.0,0.0,0.0,0.0,0.0,0.0,0.0,0.0,0.0,0.0,0.0,0.0,0.0,-0.424,-0.6072,-0.8303,-1.054,-1.2752,-1.2732,-1.2263,-1.1458,0.0,0.0,0.0,0.0,0.0,0.0,0.0,0.0,0.0,0.0,0.0,0.0,0.0,0.0,0.0,0.0,0.0,0.0,0.0,0.0,0.0,0.0,0.0,0.0,0.0,0.0,0.0,0.0,0.0,0.0,0.0,0.0,0.0,0.0,0.0,0.0,0.0,0.0,0.0,0.0,0.0,0.0,0.0,0.0,0.0,0.0,0.0,0.0,0.0,0.0,0.0,0.0,0.0,0.0,0.0,0.0,0.0,0.0,0.0,0.0,0.0,0.0,0.0,0.0,0.0,0.0,0.0,0.0,0.0,0.0,0.0,0.0,0.0,0.0,0.0,0.0,0.0,0.0,0.0,0.0,0.0,0.0,0.0,0.0,0.0,0.0,0.0,0.0,0.0,0.0,0.0,0.0,0.0,0.0,0.0,0.0,0.0,0.0,0.0,0.0,0.0,0.0,0.0,-0.4554,-0.5415,-0.6925,-0.8698,-1.0335,-1.1762,-1.1723,-1.1113,-0.9975,-0.8783,0.0,0.0,0.0,0.0,0.0,0.0,0.0,0.0,0.0,0.0,0.0,0.0,0.0,0.0,0.0,0.0,0.0,0.0,0.0,0.0,0.0,0.0,0.0,0.0,0.0,0.0,0.0,0.0,0.0,0.0,0.0,0.0,0.0,0.0,0.0,0.0,0.0,0.0,0.0,0.0,0.0,0.0,0.0,0.0,0.0,0.0,0.0,0.0,0.0,0.0,0.0,0.0,0.0,0.0,0.0,0.0,0.0,0.0,0.0,0.0,0.0,0.0,0.0,0.0,0.0,0.0,0.0,0.0,0.0,0.0,0.0,0.0,0.0,0.0,0.0,0.0,0.0,0.0,0.0,0.0,0.0,0.0,0.0,0.0,0.0,0.0,0.0,0.0,0.0,0.0,0.0,0.0,0.0,0.0,0.0,0.0,0.0,0.0,0.0,0.0,0.0,0.0,-0.5208,-0.6107,-0.7162,-0.8776,-1.0064,-1.0762,-1.0634,-1.0004,-0.87,-0.7248,0.0,0.0,0.0,0.0,0.0,0.0,0.0,0.0,0.0,0.0,0.0,0.0,0.0,0.0,0.0,0.0,0.0,0.0,0.0,0.0,0.0,0.0,0.0,0.0,0.0,0.0,0.0,0.0,0.0,0.0,0.0,0.0,0.0,0.0,0.0,0.0,0.0,0.0,0.0,0.0,0.0,0.0,0.0,0.0,0.0,0.0,0.0,0.0,0.0,0.0,0.0,0.0,0.0,0.0,0.0,0.0,0.0,0.0,0.0,0.0,0.0,0.0,0.0,0.0,0.0,0.0,0.0,0.0,0.0,0.0,0.0,0.0,0.0,0.0,0.0,0.0,0.0,0.0,0.0,0.0,0.0,0.0,0.0,0.0,0.0,0.0,0.0,0.0,0.0,0.0,0.0,0.0,0.0,0.0,0.0,0.0,0.0,0.0,0.0,0.0,0.0,0.0,-0.5679,-0.6706,-0.7721,-0.9034,-1.0064,-1.0762,-0.9485,-0.8681,-0.861,-0.6075,0.0,0.0,0.0,0.0,0.0,0.0,0.0,0.0,0.0,0.0,0.0,0.0,0.0,0.0,0.0,0.0,0.0,0.0,0.0,0.0,0.0,0.0,0.0,0.0,0.0,0.0,0.0,0.0,0.0,0.0,0.0,0.0,0.0,0.0,0.0,0.0,0.0,0.0,0.0,0.0,0.0,0.0,0.0,0.0,0.0,0.0,0.0,0.0,0.0,0.0,0.0,0.0,0.0,0.0,0.0,0.0,0.0,0.0,0.0,0.0,0.0,0.0,0.0,0.0,0.0,0.0,0.0,0.0,0.0,0.0,0.0,0.0,0.0,0.0,0.0,0.0,0.0,0.0,0.0,0.0,0.0,0.0,0.0,0.0,0.0,0.0,0.0,0.0,0.0,0.0,0.0,0.0,0.0,0.0,0.0,0.0,0.0,0.0,0.0,0.0,0.0,0.0,-0.5305,-0.6361,0.0,-0.9034,-1.0064,-1.0762,-1.0403,-0.9752,-0.8654,0.0,0.0,0.0,0.0,0.0,0.0,0.0,0.0,0.0,0.0,0.0,0.0,0.0,0.0,0.0,0.0,0.0,0.0,0.0,0.0,0.0,0.0,0.0,0.0,0.0,0.0,0.0,0.0,0.0,0.0,0.0,0.0,0.0,0.0,0.0,0.0,0.0,0.0,0.0,0.0,0.0,0.0,0.0,0.0,0.0,0.0,0.0,0.0,0.0,0.0,0.0,0.0,0.0,0.0,0.0,0.0,0.0,0.0,0.0,0.0,0.0,0.0,0.0,0.0,0.0,0.0,0.0,0.0,0.0,0.0,0.0,0.0,0.0,0.0,0.0,0.0,0.0,0.0,0.0,0.0,0.0,0.0,0.0,0.0,0.0,0.0,0.0,0.0,0.0,0.0,0.0,0.0,0.0,0.0,0.0,0.0,0.0,0.0,0.0,0.0,0.0,0.0,-0.4214,-0.5393,-0.6664,0.0,-0.9375,-1.0364,-1.1065,-1.0784,-1.0025,-0.8673,0.0,0.0,0.0,0.0,0.0,0.0,0.0,0.0,0.0,0.0,0.0,0.0,0.0,0.0,0.0,0.0,0.0,0.0,0.0,0.0,0.0,0.0,0.0,0.0,0.0,0.0,0.0,0.0,0.0,0.0,0.0,0.0,0.0,0.0,0.0,0.0,0.0,0.0,0.0,0.0,0.0,0.0,0.0,0.0,0.0,0.0,0.0,0.0,0.0,0.0,0.0,0.0,0.0,0.0,0.0,0.0,0.0,0.0,0.0,0.0,0.0,0.0,0.0,0.0,0.0,0.0,0.0,0.0,0.0,0.0,0.0,0.0,0.0,0.0,0.0,0.0,0.0,0.0,0.0,0.0,0.0,0.0,0.0,0.0,0.0,0.0,0.0,0.0,0.0,0.0,0.0,0.0,0.0,0.0,0.0,0.0,0.0,0.0,0.0,0.0,0.0,0.0,-0.4236,-0.6184,-0.7774,-0.8813,-1.0051,-1.1065,-1.1756,-1.0293,-0.9106,0.0,0.0,0.0,0.0,0.0,0.0,0.0,0.0,0.0,0.0,0.0,0.0,0.0,0.0,0.0,0.0,0.0,0.0,0.0,0.0,0.0,0.0,0.0,0.0,0.0,0.0,0.0,0.0,0.0,0.0,0.0,0.0,0.0,0.0,0.0,0.0,0.0,0.0,0.0,0.0,0.0,0.0,0.0,0.0,0.0,0.0,0.0,0.0,0.0,0.0,0.0,0.0,0.0,0.0,0.0,0.0,0.0,0.0,0.0,0.0,0.0,0.0,0.0,0.0,0.0,0.0,0.0,0.0,0.0,0.0,0.0,0.0,0.0,0.0,0.0,0.0,0.0,0.0,0.0,0.0,0.0,0.0,0.0,0.0,0.0,0.0,0.0,0.0,0.0,0.0,0.0,0.0,0.0,0.0,0.0,0.0,0.0,0.0,0.0,0.0,0.0,0.0,0.0,-0.5234,-0.6756,-0.8276,-0.981,-1.0885,-1.146,-1.1379,-1.109,-1.0153,-0.83,0.0,0.0,0.0,0.0,0.0,0.0,0.0,0.0,0.0,0.0,0.0,0.0,0.0,0.0,0.0,0.0,0.0,0.0,0.0,0.0,0.0,0.0,0.0,0.0,0.0,0.0,0.0,0.0,0.0,0.0,0.0,0.0,0.0,0.0,0.0,0.0,0.0,0.0,0.0,0.0,0.0,0.0,0.0,0.0,0.0,0.0,0.0,0.0,0.0,0.0,0.0,0.0,0.0,0.0,0.0,0.0,0.0,0.0,0.0,0.0,0.0,0.0,0.0,0.0,0.0,0.0,0.0,0.0,0.0,0.0,0.0,0.0,0.0,0.0,0.0,0.0,0.0,0.0,0.0,0.0,0.0,0.0,0.0,0.0,0.0,0.0,0.0,0.0,0.0,0.0,0.0,0.0,0.0,0.0,0.0,0.0,0.0,0.0,0.0,0.0,0.0,0.0,-0.5832,-0.7671,-0.9418,-1.098,-1.2235,-1.2703,-1.2003,-1.1955,-1.0955,-0.8551,0.0,0.0,0.0,0.0,0.0,0.0,0.0,0.0,0.0,0.0,0.0,0.0,0.0,0.0,0.0,0.0,0.0,0.0,0.0,0.0,0.0,0.0,0.0,0.0,0.0,0.0,0.0,0.0,0.0,0.0,0.0,0.0,0.0,0.0,0.0,0.0,0.0,0.0,0.0,0.0,0.0,0.0,0.0,0.0,0.0,0.0,0.0,0.0,0.0,0.0,0.0,0.0,0.0,0.0,0.0,0.0,0.0,0.0,0.0,0.0,0.0,0.0,0.0,0.0,0.0,0.0,0.0,0.0,0.0,0.0,0.0,0.0,0.0,0.0,0.0,0.0,0.0,0.0,0.0,0.0,0.0,0.0,0.0,0.0,0.0,0.0,0.0,0.0,0.0,0.0,0.0,0.0,0.0,0.0,0.0,0.0,0.0,0.0,0.0,0.0,0.0,0.0,-0.6146,-0.8797,-1.0998,-1.2223,-1.3707,-1.4203,-1.3133,-1.2636,-1.1435,-0.9087,0.0,0.0,0.0,0.0,0.0,0.0,0.0,0.0,0.0,0.0,0.0,0.0,0.0,0.0,0.0,0.0,0.0,0.0,0.0,0.0,0.0,0.0,0.0,0.0,0.0,0.0,0.0,0.0,0.0,0.0,0.0,0.0,0.0,0.0,0.0,0.0,0.0,0.0,0.0,0.0,0.0,0.0,0.0,0.0,0.0,0.0,0.0,0.0,0.0,0.0,0.0,0.0,0.0,0.0,0.0,0.0,0.0,0.0,0.0,0.0,0.8515,0.0,0.0,0.0,0.0,0.0,0.0,0.0,0.0,0.0,0.0,0.0,0.0,0.0,0.0,0.0,0.0,0.0,0.0,0.0,0.0,0.0,0.0,0.0,0.0,0.0,0.0,0.0,0.0,0.0,0.0,0.0,0.0,0.0,0.0,0.0,0.0,0.0,0.0,0.0,0.0,0.0,-0.6762,-0.9579,-1.1814,-1.2824,-1.3607,-1.3663,-1.2711,-1.2162,-1.093,-0.8688,0.0,0.0,0.0,0.0,0.0,0.0,0.0,0.0,0.0,0.0,0.0,0.0,0.0,0.0,0.0,0.0,0.0,0.0,0.0,0.0,0.0,0.0,0.0,0.0,0.0,0.0,0.0,0.0,0.0,0.0,0.0,0.0,0.0,0.0,0.0,0.0,0.0,0.0,0.0,0.0,0.0,0.0,0.0,0.0,0.0,0.0,0.0,0.0,0.0,0.0,0.0,0.0,0.0,0.0,0.0,0.0,0.0,0.0,0.0,0.0,0.0,0.6792,0.0,0.0,0.0,0.0,0.0,0.0,0.0,0.0,0.0,0.0,0.0,0.0,0.0,0.0,0.0,0.0,0.0,0.0,0.0,0.0,0.0,0.0,0.0,0.0,0.0,0.0,0.0,0.0,0.0,0.0,0.0,0.0,0.0,0.0,0.0,0.0,0.0,0.0,0.0,0.0,-0.769,-1.0343,-1.2474,-1.3428,-1.3811,-1.3606,-1.2644,-1.2101,-1.0971,-0.9097,-0.8473,0.0,0.0,0.0,0.0,0.0,0.0,0.0,0.0,0.0,0.0,0.0,0.0,0.0,0.0,0.0,0.0,0.0,0.0,0.0,0.0,0.0,0.0,0.0,0.0,0.0,0.0,0.0,0.0,0.0,0.0,0.0,0.0,0.0,0.0,0.0,0.0,0.0,0.0,0.0,0.0,0.0,0.0,0.0,0.0,0.0,0.0,0.0,0.0,0.0,0.0,0.0,0.0,0.0,0.0,2.306,2.4238,2.2661,1.6937,0.8327,0.9031,0.6505,0.2207,0.0,0.0,0.0,0.0,0.0,0.0,0.0,0.0,0.0,0.0,0.0,0.0,0.0,0.0,0.0,0.0,0.0,0.0,0.0,0.0,0.0,0.0,0.0,0.0,0.0,-0.3728,-0.5272,0.0,0.0,0.0,0.0,0.0,0.0,0.0,0.0,0.0,0.0,0.0,0.0,-0.8502,-1.0925,-1.2787,-1.3558,-1.3741,-1.3435,-1.2407,-1.1876,-1.1007,-0.9568,-0.8839,-0.8303,0.0,0.0,0.0,0.0,0.0,0.0,0.0,0.0,0.0,0.0,0.0,0.0,0.0,0.0,0.0,0.0,0.0,0.0,0.0,0.0,0.0,0.0,0.0,0.0,0.0,0.0,0.0,0.0,0.0,0.0,0.0,0.0,0.9377,0.9659,0.0,0.0,0.0,0.0,0.0,0.0,0.0,0.0,0.0,0.0,0.0,0.0,0.0,0.0,2.2551,2.3669,2.484,2.6082,2.6763,2.7093,2.6993,2.4996,2.0472,1.4159,1.3709,0.0,-0.1679,0.3355,0.0,0.0,0.0,0.0,0.0,0.0,0.0,0.0,0.0,0.0,0.0,0.0,0.0,0.0,0.0,0.0,0.0,0.0,0.0,0.0,0.0,0.0,-0.149,-0.2803,-0.4344,-0.5413,0.0,-0.541,-0.5621,-0.5638,0.0,0.0,0.0,0.0,0.0,0.0,0.0,0.0,-0.8577,-1.0941,-1.2485,-1.2207,-1.2564,-1.2351,-1.1308,-1.0716,-0.9993,-0.8985,-0.8821,-0.8773,-0.8824,-0.7978,0.0,0.0,0.0,0.0,0.0,0.0,0.0,0.0,0.0,0.0,0.0,0.0,0.0,0.0,0.0,0.0,0.0,0.0,0.0,0.0,0.0,0.0,0.0,0.0,0.0,0.0,0.0,0.0,0.0,1.0006,1.1267,1.2094,1.1931,1.1597,0.0,0.0,0.0,0.0,0.0,0.0,0.0,0.0,0.0,1.6363,1.8233,1.9924,2.1406,2.2513,2.3647,2.4849,2.6653,2.7758,2.8247,2.7523,2.2891,1.5453,1.622,1.0358,0.0619,0.5362,0.875,1.0971,0.0,0.0,0.0,0.0,0.0,1.4101,1.4428,0.0,0.0,0.0,0.0,0.0,0.0,0.0,0.0,0.0,0.0,0.0,0.0,0.0,0.0,-0.1848,-0.3244,-0.4316,-0.4257,-0.4907,-0.5523,0.0,-0.6019,-0.6224,-0.5877,0.0,0.0,0.0,0.0,0.0,-0.9554,-1.1084,-1.2162,-1.2167,-1.1899,-1.1379,-1.0607,-1.0097,-0.9506,-0.8798,-0.8773,-0.8839,-0.8892,-0.8603,-0.8151,0.0,0.0,0.0,0.0,0.0,0.0,0.0,0.0,0.0,0.0,0.0,0.0,0.0,0.0,0.0,0.0,0.0,0.0,0.0,0.0,0.0,0.0,0.0,0.0,0.0,0.0,0.0,0.0,1.1777,1.3178,1.4594,1.4445,1.4111,0.0,0.0,0.0,0.0,0.0,0.0,1.2059,1.314,1.4132,1.5143,1.6765,1.7987,1.8812,2.009,2.1196,2.2122,2.4513,2.6167,2.7077,2.6914,2.3307,1.7197,1.6688,1.148,0.3495,0.7095,0.9106,0.9817,0.9554,0.9522,0.0,1.0693,1.0772,1.0496,1.1436,1.1165,1.0131,0.8497,0.0,0.615,0.448,0.0,0.0,0.0,0.0,0.1854,0.1426,0.0,-0.0541,-0.1,-0.212,-0.3121,-0.3345,-0.4223,-0.5136,0.0,-0.6464,-0.6954,-0.7063,0.0,0.0,0.0,0.0,-1.0045,-1.0419,-1.1211,-1.1785,-1.1768,-1.1204,-1.0552,-0.9875,-0.95,-0.9079,-0.8521,-0.8655,-0.8838,-0.8952,-0.91,-0.8834,-0.8201,0.0,0.0,0.0,0.0,0.0,0.0,0.0,0.0,0.0,0.0,0.0,0.0,0.0,0.0,0.0,0.0,0.0,0.0,0.0,0.0,0.0,0.0,0.0,0.0,0.0,0.0,0.0,0.0,0.0,1.6922,1.6231,0.0,0.0,0.0,0.0,1.4294,1.3821,1.3509,1.3334,1.304,1.2857,1.2927,1.3768,1.4535,1.5067,1.7261,1.8598,1.9144,2.0924,2.2009,2.2378,2.083,2.0749,2.1478,1.4616,0.909,0.5077,0.6602,0.6964,0.6464,0.5977,0.5869,0.5942,0.5641,0.5378,0.5166,0.5197,0.4779,0.4163,0.3558,0.3253,0.3299,0.3948,0.3584,0.0,0.0,0.1622,0.0999,0.0279,-0.0502,-0.1059,-0.1117,-0.1675,-0.2454,-0.3231,-0.3456,-0.4171,0.0,-0.7137,-0.7671,-0.8925,0.0,0.0,-1.0003,-1.0964,-1.1328,-1.0675,-1.1229,-1.1277,-1.0131,-1.0198,-0.9922,-0.8878,-0.8756,-0.8513,-0.7953,-0.8423,-0.8933,-0.9451,-0.9526,-0.9544,-0.9505,-0.8055,0.0,0.0,0.0,0.0,0.0,0.0,0.0,0.0,0.0,0.0,0.0,0.0,0.0,0.0,0.0,0.0,0.0,0.0,0.0,0.0,0.0,0.0,0.0,0.0,0.0,0.0,0.0,0.0,1.7653,1.8125,0.0,0.0,1.7041,1.599,1.515,1.41,1.3235,1.2523,1.1741,1.1237,1.1237,1.0389,1.0343,1.1088,1.1864,1.2623,1.3424,1.5184,1.6502,1.738,1.6866,1.6321,1.564,1.2016,0.8011,0.3959,0.3409,0.3663,0.4261,0.2495,0.1806,0.165,0.0971,0.0689,0.0752,0.1236,0.1248,0.1136,0.1509,0.13,0.1089,0.1954,0.163,0.0987,0.0769,0.0555,0.0336,0.0056,-0.0168,-0.0392,-0.0392,-0.134,-0.2286,-0.2565,-0.3724,-0.5136,-0.6468,-0.6781,-0.7252,-0.8582,-0.8974,-0.9205,-0.9364,-0.9917,-1.0294,-1.0327,-1.031,-1.025,-1.0102,-0.9932,-0.9443,-0.8536,-0.8435,-0.813,-0.737,-0.7863,-0.8439,-0.8958,-0.9343,-0.9573,-0.9602,-0.9075,-0.8029,0.0,0.0,0.0,0.0,0.0,0.0,0.0,0.0,0.0,0.0,0.0,0.0,0.0,0.0,0.0,0.0,0.0,0.0,0.0,0.0,0.0,0.0,0.0,0.0,0.0,0.0,1.7791,1.826,1.9067,1.9458,1.9111,1.8397,1.7359,1.606,1.4817,1.3525,1.2123,1.0765,0.9878,0.9511,0.8059,0.7339,0.7593,0.7895,0.8107,0.8433,0.9989,1.1234,1.2111,1.1695,1.0905,0.9799,0.7598,0.4807,0.1561,-0.0069,-0.0334,0.0191,-0.1332,-0.2202,-0.2678,-0.3171,-0.337,-0.3205,-0.2387,-0.1885,-0.1509,-0.0944,-0.0859,-0.0773,0.0357,0.0174,-0.028,0.0224,0.0,-0.0392,-0.0392,-0.056,-0.0727,-0.0727,-0.1507,-0.2341,-0.2837,-0.4103,-0.5479,-0.6745,-0.6966,-0.7395,-0.8707,-0.921,-0.9449,-0.9546,-0.9768,-0.9955,-1.0049,-1.0049,-1.0021,-0.9882,-0.987,-0.9465,-0.8386,-0.8312,-0.791,-0.7041,-0.7572,-0.8077,-0.8398,-0.8839,-0.914,-0.9281,-0.8922,-0.8181,-0.7143,0.0,0.0,0.0,0.0,0.0,0.0,0.0,0.0,0.0,0.0,0.0,0.0,0.0,0.0,0.0,0.0,0.0,0.0,0.0,0.0,0.0,0.0,0.0,1.417,1.5874,1.7487,1.8699,1.8928,1.9072,1.9199,1.878,1.8056,1.6934,1.6015,1.447,1.2204,1.0323,0.8846,0.7868,0.6802,0.5718,0.4696,0.561,0.5517,0.4503,0.5484,0.6214,0.6619,0.5106,0.4662,0.4785,0.1556,-0.052,-0.1809,-0.3483,-0.4722,-0.5503,-0.5399,-0.5858,-0.6654,-0.6719,-0.6654,-0.6527,-0.5686,-0.4821,-0.4015,-0.4015,-0.335,-0.2273,-0.0736,-0.0646,-0.0838,0.0614,-0.0056,-0.1118,-0.1118,-0.1675,-0.2174,-0.2174,-0.2232,-0.2615,-0.4097,-0.4426,-0.5136,-0.7283,-0.7723,-0.8143,-0.9555,-0.9762,-0.9969,-1.0669,-1.0762,0.0,-0.9865,-1.0565,-1.0637,-0.935,-1.0043,-0.9947,-0.8445,-0.8327,-0.7961,-0.7083,-0.7572,-0.7878,-0.7919,-0.8102,-0.8351,-0.8707,-0.7621,-0.7386,-0.8024,0.0,0.0,0.0,0.0,0.0,0.0,0.0,0.0,0.0,0.0,0.0,0.0,0.0,0.0,0.0,0.0,0.0,0.0,0.0,0.0,0.0,0.0,1.3536,1.4134,1.6186,1.7597,1.7408,1.8186,1.8429,1.7654,1.7221,1.6114,1.4066,1.3419,1.2263,1.0173,0.8912,0.8146,0.7969,0.6241,0.4771,0.3781,0.3284,0.2463,0.1233,0.1534,0.1751,0.1894,0.1489,0.0929,0.0229,-0.0694,-0.168,-0.261,-0.3876,-0.4432,-0.4599,-0.5924,-0.6179,-0.5815,-0.6461,-0.6334,-0.5752,-0.5491,-0.5226,-0.4891,-0.4215,-0.3737,-0.3256,-0.2211,-0.1882,-0.1785,-0.1394,-0.1562,-0.1898,-0.1898,-0.2063,-0.2174,-0.2174,-0.2619,-0.3229,-0.4207,-0.5253,-0.6357,-0.7503,-0.8156,-0.8639,-0.9008,-0.9061,-0.9159,-0.9309,0.0,0.0,-0.9762,-0.9585,-0.9482,-0.9628,-0.9849,-0.9655,-0.866,-0.8662,-0.8416,0.0,-0.7405,-0.7447,-0.7878,-0.7944,-0.8375,-0.9279,-0.8747,-0.8594,0.0,0.0,0.0,0.0,0.0,0.0,0.0,0.0,0.0,0.0,0.0,0.0,0.0,0.0,0.0,0.0,0.0,0.0,0.0,0.0,0.0,0.0,1.1762,1.2569,1.3361,1.5628,1.7093,1.6826,1.7306,1.7445,1.6749,1.5807,1.4527,1.265,1.1946,1.0714,0.8884,0.8198,0.7741,0.7442,0.6316,0.5123,0.4101,0.3515,0.2347,0.0756,0.0739,0.0488,0.0,0.0,-0.0314,0.0,-0.0941,-0.1477,-0.2376,-0.3062,-0.3661,0.0,0.0,0.0,0.0,0.0,-0.5815,-0.5359,-0.4954,-0.4821,-0.4755,-0.4151,-0.3895,-0.369,-0.3252,-0.2996,-0.2734,-0.2393,-0.248,-0.2676,-0.2676,-0.2899,-0.3178,-0.3178,-0.3727,-0.444,-0.5148,-0.6244,-0.7289,-0.799,0.0,0.0,-0.8804,-0.8804,-0.8804,-0.8804,-0.8804,-0.8962,0.0,-0.9263,-0.9361,-0.9762,-0.9814,-0.9604,-0.9041,-0.9044,0.0,0.0,0.0,-0.7846,-0.7885,-0.8291,0.0,0.0,0.0,0.0,0.0,0.0,0.0,0.0,-1.0196,-1.0846,0.0,0.0,0.0,0.0,0.0,0.0,0.0,0.0,0.0,0.0,0.0,0.0,0.0,0.0,0.0,0.0,1.1053,1.1141,1.2216,1.435,1.5962,1.6321,1.6189,1.6038,1.5958,1.4422,1.3044,1.1959,1.0953,0.9565,0.7715,0.0,0.0,0.0,0.0,0.6226,0.5139,0.5139,0.4046,0.2026,0.1894,0.1221,0.0163,0.008,0.0,0.0,0.0,-0.0549,-0.1411,-0.1568,-0.2775,-0.4569,-0.5345,-0.5498,-0.5428,-0.5428,-0.5359,0.0,0.0,0.0,0.0,-0.4015,-0.4004,-0.3972,-0.4102,-0.3947,-0.3592,-0.2934,-0.3099,-0.3471,-0.3458,-0.3956,-0.4515,-0.457,-0.5058,-0.5706,-0.6529,-0.7235,-0.7937,-0.8646,-0.8804,-0.8804,-0.8804,-0.8804,-0.8804,-0.8804,-0.8804,0.0,-0.891,-0.9413,-0.9814,-0.9917,0.0,0.0,-0.9505,-0.9524,-0.9096,-0.8038,-0.8562,-0.8626,-0.8047,-0.8934,-0.9588,-0.9824,-0.9987,-1.0624,-1.1685,-1.1536,-1.1752,-1.2266,-1.1145,-1.1647,0.0,0.0,0.0,0.0,0.0,0.0,0.0,0.0,0.0,0.0,0.0,0.0,0.0,0.0,0.0,1.15,1.1513,1.1703,1.229,1.2999,1.3508,1.3696,1.3857,1.3832,1.3447,1.2535,1.141,0.9938,0.8903,0.7451,0.5408,0.6221,0.0,0.5406,0.6364,0.6334,0.538,0.538,0.4673,0.3262,0.0,0.0,0.1415,0.048,0.0,0.0,0.0,-0.0079,-0.0392,-0.1254,-0.2775,-0.4569,-0.5345,-0.5498,-0.5428,-0.5428,-0.4888,-0.4217,-0.4082,-0.4015,-0.4015,-0.4015,-0.4398,-0.4874,-0.4874,-0.4761,0.0,-0.437,-0.4375,-0.4387,-0.4324,-0.4405,-0.4625,-0.5164,-0.5433,-0.5869,-0.7176,-0.7616,-0.7937,-0.8646,-0.8804,-0.8804,-0.8804,-0.8804,-0.8804,-0.8804,-0.8804,-0.9008,-0.951,-0.971,-1.002,-1.0568,-1.1116,-1.1012,-1.0124,-1.014,-0.9755,-0.8631,-0.8749,-0.8829,-0.8701,-0.9868,-1.0551,-1.0609,-1.1029,-1.1551,-1.21,-1.2039,-1.2308,-1.2792,-1.3022,-1.3604,0.0,0.0,0.0,0.0,0.0,0.0,0.0,0.0,0.0,0.0,0.0,1.0555,1.0481,0.0,1.141,1.1347,1.1092,1.0908,1.094,1.1473,1.2216,1.3086,1.2611,1.221,1.2137,1.0509,0.9175,0.8599,0.7157,0.5854,0.4854,0.5408,0.5608,0.5267,0.6415,0.6718,0.6248,0.6186,0.5569,0.4461,0.3251,0.2347,0.1759,0.0568,-0.0318,-0.0784,-0.0784,-0.1097,-0.1643,-0.2737,-0.339,-0.3832,-0.528,-0.5674,-0.5467,-0.5456,-0.4821,-0.3949,-0.348,-0.3011,-0.2678,-0.2678,-0.3247,-0.3994,-0.4389,-0.4753,-0.5009,-0.4931,-0.4806,-0.4674,-0.4596,-0.4577,-0.468,-0.5324,-0.576,-0.6362,-0.745,-0.7996,-0.8374,-0.8752,-0.8804,-0.8804,-0.8804,-0.8804,-0.8804,-0.8804,-0.8804,-0.891,-0.9263,-0.9309,-0.9562,-1.0218,-1.0618,-1.0747,-1.0516,-1.0252,-1.013,-1.0237,-0.9827,-0.9691,-1.0059,-1.1003,-1.1524,-1.1524,-1.2008,-1.2334,-1.2559,-1.2559,-1.2666,-1.2929,-1.319,-1.3836,0.0,0.0,0.0,0.0,0.0,0.0,0.0,0.0,0.859,0.9578,1.0649,1.1443,1.1412,1.1726,1.1817,1.1175,1.0572,1.0,0.9573,1.0226,1.1201,1.2349,1.1573,1.1057,1.1359,0.8968,0.7534,0.777,0.6057,0.4986,0.4936,0.5214,0.5415,0.5445,0.6517,0.7139,0.7139,0.7027,0.6486,0.5678,0.4182,0.301,0.208,0.0408,-0.0799,-0.1646,-0.1802,-0.2347,-0.3202,-0.4059,-0.394,-0.3415,-0.5058,-0.5663,-0.5654,-0.5471,-0.4724,-0.3708,-0.295,-0.2075,-0.1273,-0.1273,-0.2076,-0.3078,-0.3816,-0.4543,-0.5169,-0.5138,-0.4938,-0.4728,-0.4697,-0.4575,-0.468,-0.5546,-0.6145,-0.6858,-0.7723,-0.8374,-0.8804,-0.8804,-0.8804,-0.8804,-0.8804,-0.8804,-0.8804,-0.8804,-0.8804,-0.8804,-0.8804,-0.891,-0.9211,-0.9762,-1.0012,-1.0415,-1.0965,-1.0364,-1.0466,-1.1566,-1.0934,-1.0819,-1.1479,-1.2044,-1.24,-1.253,-1.2791,-1.2881,-1.2881,-1.2881,-1.2881,-1.2881,-1.3017,-1.3658,0.6977,0.6656,0.6339,0.6071,0.5932,0.6234,0.0,0.0,0.8473,0.9125,1.0938,1.2061,1.1004,1.1678,1.2073,1.1212,1.0814,1.0296,0.9597,0.9832,0.984,0.9339,0.9967,1.0515,1.0545,0.8837,0.7761,0.7778,0.6856,0.5885,0.4939,0.6075,0.6294,0.5445,0.6517,0.7139,0.7139,0.7126,0.6974,0.6691,0.4578,0.3483,0.3086,0.0,-0.1493,-0.1646,-0.2579,-0.2968,-0.3124,-0.3202,-0.3742,-0.4503,-0.4631,-0.5179,-0.5945,-0.5667,-0.4516,-0.2977,-0.2769,-0.2075,-0.1273,-0.1273,-0.2476,-0.3882,-0.3949,-0.461,-0.5308,-0.5169,-0.5016,-0.4863,-0.4724,-0.4575,-0.4846,-0.615,-0.6534,-0.6966,-0.8374,-0.8752,-0.8804,-0.8804,-0.8804,-0.8804,-0.8804,-0.8804,-0.8804,-0.8804,-0.8804,-0.8804,-0.8804,-0.9309,-0.971,-0.9814,-1.0864,-1.1616,-1.1665,-1.1065,-1.0762,-1.0914,-1.1373,-1.1938,-1.2599,-1.2773,-1.3072,-1.3601,-1.3122,-1.2881,-1.2881,-1.2881,-1.2881,-1.2929,-1.3467,-1.405,0.7249,0.6433,0.5753,0.0,0.6024,0.601,0.7466,0.7889,0.8235,0.9337,1.0647,1.1407,1.0827,1.1455,1.1753,0.0,1.0662,1.0187,0.9043,0.9411,0.9328,0.818,0.8436,0.8783,0.8842,0.7736,0.6945,0.6945,0.6064,0.5391,0.4941,0.5628,0.5841,0.5447,0.6517,0.7139,0.7139,0.7058,0.7031,0.6964,0.4572,0.3461,0.3386,0.0574,-0.1367,-0.2581,-0.4219,-0.4608,-0.4062,-0.4688,-0.4844,-0.4761,-0.5334,-0.5775,-0.6129,-0.5823,-0.4924,-0.3836,-0.3599,-0.3018,-0.2189,-0.2154,-0.2945,-0.4015,-0.4015,-0.4686,-0.5415,-0.5284,-0.5159,-0.5009,-0.486,-0.4711,-0.4851,-0.5736,-0.6312,-0.6912,-0.7943,-0.848,-0.8804,-0.8804,-0.8804,-0.8804,-0.8804,-0.8804,-0.8804,-0.8804,-0.8804,-0.8804,-0.8804,-0.9061,-0.951,-1.0312,-1.0864,-1.1575,-1.2353,-1.1774,-1.1575,-1.1999,-1.2258,-1.2686,-1.3369,-1.3732,-1.4061,-1.4329,-1.4061,-1.3789,-1.342,-1.342,-1.3238,-1.2929,-1.3152,-1.36,0.7078,0.6181,0.0,0.6154,0.578,0.5656,0.7033,0.7175,0.7509,0.903,0.9933,1.0448,1.0444,1.1078,1.1392,1.0615,1.0571,1.007,0.8541,0.8874,0.8717,0.7236,0.7053,0.7126,0.7311,0.6692,0.6338,0.6338,0.5716,0.536,0.536,0.5673,0.5891,0.5891,0.6694,0.7139,0.7139,0.7037,0.684,0.6546,0.4359,0.3244,0.299,0.033,-0.1859,-0.3671,-0.5473,-0.5867,-0.5237,-0.5944,-0.5867,-0.5237,-0.6022,-0.6338,-0.6234,-0.601,-0.538,-0.4525,-0.4341,-0.365,-0.2853,-0.2795,-0.3301,-0.4015,-0.4015,-0.4686,-0.5428,-0.5428,-0.525,-0.5098,-0.4955,-0.4806,-0.4822,-0.5368,-0.6036,-0.6804,-0.7557,-0.8262,-0.8804,-0.8804,-0.8804,-0.8804,-0.8804,-0.8804,-0.8804,-0.8804,-0.8804,-0.8804,-0.8804,-0.8804,-0.9309,-1.0661,-1.0813,-1.1384,-1.2774,-1.2403,-1.2344,-1.2881,-1.3016,-1.3358,-1.4003,-1.4329,-1.4514,-1.4698,-1.4387,-1.3967,-1.3552,-1.3552,-1.3334,-1.2881,-1.2881,-1.3238,0.6442,0.0,0.5645,0.4915,0.4745,0.4912,0.5715,0.5733,0.6087,0.7873,0.886,0.9508,0.9677,1.0608,1.1055,1.0248,1.0374,1.0014,0.841,0.8238,0.7628,0.6072,0.5878,0.594,0.0,0.6173,0.6338,0.6338,0.6536,0.6619,0.6619,0.6893,0.7051,0.7051,0.7051,0.7139,0.7139,0.7136,0.6443,0.519,0.407,0.2882,0.1543,-0.1582,-0.3597,-0.4688,-0.5786,-0.6261,-0.6261,-0.6261,-0.6261,-0.6261,-0.6261,-0.6338,-0.6335,-0.6328,-0.5609,-0.4646,-0.4528,-0.3774,-0.2931,-0.2927,-0.3421,-0.4015,-0.4015,-0.4686,-0.5428,-0.5428,-0.525,-0.5098,-0.4955,-0.4806,-0.4822,-0.5368,-0.6036,-0.6804,-0.7557,-0.8262,-0.8804,-0.8804,-0.8804,-0.8804,-0.8804,-0.8804,-0.8804,-0.8804,-0.8804,-0.8804,-0.8804,-0.8804,-0.9309,-1.0661,-1.0813,-1.1384,-1.2774,-1.2881,-1.2881,-1.2881,-1.3467,-1.405,-1.4652,-1.4143,-1.4097,-1.4709,-1.3573,-1.2929,-1.2929,-1.2929,-1.2929,-1.2881,-1.2881,-1.3238,0.6059,0.0,0.506,0.4876,0.4765,0.4919,0.5661,0.5626,0.5941,0.7558,0.8257,0.8738,0.9253,0.985,1.0234,1.0141,0.9691,0.9144,0.8312,0.7686,0.6894,0.5794,0.5833,0.0,0.0,0.0,0.0,0.6254,0.6532,0.6702,0.6702,0.698,0.7139,0.7139,0.7139,0.6694,0.5983,0.5983,0.53,0.4066,0.2941,0.1398,-0.0568,-0.2291,-0.3671,-0.4766,-0.5864,-0.6338,-0.6338,-0.6338,-0.6338,-0.6338,-0.6338,-0.6338,-0.6338,-0.6338,-0.6069,-0.5771,-0.5554,-0.5252,-0.4893,-0.4731,-0.4855,-0.508,-0.4986,-0.516,-0.5428,-0.5428,-0.5325,-0.525,-0.5098,-0.4952,-0.4862,-0.493,-0.581,-0.6642,-0.6912,-0.7943,-0.8804,-0.8804,-0.8804,-0.8804,-0.8804,-0.8804,-0.8804,-0.8804,-0.8804,-0.8804,-0.8804,-0.8804,-0.9309,-1.0661,-1.0813,-1.1384,-1.2774,-1.2881,-1.2881,-1.2881,-1.3467,-1.3909,-1.4097,-1.4687,-1.5084,-1.5276,-1.4915,-1.4514,-1.4071,-1.3695,-1.3286,-1.2881,-1.2881,-1.3017,0.5827,0.502,0.4314,0.4403,0.4357,0.4408,0.4931,0.5106,0.5546,0.702,0.7471,0.7915,0.886,0.9101,0.9266,0.9483,0.8865,0.828,0.7827,0.7278,0.6623,0.5797,0.5833,0.5932,0.0,0.0,0.0,0.6247,0.6124,0.6031,0.6031,0.593,0.5888,0.5888,0.5888,0.5513,0.477,0.477,0.4108,0.2909,0.0988,-0.0567,-0.1623,-0.3002,-0.4062,-0.4766,-0.5864,-0.6338,-0.6338,-0.6338,-0.6338,-0.6338,-0.6338,-0.6338,-0.6338,-0.6338,-0.6338,-0.6247,-0.6146,-0.6074,-0.5996,-0.5806,-0.5677,-0.5572,-0.5471,-0.5406,-0.5428,-0.5428,-0.5428,-0.5325,-0.5172,-0.5064,-0.4945,-0.4741,-0.5741,-0.6678,-0.6603,-0.7777,-0.8804,-0.8804,-0.8804,-0.8804,-0.8804,-0.8804,-0.8804,-0.8804,-0.8804,-0.8804,-0.8804,-0.9008,-0.9562,-1.0661,-1.1023,-1.1642,-1.2774,-1.2881,-1.2881,-1.2881,-1.3467,-1.392,-1.4097,-1.4641,-1.505,-1.5276,-1.4869,-1.4422,-1.4071,-1.3647,-1.3286,-1.2881,-1.2881,-1.3017,0.5622,0.4507,0.363,0.3564,0.3564,0.3559,0.361,0.4024,0.4842,0.6298,0.6568,0.7052,0.0,0.0,0.8214,0.8352,0.7951,0.7458,0.695,0.6886,0.6614,0.0,0.0,0.0,0.0,0.0,0.0,0.6193,0.0,0.4861,0.4858,0.4009,0.3565,0.3565,0.3561,0.3527,0.3459,0.3282,0.2648,0.1506,-0.1632,-0.2668,-0.1862,-0.3791,-0.4766,-0.4844,-0.5867,-0.6338,-0.6338,-0.6338,-0.6338,-0.6338,-0.6338,-0.6338,-0.6338,-0.6338,-0.6338,-0.6338,-0.6338,-0.6166,-0.604,-0.603,-0.584,-0.561,-0.5603,-0.5494,-0.5439,-0.5439,-0.5432,-0.5394,-0.5243,-0.5135,-0.506,-0.4897,-0.59,-0.6849,-0.6703,-0.7788,-0.8804,-0.8804,-0.8804,-0.8804,-0.8804,-0.8804,-0.8804,-0.8804,-0.8804,-0.8804,-0.8804,-0.9361,-1.0064,-1.072,-1.1384,-1.2107,-1.2832,-1.2881,-1.2881,-1.2881,-1.3467,-1.405,-1.4617,-1.4097,-1.4097,-1.4652,-1.3515,-1.2978,-1.2978,-1.2949,-1.291,-1.291,-1.2978,-1.3298,0.4457,0.3941,0.3595,0.2964,0.2764,0.2913,0.3355,0.3556,0.4139,0.5939,0.6328,0.6694,0.0,0.0,0.0,0.7948,0.7245,0.0,0.6882,0.6549,0.0,0.581,0.0,0.6274,0.621,0.5601,0.0,0.0,0.4997,0.4525,0.3769,0.3612,0.358,0.358,0.361,0.2801,0.1096,-0.058,-0.1558,-0.1876,-0.271,-0.3388,-0.3942,-0.4465,-0.5157,-0.5944,-0.618,-0.6338,-0.6338,-0.6338,-0.6338,-0.6338,-0.6338,-0.6338,-0.6338,-0.6338,-0.6338,-0.6338,-0.6338,-0.6234,-0.6183,-0.6067,-0.5979,-0.5895,-0.5783,-0.5647,-0.5532,-0.5532,-0.545,-0.5547,-0.6147,-0.5721,-0.542,-0.6625,-0.691,-0.7064,-0.7689,-0.8298,-0.8804,-0.8804,-0.8804,-0.8804,-0.8804,-0.8804,-0.8804,-0.8804,-0.8804,-0.8804,-0.8804,-0.9361,-1.0064,-1.072,-1.1425,-1.2089,-1.2822,-1.2881,-1.2881,-1.2881,-1.3467,-1.3695,-1.3382,-1.4061,-1.4329,-1.405,-1.3732,-1.3552,-1.3552,-1.3422,-1.335,-1.335,-1.4195,-1.4695,0.3865,0.3315,0.2887,0.2117,0.1868,0.2022,0.2651,0.3192,0.4084,0.5788,0.6297,0.0,0.7711,0.7314,0.0,0.0,0.0,0.0,0.6275,0.6065,0.5949,0.0,0.6224,0.0,0.5641,0.5122,0.4474,0.0,0.3465,0.323,0.2551,0.2173,0.2015,0.1996,0.154,0.0504,-0.1235,-0.298,-0.3586,-0.3105,-0.4086,-0.4608,-0.4688,-0.5157,-0.5709,-0.6338,0.0,-0.6338,-0.6338,-0.6338,-0.6338,-0.6338,-0.6338,-0.6338,-0.6338,-0.6338,-0.6338,-0.6338,-0.6338,-0.6338,-0.6247,-0.6159,-0.6084,-0.6013,-0.5928,-0.5755,-0.5589,-0.5589,-0.5481,-0.5491,-0.6009,-0.5937,-0.5909,-0.6455,-0.7184,-0.7724,-0.7637,-0.8325,-0.8958,-0.8831,-0.8804,-0.8804,-0.8804,-0.8804,-0.8804,-0.8804,-0.8804,-0.8804,-0.8804,-0.9361,-1.0064,-1.072,-1.1416,-1.208,-1.2822,-1.2881,-1.2881,-1.2881,-1.3238,-1.3372,-1.3286,-1.3705,-1.3884,-1.3815,-1.369,-1.3657,-1.3657,-1.3718,-1.3925,-1.4276,-1.4914,-1.5534,0.3585,0.2703,0.2003,0.1176,0.1057,0.1279,0.1845,0.3021,0.4367,0.5683,0.0,0.6967,0.7668,0.695,0.6237,0.6333,0.0,0.5109,0.5498,0.5557,0.5759,0.6196,0.6187,0.5783,0.5009,0.4708,0.3771,0.1925,0.1537,0.1381,0.1381,0.0352,-0.0264,-0.043,-0.1455,-0.2433,-0.3303,-0.4342,-0.4453,-0.3513,-0.5395,-0.5786,-0.4921,-0.5867,-0.6338,-0.6338,0.0,0.0,-0.6338,-0.6338,-0.6338,-0.6338,-0.6338,-0.6338,-0.6338,-0.6338,-0.6338,-0.6338,-0.6338,-0.6338,-0.6338,-0.6338,-0.6169,-0.6057,-0.6037,-0.5837,-0.5613,-0.5596,-0.5481,-0.5428,-0.5557,-0.6075,-0.6359,-0.5634,-0.7015,-0.8238,-0.7265,-0.8155,-0.905,-0.8858,-0.8804,-0.8804,-0.8804,-0.8804,-0.8804,-0.8804,-0.8804,-0.8804,-0.8804,-0.9361,-1.0064,-1.072,-1.1416,-1.208,-1.2822,-1.2881,-1.2881,-1.2881,-1.2968,-1.3238,-1.3637,-1.3334,-1.3316,-1.3768,-1.3651,-1.3637,-1.3594,-1.411,-1.4669,-1.5279,-1.554,-1.6345,0.2845,0.2439,0.2061,0.0592,0.0647,0.1272,0.1848,0.3023,0.0,0.0,0.6062,0.6594,0.7091,0.6732,0.6309,0.6088,0.575,0.5487,0.547,0.0,0.4843,0.0,0.0,0.0,0.0,0.0,0.0,0.0,0.0,0.0,0.0254,-0.0763,-0.1665,-0.255,-0.358,-0.4279,-0.4401,-0.5485,-0.5944,-0.5786,-0.6103,-0.6183,-0.6025,-0.6183,-0.6338,-0.6338,0.0,0.0,-0.6338,-0.6338,-0.6338,-0.6338,-0.6338,-0.6338,-0.6338,-0.6338,-0.6338,-0.6338,-0.6338,-0.6338,-0.6338,-0.6338,-0.6244,-0.6196,-0.6067,-0.5905,-0.5739,-0.5623,-0.5481,-0.5557,-0.6268,-0.6075,-0.5939,-0.72,-0.7062,-0.6931,-0.794,-0.8534,-0.8871,-0.8818,-0.8804,-0.8804,-0.8804,-0.8804,-0.8804,-0.8804,-0.8804,-0.8804,-0.8804,-0.9361,-1.0064,-1.072,-1.1416,-1.208,-1.2822,-1.2881,-1.2881,-1.2881,-1.3372,-1.3467,-1.3065,-1.3931,-1.41,-1.3581,-1.4032,-1.4145,-1.397,-1.5073,-1.5656,-1.5817,-1.7387,-1.8231,0.3185,0.2537,0.1983,0.0403,0.0573,0.1238,0.1785,0.0,0.0,0.0,0.5869,0.6451,0.6921,0.668,0.0,0.5972,0.5655,0.5246,0.4653,0.4745,0.0,0.0,0.0,0.0,0.0,0.0,0.0,0.0,0.0,0.0,0.0,-0.0997,-0.2283,-0.3901,-0.4401,-0.4999,-0.555,-0.6025,-0.6338,-0.6338,-0.6338,-0.6338,-0.6338,-0.6338,-0.6338,-0.6338,0.0,0.0,-0.6338,-0.6338,-0.6338,-0.6338,-0.6338,-0.6338,-0.6338,-0.6338,-0.6644,-0.7099,-0.7099,-0.7403,-0.7859,-0.7859,-0.748,-0.7065,-0.6817,-0.6714,-0.6541,-0.631,-0.5876,-0.5624,-0.6461,-0.6396,-0.6207,-0.6531,-0.6775,-0.7221,-0.8336,-0.8801,-0.9031,-0.9031,-0.8911,-0.8804,-0.8804,-0.8804,-0.8804,-0.8804,-0.8804,-0.8804,-0.8804,-0.9061,-0.9658,-1.0712,-1.1065,-1.1733,-1.2832,-1.2881,-1.2881,-1.2881,-1.3152,-1.32,-1.2929,-1.3478,-1.3703,-1.3677,-1.4416,-1.4769,-1.4609,-1.6073,-1.6787,-1.6798,-1.8105,-1.8927,0.349,0.2666,0.1842,0.0392,0.0671,0.1427,0.1738,0.2956,0.0,0.0,0.5696,0.6349,0.6768,0.6681,0.6384,0.0,0.5598,0.5079,0.4196,0.4743,0.0,0.0,0.0,0.0,0.0,0.0,0.0,0.0,0.0,0.0,0.0,-0.1468,-0.2895,-0.4983,-0.505,-0.547,-0.6261,-0.6338,-0.6338,-0.6338,-0.6338,-0.6338,-0.6338,-0.6338,-0.6338,-0.6338,0.0,0.0,0.0,-0.6338,-0.6338,-0.6338,-0.6338,-0.6338,-0.6338,-0.6567,-0.7099,-0.7859,-0.8008,-0.8618,-0.9372,-0.9523,-0.8765,-0.7825,-0.7847,-0.7432,-0.6962,-0.6923,-0.621,-0.5557,-0.6268,-0.6396,-0.6268,-0.5557,-0.6459,-0.7685,-0.8365,-0.8921,-0.9283,-0.9283,-0.9098,-0.8898,-0.8898,-0.8844,-0.8804,-0.8804,-0.8804,-0.8804,-0.8804,-0.8804,-0.9263,-1.0466,-1.0712,-1.1384,-1.2774,-1.2881,-1.2881,-1.2881,-1.2881,-1.2881,-1.2881,-1.3162,-1.3471,-1.3915,-1.5014,-1.5547,-1.5489,-1.7046,-1.7852,-1.7852,-1.8608,-1.9254,0.2892,0.223,0.1842,0.0392,0.1062,0.2028,0.184,0.0,0.4751,0.4511,0.5394,0.6221,0.627,0.6623,0.6712,0.0,0.0,0.5505,0.491,0.4344,0.0,0.0,0.0,0.0,0.0,0.0,0.0,0.0,0.0,0.0,0.0,-0.2937,-0.3919,-0.6122,-0.6187,-0.6183,-0.6261,-0.6338,-0.6338,-0.6338,-0.6338,-0.6338,-0.6338,-0.6338,-0.6338,-0.6338,0.0,0.0,0.0,-0.6338,-0.6338,-0.6338,-0.6338,-0.6338,-0.6412,-0.7326,-0.7706,-0.7936,-0.8841,-0.9221,-0.9448,-1.034,-0.9362,-0.7973,-0.8734,-0.7509,-0.6122,-0.6858,-0.6281,-0.5428,-0.5491,-0.5491,-0.5491,-0.5428,-0.6459,-0.7504,-0.7628,-0.8711,-0.9646,-0.9646,-0.9406,-0.9143,-0.9143,-0.8978,-0.8804,-0.8804,-0.8804,-0.8804,-0.8804,-0.8804,-0.9061,-0.9814,-1.0415,-1.1384,-1.2774,-1.2881,-1.2881,-1.2881,-1.2881,-1.2881,-1.2881,-1.3931,-1.449,-1.4328,-1.6022,-1.6834,-1.6627,-1.7954,-1.8608,-1.8608,-1.9371,-1.9747,0.403,0.2885,0.1842,0.0392,0.1118,0.2138,0.184,0.0,0.4364,0.4377,0.4783,0.5346,0.605,0.6087,0.5936,0.0,0.0,0.0,0.4054,0.0,0.0,0.0,0.0,0.0,0.0,0.0,0.0,0.0,0.0,0.0,0.0,-0.353,-0.4528,-0.6261,-0.6338,-0.6338,-0.6338,-0.5631,-0.5315,-0.5315,-0.4686,-0.4688,-0.5315,-0.5315,-0.5709,-0.6338,0.0,0.0,0.0,-0.6338,-0.6338,-0.6338,-0.6338,-0.6338,-0.6416,-0.7403,-0.8161,-0.8841,-0.982,-1.0571,-1.1174,-1.1545,-1.0714,-0.9616,-0.9907,-0.9403,-0.8679,-0.867,-0.7961,-0.7203,-0.7016,-0.6597,-0.6203,-0.6203,-0.7445,-0.8598,-0.8598,-0.9279,-0.9947,-0.9947,-0.9559,-0.9183,-0.9183,-0.8998,-0.8804,-0.8804,-0.9159,-0.9263,-0.8857,-0.9517,-0.9961,-0.9814,-1.0064,-1.0771,-1.2138,-1.2236,-1.2452,-1.2881,-1.2881,-1.3055,-1.342,-1.392,-1.4595,-1.5584,-1.6654,-1.7319,-1.7468,-1.8726,-1.915,-1.8715,-1.9475,-1.9798,0.4776,0.3319,0.1952,0.0895,0.1452,0.2193,0.0,0.3113,0.4028,0.4163,0.4303,0.4648,0.5524,0.5494,0.5395,0.5524,0.0,0.4684,0.3817,0.4432,0.0,0.0,0.0,0.0,0.0,0.0,0.0,0.0,0.0,0.0,0.0,-0.3822,-0.5312,-0.6261,-0.5867,-0.5709,-0.5786,-0.4766,-0.4217,-0.4217,-0.3435,-0.3669,-0.4688,-0.4688,-0.5315,0.0,0.0,0.0,0.0,-0.6338,-0.6338,-0.6338,-0.6338,-0.6338,-0.649,-0.7783,-0.8689,-0.9523,-1.0795,-1.1694,-1.2305,-1.2305,-1.1848,-1.1205,-1.1101,-1.0623,-1.011,-0.9885,-0.9108,-0.822,-0.8067,-0.7567,-0.7111,-0.7111,-0.8221,-0.9274,-0.9274,-0.9825,-1.0247,-1.0247,-0.984,-0.9442,-0.9442,-0.9185,-0.8985,-0.9192,-0.9372,-0.9458,-0.9413,-0.9865,-1.0167,-1.0115,-0.9917,-1.0364,-1.1665,-1.1814,-1.2129,-1.2832,-1.2881,-1.3163,-1.37,-1.3882,-1.4612,-1.5967,-1.6779,-1.7272,-1.7571,-1.8622,-1.8992,-1.8715,-1.9254,-1.9579,0.471,0.3329,0.2174,0.2174,0.2174,0.2302,0.2757,0.3465,0.3934,0.3639,0.4052,0.4391,0.4434,0.4992,0.5391,0.4971,0.5001,0.0,0.4704,0.4945,0.0,0.0,0.0,0.0,0.0,0.0,0.0,0.0,0.0,0.0,0.0,0.0,-0.6261,-0.6338,-0.4919,-0.437,-0.4688,-0.3671,-0.3124,-0.3124,-0.3124,-0.3669,-0.4688,-0.4688,0.0,0.0,0.0,0.0,0.0,-0.6338,-0.6338,-0.6338,-0.6338,-0.6338,-0.6567,-0.8542,-0.9296,-0.9599,-1.1626,-1.2298,-1.2305,-1.2305,-1.2298,-1.2298,-1.2298,-1.0833,-0.9274,-0.9892,-0.912,-0.8027,-0.8027,-0.8027,-0.7962,-0.7962,-0.8683,-0.9274,-0.9274,-0.9977,-1.0618,-1.0618,-1.0314,-1.0107,-1.0107,-0.9568,-0.9446,-1.0144,-0.9461,-0.9263,-1.0618,-0.9614,-0.9309,-1.0669,-1.0218,-1.0364,-1.1665,-1.1814,-1.2129,-1.2832,-1.2881,-1.3066,-1.3486,-1.4063,-1.462,-1.5122,-1.6241,-1.6788,-1.6788,-1.7332,-1.8004,-1.8715,-1.8715,-1.9097,0.5254,0.4147,0.3308,0.2195,0.2383,0.2805,0.2752,0.3401,0.3934,0.3643,0.3751,0.3965,0.4347,0.4268,0.4403,0.4964,0.4725,0.0,0.0,0.0,0.0,0.0,0.0,0.0,0.0,0.0,0.0,0.0,0.0,0.0,0.0,0.0,-0.5634,-0.4133,-0.4135,-0.3979,-0.3593,-0.2581,-0.2113,-0.2113,-0.2113,-0.2581,-0.3593,-0.4373,0.0,0.0,0.0,0.0,0.0,-0.6338,-0.6338,-0.6338,-0.6338,-0.6338,-0.649,-0.7783,-0.8694,-0.9523,-1.0795,-1.1694,-1.2305,-1.2305,-1.2305,-1.2265,-1.2064,-1.1708,-1.1247,-1.107,-1.0129,-0.9091,-0.8922,-0.8877,-0.8877,-0.8877,-0.9524,-1.0174,-1.0174,-1.0428,-1.0624,-1.0624,-1.0321,-1.0114,-1.0114,-0.98,-0.9818,-1.0587,-1.0577,-1.0727,-1.1185,-1.1021,-1.0864,-1.0813,-1.0428,-1.058,-1.1683,-1.2076,-1.2573,-1.326,-1.3574,-1.3997,-1.4552,-1.4759,-1.5319,-1.6252,-1.6616,-1.6955,-1.7343,-1.75,-1.7743,-1.7961,-1.8447,-1.8821,0.6422,0.4998,0.3856,0.3174,0.3014,0.3021,0.3125,0.3381,0.3528,0.3305,0.3262,0.3344,0.3686,0.3701,0.3908,0.4599,0.441,0.4219,0.0,0.0,0.0,0.0,0.0,0.0,0.0,0.0,0.0,0.0,0.0,0.0,0.0,0.0,-0.5318,-0.3196,-0.3511,-0.3435,-0.2737,-0.1567,-0.102,-0.102,-0.102,-0.1722,-0.3124,0.0,0.0,0.0,0.0,0.0,0.0,-0.6338,-0.6338,-0.6338,-0.6338,-0.6338,-0.6416,-0.7403,-0.8466,-0.9448,-1.0415,-1.1465,-1.2224,-1.1848,-1.1694,-1.1662,-1.1563,-1.1709,-1.1917,-1.1663,-1.0889,-1.0151,-0.9984,-0.9866,-0.9786,-0.9786,-1.0238,-1.0624,-1.0624,-1.0624,-1.0624,-1.0624,-1.0414,-1.0281,-1.0281,-1.004,-1.0127,-1.0864,-1.0808,-1.0919,-1.151,-1.126,-1.1068,-1.1121,-1.074,-1.0833,-1.1705,-1.2079,-1.2556,-1.3208,-1.3772,-1.437,-1.4968,-1.4968,-1.5378,-1.6252,-1.6252,-1.6456,-1.6743,-1.7024,-1.7191,-1.7191,-1.8221,-1.8715,0.0,0.5846,0.4077,0.4718,0.3886,0.312,0.362,0.331,0.0,0.2652,0.263,0.263,0.2684,0.3278,0.3802,0.4022,0.4117,0.0,0.0,0.0,0.0,0.0,0.0,0.0,0.0,0.0,0.0,0.0,0.0,0.0,0.0,0.0,0.0,-0.3359,-0.3124,-0.2659,-0.196,-0.0628,0.0,0.0,-0.0079,-0.1175,-0.3124,0.0,0.0,0.0,0.0,0.0,0.0,-0.6338,-0.6338,-0.6338,-0.6338,-0.6338,-0.6416,-0.7403,-0.8466,-0.9448,-1.034,-1.1391,-1.215,-1.1162,-1.0771,-1.0685,-1.0708,-1.1037,-1.1536,-1.1797,-1.1476,-1.1042,-1.1002,-1.0795,-1.0651,-1.0624,-1.0624,-1.0624,-1.0624,-1.0624,-1.0624,-1.0624,-1.0624,-1.0624,-1.0624,-1.0327,-1.0383,-1.1077,-1.0352,-1.0271,-1.1608,-1.0587,-1.0301,-1.1559,-1.1084,-1.0937,-1.16,-1.188,-1.2278,-1.2903,-1.3714,-1.4404,-1.4814,-1.4834,-1.501,-1.54,-1.541,-1.541,-1.541,-1.6093,-1.6436,-1.6482,-1.795,-1.8608,0.8514,0.0,0.5153,0.4645,0.4029,0.3472,0.0,0.292,0.2719,0.2115,0.2008,0.2207,0.2743,0.3015,0.3377,0.4244,0.3948,0.3642,0.0,0.0,0.0,0.0,0.0,0.0,0.0,0.0,0.0,0.0,0.0,0.0,0.0,0.0,0.0,-0.5562,-0.3435,-0.172,-0.0471,-0.0157,0.0,0.0,-0.0863,-0.1879,-0.3124,0.0,0.0,0.0,0.0,0.0,-0.6338,-0.6338,-0.6338,-0.6338,-0.6338,-0.6338,-0.6416,-0.7403,-0.8466,-0.9296,-0.9599,-1.0795,-1.215,-1.1162,-1.0125,-0.9348,-0.9611,-1.0787,-1.2064,-1.1911,-1.177,-1.1557,-1.1109,-1.0942,-1.0835,-1.0678,-1.0624,-1.0624,-1.0624,-1.0624,-1.0624,-1.0624,-1.0624,-1.0624,-1.0624,-1.0501,-1.076,-1.1537,-1.1136,-1.1115,-1.2109,-1.118,-1.0793,-1.1615,-1.0843,-1.0531,-1.1159,-1.2439,-1.3256,-1.3435,-1.4469,-1.5156,-1.5254,-1.5264,-1.5312,-1.541,-1.541,-1.541,-1.541,-1.5584,-1.5642,-1.569,-1.7191,-1.7841,0.8829,0.7201,0.5423,0.4619,0.3901,0.3204,0.2443,0.2117,0.1788,0.1119,0.1204,0.1402,0.1551,0.2036,0.2596,0.0,0.3035,0.0,0.0,0.0,0.0,0.0,0.0,0.0,0.0,0.0,0.0,0.0,0.0,0.0,0.0,0.0,0.0,0.0,-0.3982,-0.2578,-0.0941,-0.0941,-0.0863,-0.0706,-0.1333,-0.2348,-0.3826,0.0,0.0,0.0,0.0,0.0,-0.6338,-0.6338,-0.6338,-0.6338,-0.6338,-0.6338,-0.6416,-0.7403,-0.8466,-0.9372,-0.982,-1.0421,-1.0801,-1.0265,-0.928,-0.8384,-0.858,-1.004,-1.1588,-1.1443,-1.1304,-1.1185,-1.1167,-1.1096,-1.0922,-1.0628,-1.0624,-1.0491,-1.011,-0.9977,-0.9913,-0.9518,-0.9716,-0.9977,-0.9977,-1.0364,-1.0744,-1.1163,-1.1022,-1.1031,-1.1525,-1.1015,-1.078,-1.1182,-1.0695,-1.0499,-1.0854,-1.2046,-1.2941,-1.3312,-1.4273,-1.4991,-1.5352,-1.541,-1.541,-1.541,-1.541,-1.541,-1.541,-1.541,-1.5584,-1.5921,-1.7079,-1.7922,0.8969,0.7187,0.5394,0.4713,0.3628,0.2528,0.1803,0.1162,0.0547,-0.0045,0.0228,0.0508,0.0239,0.0921,0.0,0.0,0.0,0.0,0.0,0.0,0.0,0.0,0.0,0.0,0.0,0.0,0.0,0.0,0.0,0.0,0.0,0.0,0.0,0.0,-0.4608,-0.3986,-0.2507,-0.235,-0.2116,-0.1802,-0.1802,-0.2815,-0.4686,-0.3748,0.0,0.0,0.0,0.0,-0.6338,-0.6338,-0.6338,-0.6338,-0.6338,-0.6338,-0.6412,-0.7629,-0.8542,-0.9448,-1.064,-1.0271,-0.9296,-0.9296,-0.8618,-0.7783,-0.7783,-0.8983,-1.0409,-1.0708,-1.0777,-1.0838,-1.1355,-1.1276,-1.0982,-1.0695,-1.0658,-1.0428,-0.9658,-0.953,-0.9268,-0.8544,-0.9005,-0.953,-0.953,-1.011,-1.0624,-1.0624,-1.0624,-1.0624,-1.0624,-1.0624,-1.0624,-1.0624,-1.0624,-1.0624,-1.0624,-1.1226,-1.1958,-1.2765,-1.3666,-1.4569,-1.5352,-1.541,-1.541,-1.541,-1.541,-1.541,-1.541,-1.5526,-1.5864,-1.6549,-1.7357,-1.8455,0.9115,0.7432,0.5681,0.5267,0.3569,0.1767,0.1046,0.0386,-0.0198,-0.0792,-0.0842,-0.0451,0.0726,0.0587,0.0716,0.0,0.0,0.0,0.0,0.0,0.0,0.0,0.0,0.0,0.0,0.0,0.0,0.0,0.0,0.0,0.0,0.0,0.0,0.0,0.0,-0.4608,-0.43,-0.3437,-0.289,-0.289,-0.289,-0.3515,-0.4686,-0.453,-0.5157,0.0,0.0,-0.6338,-0.6338,-0.6338,-0.6338,-0.6338,-0.6338,-0.6338,-0.649,-0.8389,-0.915,-0.9599,-1.1397,-1.0875,-0.9296,-0.9296,-0.8618,-0.7783,-0.7783,-0.8008,-0.8613,-1.0335,-1.136,-1.2018,-1.1877,-1.1583,-1.1283,-1.0995,-1.0742,-1.0561,-1.0428,-1.0428,-1.0364,-1.0231,-1.0301,-1.0428,-1.0428,-1.0498,-1.0624,-1.0624,-1.0624,-1.0624,-1.0624,-1.0624,-1.0624,-1.0624,-1.0624,-1.0624,-1.0624,-1.0681,-1.1108,-1.1958,-1.3356,-1.4569,-1.5352,-1.541,-1.541,-1.541,-1.541,-1.541,-1.541,-1.6036,-1.6379,-1.6549,-1.7895,-1.8904,0.8581,0.6686,0.4737,0.3927,0.2564,0.0919,-0.1004,-0.1353,-0.1457,-0.2062,-0.1913,-0.1577,0.0,0.0,-0.1139,0.0,0.0,0.0,0.0,0.0,0.0,0.0,0.0,0.0,0.0,0.0,0.0,0.0,0.0,0.0,0.0,0.0,0.0,0.0,0.0,0.0,-0.555,-0.5079,-0.453,-0.3984,-0.3984,-0.453,-0.555,-0.4999,-0.5315,0.0,0.0,-0.6338,-0.6338,-0.6338,-0.6338,-0.6338,-0.6338,-0.6338,-0.6567,-0.8542,-0.997,-1.1025,-1.2003,-1.1323,-1.0115,-1.0115,-0.9442,-0.8613,-0.8613,-0.8988,-0.9588,-1.0559,-1.1162,-1.1556,-1.1801,-1.165,-1.1356,-1.1062,-1.0775,-1.0498,-0.9977,-0.9919,-0.9786,-0.9262,-0.9588,-0.9919,-0.9919,-1.0301,-1.0624,-1.0624,-1.0624,-1.0624,-1.0624,-1.0624,-1.0624,-1.0624,-1.0624,-1.0624,-1.0624,-1.0624,-1.1108,-1.2389,-1.3545,-1.4569,-1.5352,-1.541,-1.541,-1.541,-1.541,-1.5527,-1.5762,-1.6263,-1.6963,-1.7908,-1.8432,-1.954,0.8379,0.62,0.3818,0.2296,0.1278,-0.0104,-0.286,-0.2932,-0.2695,-0.3417,-0.3064,0.0,0.0,-0.2683,0.0,0.0,0.0,0.0,0.0,0.0,0.0,0.0,0.0,0.0,0.0,0.0,0.0,0.0,0.0,0.0,0.0,0.0,0.0,0.0,0.0,0.0,-0.5944,-0.5944,-0.5628,-0.5079,-0.5079,-0.5473,-0.6261,-0.547,-0.555,-0.6338,-0.6338,-0.6338,-0.6338,-0.6338,-0.6338,-0.6338,-0.6338,-0.6567,-0.7173,-0.8765,-1.0576,-1.2305,-1.2305,-1.1768,-1.1087,-1.0864,-1.0265,-0.9669,-0.9669,-1.019,-1.0864,-1.1087,-1.1162,-1.1267,-1.188,-1.175,-1.1456,-1.1162,-1.0875,-1.0514,-0.9734,-0.9594,-0.9396,-0.8742,-0.9134,-0.9594,-0.9594,-1.0174,-1.0624,-1.0624,-1.0624,-1.0624,-1.0624,-1.0624,-1.0624,-1.0624,-1.0624,-1.0624,-1.0624,-1.0624,-1.124,-1.2634,-1.3485,-1.4273,-1.5108,-1.5294,-1.541,-1.541,-1.5508,-1.5732,-1.6125,-1.6746,-1.7806,-1.9089,-1.9297,-2.0434,0.9369,0.6805,0.3625,0.1174,-0.0096,-0.1324,-0.346,-0.358,-0.3543,-0.4696,-0.4288,0.0,0.0,-0.2511,0.0,0.0,0.0,0.0,0.0,0.0,0.0,0.0,0.0,0.0,0.0,0.0,0.0,0.0,0.0,0.0,0.0,0.0,0.0,0.0,0.0,0.0,-0.4844,-0.4844,-0.5315,-0.618,-0.618,-0.6257,-0.6261,-0.6257,-0.6257,-0.6338,-0.6338,-0.6338,-0.6338,-0.6338,-0.6338,-0.6338,-0.6338,-0.7403,-0.9069,-0.9221,-1.0576,-1.2305,-1.2305,-1.2224,-1.207,-1.1087,-1.0783,-1.0714,-1.0714,-1.0708,-1.1013,-1.1922,-1.2224,-1.2218,-1.2278,-1.2058,-1.1764,-1.1463,-1.1176,-1.0889,-1.0551,-1.0498,-1.0491,-1.0428,-1.0428,-1.0498,-1.0498,-1.0561,-1.0624,-1.0624,-1.0624,-1.0624,-1.0624,-1.0624,-1.0624,-1.0624,-1.0624,-1.0624,-1.0624,-1.0624,-1.0989,-1.1834,-1.2634,-1.3433,-1.4264,-1.4991,-1.541,-1.541,-1.5811,-1.6096,-1.6125,-1.7969,-1.8985,-1.9171,-2.0637,-2.165,0.8773,0.5764,0.2457,0.059,-0.1059,-0.2854,-0.521,-0.4901,-0.4477,-0.5564,-0.5083,0.0,0.0,0.0,0.0,0.0,0.0,0.0,0.0,0.0,0.0,0.0,0.0,0.0,0.0,0.0,0.0,0.0,0.0,0.0,0.0,0.0,0.0,0.0,0.0,0.0,0.0,-0.4373,-0.4921,-0.5315,-0.5944,-0.6338,-0.6338,-0.6338,-0.6338,-0.6338,-0.6338,-0.6338,-0.6338,-0.6338,-0.6338,-0.6338,-0.7022,-0.8089,-0.9372,-0.997,-1.1093,-1.2372,-1.2952,-1.3171,-1.3237,-1.3491,-1.3556,-1.3411,-1.2771,-1.2631,-1.2565,-1.2372,-1.2305,-1.2305,-1.2305,-1.2084,-1.1837,-1.173,-1.1476,-1.1182,-1.0895,-1.0828,-1.0775,-1.0658,-1.0624,-1.0624,-1.0624,-1.0624,-1.0624,-1.0624,-1.0624,-1.0624,-1.0624,-1.0624,-1.0624,-1.0624,-1.0624,-1.0624,-1.0624,-1.0624,-1.0826,-1.1254,-1.1892,-1.281,-1.4154,-1.451,-1.5056,-1.5811,-1.6037,-1.64,-1.6885,-1.7853,-1.8877,-2.0019,-2.0476,-2.1473,0.833,0.5308,0.2034,0.0502,-0.1356,-0.3487,-0.5964,-0.5567,-0.4976,-0.6021,-0.5365,-0.4623,-0.4917,0.0,0.0,0.0,0.0,0.0,0.0,0.0,0.0,0.0,0.0,0.0,0.0,0.0,0.0,0.0,0.0,0.0,0.0,0.0,0.0,0.0,0.0,0.0,0.0,-0.3755,-0.4429,-0.5039,-0.5854,-0.6213,-0.6338,-0.6338,-0.6338,-0.6338,-0.6338,-0.6338,-0.6338,-0.6338,-0.6338,-0.6412,-0.7403,-0.8389,-0.9448,-1.0415,-1.1607,-1.2806,-1.3455,-1.3882,-1.4314,-1.495,-1.5234,-1.5092,-1.4378,-1.3954,-1.36,-1.2952,-1.2519,-1.2305,-1.2305,-1.2151,-1.1984,-1.1891,-1.171,-1.1463,-1.1076,-1.0995,-1.0909,-1.0678,-1.0624,-1.0624,-1.0624,-1.0624,-1.0624,-1.0624,-1.0624,-1.0624,-1.0624,-1.0624,-1.0624,-1.0624,-1.0705,-1.0759,-1.0759,-1.0782,-1.0915,-1.1116,-1.1444,-1.2396,-1.4092,-1.439,-1.5087,-1.6269,-1.6406,-1.6777,-1.7383,-1.8015,-1.8935,-2.0193,-2.0255,-2.1055,0.8333,0.5692,0.2647,0.0869,-0.0922,-0.2894,-0.5406,-0.5312,-0.5011,-0.6125,-0.5006,-0.4092,-0.4915,0.0,0.0,0.0,0.0,0.0,0.0,0.0,0.0,0.0,0.0,0.0,0.0,0.0,0.0,0.0,0.0,0.0,0.0,0.0,0.0,0.0,0.0,0.0,0.0,-0.2868,-0.3844,-0.5803,-0.5956,-0.6108,-0.6257,-0.6261,-0.6338,-0.6338,-0.6338,-0.6338,-0.6338,-0.6338,-0.6338,-0.6416,-0.7403,-0.8466,-0.9448,-1.0415,-1.2044,-1.3673,-1.3745,-1.4378,-1.5234,-1.5234,-1.5234,-1.5234,-1.5234,-1.4522,-1.3745,-1.3673,-1.3025,-1.2305,-1.2305,-1.2305,-1.2231,-1.1944,-1.187,-1.171,-1.1122,-1.0995,-1.0909,-1.0678,-1.0624,-1.0624,-1.0624,-1.0624,-1.0624,-1.0624,-1.0624,-1.0624,-1.0624,-1.0624,-1.0624,-1.0624,-1.0822,-1.0995,-1.0995,-1.1263,-1.1423,-1.143,-1.143,-1.2226,-1.4016,-1.4867,-1.5725,-1.6675,-1.7158,-1.7383,-1.7393,-1.8705,-1.9299,-1.9299,-2.0204,-2.059,0.807,0.4896,0.1748,0.0458,-0.1862,-0.4034,-0.4768,-0.4868,-0.4996,-0.5553,-0.4714,-0.3869,-0.4157,0.0,0.0,0.0,0.0,0.0,0.0,0.0,0.0,0.0,0.0,0.0,0.0,0.0,0.0,0.0,0.0,0.0,0.0,0.0,0.0,0.0,0.0,0.0,0.0,0.0,-0.3485,-0.4718,-0.5482,-0.5949,-0.6101,-0.621,-0.6338,-0.6338,-0.6338,-0.6338,-0.6338,-0.6338,-0.6718,-0.748,-0.8466,-0.9442,-1.0565,-1.2265,-1.3222,-1.389,-1.5296,-1.593,-1.6289,-1.6941,-1.7157,-1.7079,-1.6358,-1.5517,-1.4593,-1.389,-1.3025,-1.2305,-1.2305,-1.2305,-1.2278,-1.2191,-1.2171,-1.2011,-1.1423,-1.1296,-1.1149,-1.0719,-1.0624,-1.0624,-1.0624,-1.0624,-1.0624,-1.0624,-1.0624,-1.0624,-1.0624,-1.0735,-1.0862,-1.0862,-1.1122,-1.1296,-1.1296,-1.1376,-1.1516,-1.1724,-1.1737,-1.2462,-1.4032,-1.3693,-1.4612,-1.7113,-1.6609,-1.6816,-1.7822,-1.821,-1.8721,-1.9309,-1.9562,-2.0009,0.7062,0.4119,0.1259,-0.0098,-0.225,-0.4126,-0.4468,0.0,0.0,0.0,-0.4056,-0.3345,0.0,0.0,0.0,0.0,0.0,0.0,0.0,0.0,0.0,0.0,0.0,0.0,0.0,0.0,0.0,0.0,0.0,0.0,0.0,0.0,0.0,0.0,0.0,0.0,0.0,0.0,0.0,-0.4714,-0.5406,-0.5766,-0.5864,-0.6074,-0.6169,-0.6173,-0.6234,-0.6338,-0.6338,-0.6338,-0.6872,-0.7936,-0.8917,-1.011,-1.1588,-1.315,-1.4163,-1.5013,-1.621,-1.6853,-1.7285,-1.7794,-1.8008,-1.7872,-1.7354,-1.6498,-1.5649,-1.5013,-1.3875,-1.2879,-1.2879,-1.2592,-1.2305,-1.2305,-1.2305,-1.2138,-1.155,-1.1423,-1.1249,-1.0675,-1.0624,-1.0624,-1.0624,-1.0624,-1.0624,-1.0624,-1.0719,-1.0775,-1.0889,-1.1056,-1.1169,-1.1169,-1.143,-1.1603,-1.1603,-1.171,-1.185,-1.2031,-1.2044,-1.2586,-1.3913,-1.3768,-1.4968,-1.756,-1.7054,-1.7177,-1.8008,-1.8008,-1.8269,-1.8787,-1.8787,-1.9044,0.5631,0.34,0.1009,-0.0699,-0.2275,0.0,-0.4508,-0.4799,-0.4729,-0.4074,0.0,0.0,0.0,0.0,0.0,0.0,0.0,0.0,0.0,0.0,0.0,0.0,0.0,0.0,0.0,0.0,0.0,0.0,0.0,0.0,0.0,0.0,0.0,0.0,0.0,0.0,0.0,0.0,0.0,0.0,-0.5501,-0.5569,-0.5579,-0.5888,-0.6037,-0.6057,-0.62,-0.6338,-0.6338,-0.6412,-0.7022,-0.8012,-0.9069,-1.0622,-1.2451,-1.3433,-1.5013,-1.6627,-1.6706,-1.7354,-1.8144,-1.8144,-1.8144,-1.8144,-1.8144,-1.7423,-1.6636,-1.6636,-1.5296,-1.3818,-1.3745,-1.3098,-1.2445,-1.2298,-1.2305,-1.2151,-1.159,-1.1443,-1.1263,-1.0708,-1.0645,-1.0624,-1.0624,-1.0624,-1.0631,-1.0658,-1.0842,-1.1129,-1.1396,-1.145,-1.147,-1.147,-1.173,-1.1911,-1.1911,-1.2151,-1.2305,-1.2305,-1.2305,-1.2732,-1.3673,-1.4593,-1.5948,-1.7862,-1.7862,-1.794,-1.8008,-1.8008,-1.8008,-1.8008,-1.8008,-1.8008,0.4884,0.2687,0.0618,-0.0888,-0.2765,-0.4294,-0.4646,-0.4718,-0.4552,-0.3979,0.0,0.0,0.0,0.0,0.0,0.0,0.0,0.0,0.0,0.0,0.0,0.0,0.0,0.0,0.0,0.0,0.0,0.0,0.0,0.0,0.0,0.0,0.0,0.0,0.0,0.0,-0.1622,-0.235,-0.3211,0.0,-0.5055,-0.541,-0.5423,-0.584,-0.6095,-0.6213,-0.6247,-0.6338,-0.6338,-0.7176,-0.8089,-0.9069,-1.0115,-1.1668,-1.3506,-1.4522,-1.5579,-1.6706,-1.7432,-1.825,-1.9044,-1.9044,-1.9044,-1.9044,-1.9044,-1.7872,-1.6636,-1.6636,-1.579,-1.4673,-1.3882,-1.3528,-1.3237,-1.2445,-1.2305,-1.2204,-1.185,-1.159,-1.1323,-1.0969,-1.0715,-1.0624,-1.0624,-1.0624,-1.0698,-1.0868,-1.1149,-1.1356,-1.1416,-1.163,-1.177,-1.177,-1.2037,-1.2204,-1.2204,-1.2265,-1.2305,-1.2305,-1.2305,-1.2732,-1.3673,-1.3882,-1.4942,-1.6853,-1.6922,-1.7285,-1.8008,-1.8008,-1.8008,-1.8008,-1.8008,-1.8008,0.4081,0.2131,0.0144,-0.1799,0.0,-0.3922,-0.399,-0.4352,-0.4314,-0.3278,0.0,0.0,0.0,0.0,0.0,0.0,0.0,0.0,0.0,0.0,0.0,0.0,0.0,0.0,0.0,0.0,0.0,0.0,0.0,0.0,0.0,0.0,0.0,0.0,0.0,0.0,-0.1273,-0.2209,-0.3145,-0.4015,-0.4957,-0.5466,-0.5481,-0.5783,-0.6003,-0.6156,-0.623,-0.6338,-0.6416,-0.7403,-0.8389,-0.9372,-1.0415,-1.2251,-1.4458,-1.5021,-1.6079,-1.7354,-1.7862,-1.8269,-1.8654,-1.8654,-1.8654,-1.8654,-1.8654,-1.8037,-1.7285,-1.7285,-1.6576,-1.5649,-1.4665,-1.4027,-1.3455,-1.2519,-1.2305,-1.2225,-1.1931,-1.1637,-1.1383,-1.1229,-1.0962,-1.0768,-1.0768,-1.0768,-1.0868,-1.1156,-1.145,-1.169,-1.1824,-1.1984,-1.2078,-1.2078,-1.2211,-1.2305,-1.2305,-1.2305,-1.2305,-1.2305,-1.2305,-1.2519,-1.3025,-1.3954,-1.5084,-1.6558,-1.707,-1.7501,-1.8008,-1.8008,-1.8008,-1.8008,-1.8008,-1.8008,0.3331,0.1629,-0.0342,-0.2481,-0.3051,0.0,-0.3121,-0.3735,-0.3901,0.0,0.0,0.0,0.0,0.0,0.0,0.0,0.0,0.0,0.0,0.0,0.0,0.0,0.0,0.0,0.0,0.0,0.0,0.0,0.0,0.0,0.0,0.0,0.0,0.0,0.0,-0.0404,-0.1273,-0.2209,-0.3145,-0.4015,-0.4957,-0.543,-0.5555,-0.5698,-0.5861,-0.6037,-0.6166,-0.6388,-0.6644,-0.7629,-0.8613,-0.9669,-1.064,-1.2757,-1.5234,-1.5234,-1.6376,-1.8008,-1.8008,-1.8076,-1.8202,-1.8202,-1.8202,-1.8202,-1.8202,-1.8144,-1.8008,-1.8008,-1.7432,-1.6636,-1.5658,-1.4807,-1.3954,-1.2806,-1.2519,-1.2451,-1.2069,-1.171,-1.149,-1.1436,-1.1189,-1.0995,-1.0995,-1.1076,-1.1209,-1.1396,-1.1717,-1.2031,-1.2271,-1.2305,-1.2305,-1.2305,-1.2305,-1.2305,-1.2305,-1.2305,-1.2305,-1.2305,-1.2305,-1.2372,-1.2519,-1.4235,-1.5658,-1.6567,-1.7501,-1.8008,-1.8008,-1.8008,-1.8008,-1.8008,-1.8008,-1.8008,0.2924,0.0,-0.096,0.0,-0.1856,-0.2343,0.0,0.0,0.0,0.0,0.0,0.0,0.0,0.0,0.0,0.0,0.0,0.0,0.0,0.0,0.0,0.0,0.0,0.0,0.0,0.0,0.0,0.0,0.0,0.0,0.0,0.0,0.0,0.0,0.0,0.0,-0.1273,-0.2209,-0.3145,-0.4015,-0.4957,-0.5439,-0.5463,-0.5549,-0.5769,-0.603,-0.6051,-0.6659,-0.7706,-0.8689,-0.9669,-1.0714,-1.1694,-1.3368,-1.5234,-1.5234,-1.6376,-1.8008,-1.8008,-1.8462,-1.911,-1.911,-1.911,-1.911,-1.911,-1.8596,-1.8008,-1.8008,-1.794,-1.7579,-1.6645,-1.628,-1.579,-1.3947,-1.3528,-1.3302,-1.2398,-1.2017,-1.173,-1.1476,-1.1189,-1.0995,-1.0995,-1.1416,-1.1677,-1.1456,-1.1891,-1.2258,-1.2298,-1.2305,-1.2305,-1.2305,-1.2305,-1.2305,-1.2305,-1.2305,-1.2305,-1.2305,-1.2305,-1.2659,-1.3455,-1.4593,-1.5658,-1.6567,-1.7501,-1.8008,-1.8008,-1.8008,-1.8008,-1.8008,-1.8008,-1.8008,0.2144,0.0644,-0.0579,0.0,-0.1342,-0.1582,-0.1612,0.0,0.0,0.0,0.0,0.0,0.0,0.0,0.0,0.0,0.0,0.0,0.0,0.0,0.0,0.0,0.0,0.0,0.0,0.0,0.0,0.0,0.0,0.0,0.0,-0.0269,-0.0201,-0.0592,-0.0667,0.0,-0.1965,-0.2922,-0.3882,-0.4821,-0.5226,-0.5428,-0.5428,-0.5433,-0.5623,-0.5905,-0.6574,-0.723,-0.7931,-0.9513,-1.0415,-1.0932,-1.1922,-1.352,-1.5234,-1.5234,-1.6376,-1.8008,-1.8008,-1.8269,-1.8586,-1.8586,-1.8586,-1.8586,-1.8586,-1.8269,-1.8008,-1.8008,-1.8008,-1.7647,-1.6219,-1.6219,-1.614,-1.4171,-1.3673,-1.36,-1.3171,-1.2432,-1.183,-1.1697,-1.157,-1.1483,-1.1483,-1.1697,-1.1824,-1.1697,-1.2031,-1.2519,-1.3025,-1.3091,-1.331,-1.3875,-1.3947,-1.3947,-1.3947,-1.3947,-1.3947,-1.3947,-1.3947,-1.4091,-1.4522,-1.5438,-1.621,-1.6558,-1.7501,-1.8008,-1.8008,-1.8008,-1.8008,-1.8008,-1.8008,-1.8008,0.1411,0.0,-0.0132,-0.0694,-0.0827,-0.0846,0.0,0.0,0.0,0.0,0.0,0.0,0.0,0.0,0.0,0.0,0.0,0.0,0.0,0.0,0.0,0.0,0.0,0.0,0.0,0.0,0.0,0.0,0.0,0.0,-0.1592,-0.0997,-0.0854,-0.1337,-0.1504,-0.1968,-0.2827,-0.383,-0.4688,-0.5428,-0.5428,-0.5428,-0.5428,-0.5428,-0.5658,-0.623,-0.7074,-0.7851,-0.8685,-1.0185,-1.0938,-1.1316,-1.2291,-1.3665,-1.5234,-1.5446,-1.6585,-1.8008,-1.8008,-1.8008,-1.8008,-1.8008,-1.8008,-1.8008,-1.8008,-1.8008,-1.8008,-1.8008,-1.8008,-1.7657,-1.6298,-1.6437,-1.6498,-1.4871,-1.4243,-1.3954,-1.3455,-1.2569,-1.1891,-1.1964,-1.1917,-1.187,-1.187,-1.1931,-1.1957,-1.1877,-1.2328,-1.2879,-1.36,-1.3882,-1.4386,-1.5092,-1.5234,-1.5234,-1.5234,-1.5234,-1.5234,-1.5234,-1.5234,-1.5305,-1.5517,-1.6219,-1.6706,-1.6922,-1.7647,-1.8008,-1.8008,-1.8008,-1.8008,-1.8008,-1.8008,-1.8008,0.0,0.0354,0.0,-0.0044,-0.0048,0.0,0.0,0.0,0.0,0.0,0.0,0.0,0.0,0.0,0.0,0.0,0.0,0.0,0.0,0.0,0.0,0.0,0.0,0.0,0.0,0.0,0.0,0.0,0.0,0.0,-0.2513,-0.2384,-0.2289,-0.2157,-0.2347,-0.2829,-0.3717,-0.4817,-0.5359,-0.5428,-0.5428,-0.5428,-0.5428,-0.5428,-0.606,-0.7212,-0.7291,-0.8587,-1.0634,-1.0783,-1.1391,-1.2298,-1.3237,-1.4243,-1.5305,-1.621,-1.7139,-1.8008,-1.8008,-1.8008,-1.8008,-1.8008,-1.8008,-1.8008,-1.8008,-1.8008,-1.8008,-1.8008,-1.8008,-1.8008,-1.7872,-1.7872,-1.7647,-1.6706,-1.579,-1.4593,-1.2806,-1.2143,-1.1951,-1.2225,-1.2058,-1.187,-1.187,-1.2098,-1.2184,-1.1911,-1.2899,-1.3673,-1.3673,-1.4522,-1.5163,-1.5163,-1.5234,-1.5234,-1.5234,-1.5234,-1.5234,-1.5234,-1.5234,-1.5587,-1.6489,-1.6558,-1.7001,-1.794,-1.8008,-1.8008,-1.8008,-1.8008,-1.8008,-1.8008,-1.8008,-1.8008,0.0313,0.0,0.0,-0.0755,-0.0629,-0.0571,0.0,0.0,0.0,0.0,0.0,0.0,0.0,0.0,0.0,0.0,0.0,0.0,0.0,0.0,0.0,0.0,0.0,0.0,0.0,0.0,0.0,0.0,0.0,0.0,-0.3977,-0.3356,-0.3005,-0.2981,-0.3134,-0.3653,-0.4614,-0.515,-0.5428,-0.5428,-0.5428,-0.5428,-0.5428,-0.5428,-0.6336,-0.8,-0.8204,-0.9227,-1.0864,-1.1465,-1.1996,-1.2372,-1.331,-1.4307,-1.5305,-1.628,-1.7217,-1.8008,-1.8008,-1.8008,-1.8008,-1.8008,-1.8008,-1.7872,-1.7285,-1.7501,-1.7862,-1.7285,-1.7579,-1.7862,-1.7285,-1.707,-1.6715,-1.5084,-1.445,-1.3882,-1.2592,-1.2218,-1.2178,-1.2278,-1.2218,-1.2144,-1.2144,-1.2231,-1.2478,-1.2949,-1.3454,-1.4163,-1.5367,-1.586,-1.6358,-1.6941,-1.701,-1.701,-1.701,-1.701,-1.701,-1.701,-1.701,-1.7148,-1.7501,-1.7501,-1.7647,-1.8008,-1.8008,-1.8008,-1.8008,-1.8008,-1.8008,-1.8008,-1.8008,-1.8008,-0.0236,0.0,0.0,0.0,0.0,-0.1056,0.0,0.0,0.0,0.0,0.0,0.0,0.0,0.0,0.0,0.0,0.0,0.0,0.0,0.0,0.0,0.0,0.0,0.0,0.0,0.0,0.0,0.0,0.0,0.0,-0.5455,-0.4852,-0.4398,-0.421,-0.4342,-0.4603,-0.5065,-0.5284,-0.5428,-0.5428,-0.5428,-0.5428,-0.5428,-0.5686,-0.6764,-0.843,-0.8922,-0.9896,-1.1261,-1.1957,-1.2519,-1.2879,-1.381,-1.4807,-1.579,-1.6715,-1.7432,-1.8008,-1.8008,-1.8008,-1.794,-1.7647,-1.7501,-1.7354,-1.6428,-1.6576,-1.701,-1.6706,-1.707,-1.7432,-1.7139,-1.6853,-1.621,-1.4593,-1.3962,-1.3455,-1.2519,-1.2305,-1.2305,-1.2305,-1.2305,-1.2305,-1.2305,-1.2592,-1.2952,-1.36,-1.4235,-1.5155,-1.6419,-1.6853,-1.7285,-1.794,-1.8269,-1.8337,-1.8008,-1.8529,-1.8586,-1.8008,-1.8269,-1.8337,-1.8008,-1.8008,-1.8008,-1.8008,-1.8008,-1.8008,-1.8008,-1.8008,-1.8008,-1.8008,-1.8008,-1.8134,0.0,0.0,0.0,0.0,0.0,0.0,0.0,0.0,0.0,0.0,0.0,0.0,0.0,0.0,0.0,0.0,0.0,0.0,0.0,0.0,0.0,0.0,0.0,0.0,0.0,0.0,0.0,0.0,0.0,-0.7007,-0.7007,-0.6951,-0.6559,-0.5821,-0.5948,-0.5705,-0.5118,-0.5274,-0.5422,-0.5422,-0.5425,-0.5428,-0.5428,-0.6334,-0.7348,-0.8415,-0.9309,-1.0554,-1.1864,-1.2164,-1.2799,-1.3745,-1.4807,-1.579,-1.6706,-1.7647,-1.8008,-1.8008,-1.8008,-1.8008,-1.7794,-1.6922,-1.6567,-1.6349,-1.5446,-1.5163,-1.5376,-1.628,-1.6567,-1.6775,-1.7647,-1.7217,-1.628,-1.5376,-1.4386,-1.3382,-1.2519,-1.2305,-1.2305,-1.2305,-1.2305,-1.2305,-1.2372,-1.3098,-1.3745,-1.3818,-1.5367,-1.6636,-1.6636,-1.7432,-1.8008,-1.8008,-1.8854,-1.8977,-1.8144,-1.9628,-1.9879,-1.8202,-1.8854,-1.8911,-1.8076,-1.8008,-1.8008,-1.8008,-1.8008,-1.8008,-1.8008,-1.8008,-1.8008,-1.8008,-1.8008,-1.8529,-0.1388,0.0,0.0,0.0,0.0,0.0,0.0,0.0,0.0,0.0,0.0,0.0,0.0,0.0,0.0,0.0,0.0,0.0,0.0,0.0,0.0,0.0,0.0,0.0,0.0,0.0,0.0,0.0,0.0,-0.947,-0.8976,-0.7979,-0.6861,-0.5618,-0.5751,-0.5526,-0.4813,-0.5067,-0.5196,-0.5196,-0.5308,-0.5428,-0.5428,-0.6334,-0.7204,-0.8189,-0.923,-1.0275,-1.1276,-1.1784,-1.2256,-1.2879,-1.4522,-1.5376,-1.5799,-1.7432,-1.8008,-1.8008,-1.8008,-1.7579,-1.6922,-1.6706,-1.614,-1.5367,-1.4378,-1.4593,-1.5234,-1.5508,-1.5587,-1.5517,-1.5021,-1.4665,-1.4235,-1.3302,-1.2879,-1.2592,-1.2378,-1.2305,-1.2305,-1.2305,-1.2305,-1.2519,-1.3171,-1.3528,-1.4171,-1.5579,-1.628,-1.6853,-1.7501,-1.8385,-1.8911,-1.8911,-1.9694,-2.0139,-1.9879,-2.0333,-2.0398,-1.9879,-1.9497,-1.9166,-1.8977,-1.8337,-1.8008,-1.8008,-1.8008,-1.8008,-1.8008,-1.8008,-1.8008,-1.8008,-1.8654,-1.9759,-0.1815,0.0,0.0,0.0,0.0,0.0,0.0,0.0,0.0,0.0,0.0,0.0,0.0,0.0,0.0,0.0,0.0,0.0,0.0,0.0,0.0,0.0,0.0,0.0,0.0,0.0,0.0,0.0,-1.0568,-1.0501,-0.9769,-0.8985,-0.7888,-0.6465,-0.6565,-0.6169,-0.5147,-0.5343,-0.538,-0.5131,-0.522,-0.5491,-0.5943,-0.685,-0.7702,-0.8624,-0.9622,-1.0418,-1.1022,-1.1363,-1.2025,-1.2913,-1.4956,-1.579,-1.5939,-1.7432,-1.8008,-1.794,-1.7569,-1.707,-1.6489,-1.5649,-1.5013,-1.4378,-1.3382,-1.352,-1.4091,-1.445,-1.4879,-1.5092,-1.4458,-1.4027,-1.3528,-1.3025,-1.2592,-1.2305,-1.2305,-1.2305,-1.2305,-1.2305,-1.2305,-1.2592,-1.3528,-1.4027,-1.4807,-1.6349,-1.6922,-1.7354,-1.794,-1.8462,-1.8921,-1.9243,-2.0074,-2.059,-2.059,-2.1227,-2.1164,-2.0139,-1.9944,-1.9497,-1.8787,-1.8269,-1.8008,-1.8008,-1.8008,-1.8212,-1.8529,-1.8212,-1.8202,-1.8586,-1.9824,-2.091,0.0,0.0,0.0,0.0,0.0,0.0,-0.3767,-0.4182,0.0,0.0,0.0,0.0,0.0,0.0,0.0,0.0,0.0,0.0,0.0,0.0,0.0,0.0,0.0,0.0,0.0,0.0,0.0,-1.0864,-1.0914,-1.0618,-0.9969,-0.9865,-0.9138,-0.7723,-0.7819,-0.7202,-0.5796,-0.5927,-0.5681,-0.5081,-0.5114,-0.5642,-0.6689,-0.7623,-0.8484,-0.9338,-1.0238,-1.0708,-1.0949,-1.1107,-1.1984,-1.3446,-1.5584,-1.6426,-1.6642,-1.7628,-1.8008,-1.7862,-1.707,-1.6636,-1.614,-1.445,-1.3745,-1.3382,-1.2519,-1.2305,-1.2445,-1.331,-1.4235,-1.5021,-1.4879,-1.4235,-1.3528,-1.3528,-1.2879,-1.2305,-1.2305,-1.2305,-1.2305,-1.2305,-1.2305,-1.2666,-1.3673,-1.4593,-1.5517,-1.6567,-1.7501,-1.8008,-1.8008,-1.8134,-1.8596,-1.9365,-2.0333,-2.091,-2.091,-2.2249,-2.2113,-1.9879,-2.0398,-2.0009,-1.8327,-1.8202,-1.8076,-1.8008,-1.8076,-1.8586,-1.9431,-1.8654,-1.8721,-1.9628,-2.1175,-2.1939,0.0,0.0,0.0,0.0,0.0,0.0,0.0,-0.4728,0.0,0.0,0.0,0.0,0.0,0.0,0.0,0.0,0.0,0.0,0.0,0.0,0.0,0.0,0.0,0.0,0.0,0.0,-1.1466,-1.1616,-1.1616,-1.1316,-1.0669,-1.0115,-0.9138,-0.7723,-0.7716,-0.7025,-0.5597,-0.573,-0.5498,-0.4779,-0.5016,-0.5586,-0.6506,-0.756,-0.8484,-0.9338,-1.0238,-1.0658,-1.0725,-1.1725,-1.2387,-1.2976,-1.4449,-1.547,-1.6193,-1.7523,-1.8008,-1.794,-1.7794,-1.6724,-1.5438,-1.5021,-1.3882,-1.2519,-1.2378,-1.2305,-1.2372,-1.2519,-1.3237,-1.381,-1.3091,-1.2732,-1.2592,-1.2592,-1.2445,-1.2305,-1.2305,-1.2305,-1.2305,-1.2305,-1.2305,-1.2879,-1.4593,-1.5092,-1.5799,-1.7442,-1.7862,-1.8008,-1.8008,-1.9233,-2.0139,-2.0333,-2.1729,-2.2628,-2.2628,-2.2884,-2.2884,-2.2372,-2.1928,-2.1175,-2.0139,-1.9431,-1.8721,-1.8008,-1.8721,-1.9497,-2.0333,-2.0204,-2.0526,-2.1428,-2.1753,-2.2261,0.0,0.0,0.0,-0.4604,0.0,0.0,0.0,0.0,0.0,0.0,0.0,0.0,0.0,0.0,0.0,0.0,0.0,0.0,0.0,0.0,0.0,0.0,0.0,0.0,0.0,0.0,-1.1814,-1.1814,-1.1516,-1.1015,-1.0364,-1.0312,-0.9651,-0.8315,-0.8567,-0.7859,-0.6091,-0.6142,-0.5906,-0.5262,-0.537,-0.6155,-0.7405,-0.8064,-0.8868,-0.9718,-1.0368,-1.0624,-1.0694,-1.1714,-1.2378,-1.2971,-1.4535,-1.5279,-1.5794,-1.7187,-1.7695,-1.7658,-1.7357,-1.6715,-1.579,-1.5376,-1.4235,-1.3098,-1.3593,-1.3382,-1.2879,-1.2445,-1.2659,-1.2879,-1.2445,-1.2305,-1.2305,-1.2305,-1.2305,-1.2305,-1.2305,-1.2305,-1.2305,-1.2305,-1.2305,-1.2945,-1.4879,-1.5234,-1.5869,-1.7725,-1.8008,-1.8008,-1.8008,-1.8787,-1.9628,-2.0526,-2.1353,-2.2175,-2.3005,-2.2763,-2.2322,-2.1865,-2.1101,-2.0204,-1.9365,-1.8844,-1.8654,-1.8654,-1.9497,-2.0398,-2.1239,-2.1678,-2.1865,-2.1877,-2.2322,-2.2689,0.0,0.0,0.0,0.0,0.0,-0.6082,0.0,0.0,0.0,0.0,0.0,0.0,0.0,0.0,0.0,0.0,0.0,0.0,0.0,0.0,0.0,0.0,0.0,0.0,0.0,0.0,-1.184,-1.1805,-1.1098,-1.0444,-0.9806,-1.021,-0.9917,-0.8857,-0.9309,-0.8659,-0.6642,-0.6588,-0.6234,-0.5551,-0.5698,-0.6596,-0.8177,-0.8543,-0.9248,-1.0134,-1.0374,-1.0571,-1.0618,-1.1288,-1.202,-1.2944,-1.4674,-1.5405,-1.5588,-1.6617,-1.7174,-1.729,-1.6692,-1.6573,-1.6498,-1.572,-1.4807,-1.4171,-1.495,-1.453,-1.3528,-1.2806,-1.2445,-1.2305,-1.2305,-1.2305,-1.2305,-1.2305,-1.2305,-1.2305,-1.2305,-1.2305,-1.2305,-1.2305,-1.2305,-1.2879,-1.4593,-1.5092,-1.5799,-1.751,-1.7862,-1.8008,-1.8008,-1.8144,-1.8787,-2.0204,-2.0526,-2.1164,-2.2494,-2.2002,-2.1365,-2.0655,-1.9944,-1.9243,-1.8529,-1.8529,-1.8911,-1.9759,-2.0462,-2.129,-2.2137,-2.2763,-2.2763,-2.2125,-2.2823,-2.3078,0.0,0.0,0.0,0.0,-0.6443,0.0,0.0,0.0,0.0,0.0,0.0,0.0,0.0,0.0,0.0,0.0,0.0,0.0,0.0,0.0,0.0,0.0,0.0,0.0,0.0,0.0,0.0,-1.1837,-1.0859,-1.0146,-0.9799,-0.9316,-0.8956,-0.8811,-0.8857,-0.815,-0.6588,-0.6588,-0.5946,-0.4653,-0.5413,-0.6297,-0.7302,-0.8055,-0.9075,-1.012,-1.0154,-1.0314,-1.0624,-1.0681,-1.1233,-1.2112,-1.4196,-1.5377,-1.5998,-1.577,-1.643,-1.7251,-1.6437,-1.6328,-1.6567,-1.6498,-1.579,-1.5021,-1.5163,-1.453,-1.3673,-1.36,-1.2952,-1.2305,-1.2305,-1.2305,-1.2305,-1.2305,-1.2305,-1.2305,-1.2305,-1.2305,-1.2305,-1.2305,-1.2305,-1.2666,-1.3673,-1.4593,-1.5517,-1.6567,-1.7501,-1.8008,-1.8008,-1.8654,-1.9243,-1.9431,-2.0139,-2.0655,-2.0846,-2.0782,-2.0719,-2.059,-2.0526,-2.0398,-2.0333,-2.0333,-2.0719,-2.1565,-2.169,-2.2125,-2.2944,-2.3078,-2.3078,-2.2944,-2.3078,-2.3078,0.0,0.0,0.0,0.0,0.0,0.0,0.0,0.0,-0.8187,0.0,0.0,0.0,0.0,0.0,0.0,0.0,0.0,0.0,0.0,0.0,0.0,0.0,0.0,0.0,0.0,0.0,0.0,0.0,0.0,-0.957,-0.9242,-0.971,-0.9614,-0.8804,-0.9159,-0.8508,-0.6642,-0.702,-0.675,-0.5719,-0.6514,-0.7329,-0.8118,-0.8602,-0.9227,-0.9873,-1.0047,-1.0287,-1.0624,-1.1108,-1.1531,-1.1903,-1.3289,-1.397,-1.445,-1.5476,-1.5549,-1.534,-1.6169,-1.6216,-1.5948,-1.5882,-1.5957,-1.5945,-1.5059,-1.4501,-1.412,-1.3757,-1.3025,-1.2305,-1.2305,-1.2305,-1.2305,-1.2305,-1.2305,-1.2305,-1.2305,-1.2305,-1.2305,-1.2305,-1.2305,-1.2445,-1.2806,-1.3665,-1.4665,-1.5658,-1.6576,-1.7217,-1.7217,-1.7969,-1.8721,-1.9243,-1.9628,-2.0074,-2.059,-2.0139,-1.9814,-1.9814,-1.9365,-1.9299,-1.9814,-1.9814,-2.0462,-2.1877,-2.1877,-2.2322,-2.3078,-2.3078,-2.3078,-2.3078,-2.3078,-2.3078,-0.6386,0.0,0.0,0.0,0.0,0.0,0.0,0.0,0.0,0.0,0.0,0.0,0.0,0.0,0.0,0.0,0.0,0.0,0.0,0.0,0.0,0.0,0.0,0.0,0.0,0.0,0.0,0.0,0.0,0.0,-0.9093,-0.9814,-0.9814,-0.8857,-0.9256,-0.8606,-0.6642,-0.7343,-0.7235,-0.6312,-0.7235,-0.799,-0.8487,-0.8916,-0.9285,-0.9579,-0.9873,-1.0167,-1.051,-1.119,-1.1469,-1.1531,-1.2328,-1.2512,-1.2544,-1.4276,-1.4382,-1.3832,-1.5332,-1.5834,-1.5808,-1.5854,-1.6362,-1.6725,-1.5757,-1.5111,-1.4608,-1.4244,-1.3237,-1.2305,-1.2305,-1.2305,-1.2305,-1.2305,-1.2305,-1.2305,-1.2305,-1.2305,-1.2305,-1.2305,-1.2305,-1.2305,-1.2305,-1.3098,-1.3954,-1.4665,-1.5579,-1.621,-1.621,-1.707,-1.7842,-1.8489,-1.8767,-1.9177,-1.9814,-1.9299,-1.8911,-1.8911,-1.8787,-1.8977,-1.9628,-2.0074,-2.0974,-2.2187,-2.2261,-2.2506,-2.3078,-2.3078,-2.3078,-2.3078,-2.3078,-2.3078,0.0,0.0,0.0,-0.8002,0.0,0.0,0.0,0.0,-1.0069,0.0,0.0,0.0,0.0,0.0,0.0,-1.1676,0.0,0.0,0.0,0.0,0.0,0.0,0.0,0.0,0.0,0.0,0.0,0.0,0.0,0.0,-0.9725,-0.9211,-0.8857,-0.8804,-0.8804,-0.8103,-0.6588,-0.7343,-0.6961,-0.5542,-0.7015,-0.7723,-0.7777,-0.8493,-0.8978,-0.9216,-0.9566,-0.986,-1.0154,-1.0504,-1.0624,-1.0744,-1.1531,-1.1351,-1.0807,-1.16,-1.2672,-1.36,-1.368,-1.5016,-1.6733,-1.7161,-1.7363,-1.7441,-1.7784,-1.6636,-1.5147,-1.5163,-1.3803,-1.2305,-1.2305,-1.2305,-1.2305,-1.2305,-1.2305,-1.2305,-1.2305,-1.2305,-1.2305,-1.2305,-1.2305,-1.2305,-1.2305,-1.3098,-1.3745,-1.3745,-1.4593,-1.5234,-1.5234,-1.607,-1.6636,-1.6697,-1.7501,-1.8076,-1.8076,-1.8076,-1.8008,-1.8008,-1.9628,-2.0526,-2.059,-2.2113,-2.3005,-2.3078,-2.3078,-2.3078,-2.3078,-2.3078,-2.3078,-2.3078,-2.3078,-2.3078,0.0,0.0,-0.9385,-0.875,0.0,0.0,0.0,0.0,0.0,0.0,0.0,0.0,0.0,0.0,-1.2354,-1.2165,-1.0836,0.0,0.0,0.0,0.0,0.0,0.0,0.0,0.0,0.0,0.0,0.0,0.0,0.0,0.0,-1.0269,-0.9917,-0.9458,-0.8573,-0.7616,-0.6588,-0.6858,-0.675,-0.6253,-0.7235,-0.7937,-0.8427,-0.8699,-0.8965,-0.9196,-0.9552,-0.9846,-1.014,-1.0441,-1.0624,-1.0624,-1.0926,-1.0863,-1.0744,-1.2089,-1.2158,-1.1762,-1.2811,-1.4371,-1.5928,-1.6367,-1.6514,-1.6568,-1.659,-1.5762,-1.4641,-1.4316,-1.331,-1.2305,-1.2305,-1.2305,-1.2305,-1.2305,-1.2305,-1.2305,-1.2305,-1.2305,-1.2305,-1.2305,-1.2305,-1.2305,-1.2305,-1.2592,-1.2732,-1.2732,-1.36,-1.4243,-1.4243,-1.5092,-1.593,-1.6558,-1.6853,-1.7354,-1.794,-1.8008,-1.8008,-1.8008,-1.8529,-1.9431,-2.0526,-2.1164,-2.199,-2.3078,-2.3078,-2.3078,-2.3078,-2.3078,-2.3078,-2.3078,-2.3078,-2.3078,-0.8357,-0.9391,0.0,0.0,-0.9839,0.0,-0.9247,0.0,0.0,0.0,0.0,0.0,0.0,0.0,0.0,-1.2441,-1.0998,0.0,0.0,0.0,0.0,0.0,0.0,0.0,0.0,0.0,-0.8886,-0.9256,0.0,0.0,0.0,0.0,-1.0269,-0.9814,-0.8672,-0.7616,-0.6588,-0.6858,-0.6858,-0.6588,-0.7348,-0.8103,-0.8804,-0.8804,-0.8911,-0.905,-0.9399,-0.9693,-0.9987,-1.0281,-1.0461,-1.0624,-1.0624,-1.0624,-1.0744,-1.1787,-1.1849,-1.16,-1.2642,-1.4025,-1.5488,-1.5918,-1.6172,-1.6239,-1.5971,-1.5385,-1.4579,-1.3894,-1.3025,-1.2305,-1.2305,-1.2305,-1.2305,-1.2305,-1.2305,-1.2305,-1.2305,-1.2305,-1.2305,-1.2305,-1.2305,-1.2305,-1.2305,-1.2305,-1.2305,-1.2305,-1.2806,-1.3164,-1.3164,-1.4099,-1.5021,-1.6,-1.6419,-1.7001,-1.794,-1.8008,-1.8008,-1.8008,-1.8269,-1.911,-2.0526,-2.091,-2.1678,-2.3078,-2.3078,-2.3078,-2.3078,-2.3078,-2.3078,-2.3078,-2.3078,-2.3078]}]]